<?xml version="1.0" encoding="UTF-8"?>
<gpx version="1.1" creator="https://www.youtrack.es" xsi:schemaLocation="http://www.topografix.com/GPX/1/1 http://www.topografix.com/GPX/1/1/gpx.xsd http://www.garmin.com/xmlschemas/GpxExtensions/v3 http://www.garmin.com/xmlschemas/GpxExtensionsv3.xsd http://www.garmin.com/xmlschemas/TrackPointExtension/v1 http://www.garmin.com/xmlschemas/TrackPointExtensionv1.xsd" xmlns:gpxtpx="http://www.garmin.com/xmlschemas/TrackPointExtension/v1" xmlns:gpxx="http://www.garmin.com/xmlschemas/GpxExtensions/v3" xmlns:xsi="http://www.w3.org/2001/XMLSchema-instance">
  <metadata>
    <link href="https://www.youtrack.es">
      <text>YouTrack.es</text>
    </link>
    <time>2026-05-07T22:47:28Z</time>
  </metadata>
  <trk>
    <src>https://www.youtrack.es</src>
    <link href="https://www.youtrack.es/ruta/27283-fuerteventura">
      <text>YouTrack.es</text>
    </link>
    <trkseg>
      <trkpt lat="28.052967" lon="-14.353156">
        <ele>30.296</ele>
        <time>2021-10-29T14:17:41Z</time>
      </trkpt>
      <trkpt lat="28.053041" lon="-14.353454">
        <ele>31.931</ele>
        <time>2021-10-29T14:18:06Z</time>
      </trkpt>
      <trkpt lat="28.052880" lon="-14.353634">
        <ele>33.024</ele>
        <time>2021-10-29T14:18:19Z</time>
      </trkpt>
      <trkpt lat="28.051135" lon="-14.353598">
        <ele>34.108</ele>
        <time>2021-10-29T14:19:07Z</time>
      </trkpt>
      <trkpt lat="28.050146" lon="-14.354763">
        <ele>41.287</ele>
        <time>2021-10-29T14:19:50Z</time>
      </trkpt>
      <trkpt lat="28.050438" lon="-14.355336">
        <ele>43.057</ele>
        <time>2021-10-29T14:20:10Z</time>
      </trkpt>
      <trkpt lat="28.050882" lon="-14.355337">
        <ele>44.964</ele>
        <time>2021-10-29T14:20:28Z</time>
      </trkpt>
      <trkpt lat="28.050914" lon="-14.355703">
        <ele>41.859</ele>
        <time>2021-10-29T14:20:37Z</time>
      </trkpt>
      <trkpt lat="28.051188" lon="-14.356149">
        <ele>38.389</ele>
        <time>2021-10-29T14:20:43Z</time>
      </trkpt>
      <trkpt lat="28.052186" lon="-14.356958">
        <ele>34.125</ele>
        <time>2021-10-29T14:21:00Z</time>
      </trkpt>
      <trkpt lat="28.053015" lon="-14.359031">
        <ele>39.414</ele>
        <time>2021-10-29T14:21:56Z</time>
      </trkpt>
      <trkpt lat="28.052932" lon="-14.359119">
        <ele>39.956</ele>
        <time>2021-10-29T14:22:05Z</time>
      </trkpt>
      <trkpt lat="28.052967" lon="-14.358979">
        <ele>40.257</ele>
        <time>2021-10-29T14:23:33Z</time>
      </trkpt>
      <trkpt lat="28.053517" lon="-14.359275">
        <ele>41.000</ele>
        <time>2021-10-29T14:23:49Z</time>
      </trkpt>
      <trkpt lat="28.054001" lon="-14.359772">
        <ele>41.120</ele>
        <time>2021-10-29T14:24:02Z</time>
      </trkpt>
      <trkpt lat="28.053983" lon="-14.360287">
        <ele>40.808</ele>
        <time>2021-10-29T14:24:10Z</time>
      </trkpt>
      <trkpt lat="28.053435" lon="-14.360688">
        <ele>40.643</ele>
        <time>2021-10-29T14:24:22Z</time>
      </trkpt>
      <trkpt lat="28.053390" lon="-14.360874">
        <ele>40.853</ele>
        <time>2021-10-29T14:24:25Z</time>
      </trkpt>
      <trkpt lat="28.053557" lon="-14.361319">
        <ele>41.770</ele>
        <time>2021-10-29T14:24:34Z</time>
      </trkpt>
      <trkpt lat="28.053855" lon="-14.361350">
        <ele>42.255</ele>
        <time>2021-10-29T14:24:40Z</time>
      </trkpt>
      <trkpt lat="28.053939" lon="-14.361491">
        <ele>42.415</ele>
        <time>2021-10-29T14:24:43Z</time>
      </trkpt>
      <trkpt lat="28.053704" lon="-14.361969">
        <ele>42.841</ele>
        <time>2021-10-29T14:24:53Z</time>
      </trkpt>
      <trkpt lat="28.053737" lon="-14.362219">
        <ele>43.620</ele>
        <time>2021-10-29T14:24:58Z</time>
      </trkpt>
      <trkpt lat="28.054218" lon="-14.362537">
        <ele>47.132</ele>
        <time>2021-10-29T14:25:18Z</time>
      </trkpt>
      <trkpt lat="28.053921" lon="-14.363122">
        <ele>51.111</ele>
        <time>2021-10-29T14:25:47Z</time>
      </trkpt>
      <trkpt lat="28.054462" lon="-14.363241">
        <ele>53.121</ele>
        <time>2021-10-29T14:26:52Z</time>
      </trkpt>
      <trkpt lat="28.055462" lon="-14.363204">
        <ele>57.503</ele>
        <time>2021-10-29T14:27:23Z</time>
      </trkpt>
      <trkpt lat="28.056524" lon="-14.363939">
        <ele>56.808</ele>
        <time>2021-10-29T14:27:51Z</time>
      </trkpt>
      <trkpt lat="28.056714" lon="-14.364265">
        <ele>56.659</ele>
        <time>2021-10-29T14:27:58Z</time>
      </trkpt>
      <trkpt lat="28.056515" lon="-14.364336">
        <ele>56.789</ele>
        <time>2021-10-29T14:28:10Z</time>
      </trkpt>
      <trkpt lat="28.056486" lon="-14.365054">
        <ele>61.126</ele>
        <time>2021-10-29T14:28:35Z</time>
      </trkpt>
      <trkpt lat="28.056783" lon="-14.365930">
        <ele>68.081</ele>
        <time>2021-10-29T14:29:01Z</time>
      </trkpt>
      <trkpt lat="28.059453" lon="-14.364602">
        <ele>106.811</ele>
        <time>2021-10-29T14:29:20Z</time>
      </trkpt>
      <trkpt lat="28.057107" lon="-14.365753">
        <ele>72.597</ele>
        <time>2021-10-29T14:29:25Z</time>
      </trkpt>
      <trkpt lat="28.056734" lon="-14.367624">
        <ele>62.076</ele>
        <time>2021-10-29T14:29:50Z</time>
      </trkpt>
      <trkpt lat="28.056544" lon="-14.367424">
        <ele>62.058</ele>
        <time>2021-10-29T14:30:37Z</time>
      </trkpt>
      <trkpt lat="28.056694" lon="-14.367527">
        <ele>61.779</ele>
        <time>2021-10-29T14:32:09Z</time>
      </trkpt>
      <trkpt lat="28.056838" lon="-14.368690">
        <ele>57.105</ele>
        <time>2021-10-29T14:32:29Z</time>
      </trkpt>
      <trkpt lat="28.056560" lon="-14.368758">
        <ele>54.725</ele>
        <time>2021-10-29T14:32:33Z</time>
      </trkpt>
      <trkpt lat="28.055953" lon="-14.368298">
        <ele>50.408</ele>
        <time>2021-10-29T14:32:44Z</time>
      </trkpt>
      <trkpt lat="28.055710" lon="-14.368368">
        <ele>48.675</ele>
        <time>2021-10-29T14:32:49Z</time>
      </trkpt>
      <trkpt lat="28.055647" lon="-14.368898">
        <ele>45.715</ele>
        <time>2021-10-29T14:32:56Z</time>
      </trkpt>
      <trkpt lat="28.055785" lon="-14.369354">
        <ele>43.672</ele>
        <time>2021-10-29T14:33:02Z</time>
      </trkpt>
      <trkpt lat="28.056572" lon="-14.369293">
        <ele>40.517</ele>
        <time>2021-10-29T14:33:14Z</time>
      </trkpt>
      <trkpt lat="28.056734" lon="-14.369441">
        <ele>40.097</ele>
        <time>2021-10-29T14:33:18Z</time>
      </trkpt>
      <trkpt lat="28.056333" lon="-14.370124">
        <ele>40.453</ele>
        <time>2021-10-29T14:33:34Z</time>
      </trkpt>
      <trkpt lat="28.056432" lon="-14.371153">
        <ele>43.812</ele>
        <time>2021-10-29T14:33:59Z</time>
      </trkpt>
      <trkpt lat="28.060210" lon="-14.374107">
        <ele>54.544</ele>
        <time>2021-10-29T14:36:20Z</time>
      </trkpt>
      <trkpt lat="28.061230" lon="-14.374576">
        <ele>55.655</ele>
        <time>2021-10-29T14:36:50Z</time>
      </trkpt>
      <trkpt lat="28.061970" lon="-14.374683">
        <ele>59.207</ele>
        <time>2021-10-29T14:37:15Z</time>
      </trkpt>
      <trkpt lat="28.062638" lon="-14.375222">
        <ele>58.717</ele>
        <time>2021-10-29T14:37:40Z</time>
      </trkpt>
      <trkpt lat="28.063128" lon="-14.375889">
        <ele>59.208</ele>
        <time>2021-10-29T14:37:59Z</time>
      </trkpt>
      <trkpt lat="28.063485" lon="-14.377151">
        <ele>58.713</ele>
        <time>2021-10-29T14:39:30Z</time>
      </trkpt>
      <trkpt lat="28.063501" lon="-14.376997">
        <ele>58.743</ele>
        <time>2021-10-29T14:39:38Z</time>
      </trkpt>
      <trkpt lat="28.063138" lon="-14.378580">
        <ele>61.060</ele>
        <time>2021-10-29T14:41:28Z</time>
      </trkpt>
      <trkpt lat="28.062466" lon="-14.378983">
        <ele>63.335</ele>
        <time>2021-10-29T14:41:47Z</time>
      </trkpt>
      <trkpt lat="28.062299" lon="-14.379321">
        <ele>64.755</ele>
        <time>2021-10-29T14:41:55Z</time>
      </trkpt>
      <trkpt lat="28.062173" lon="-14.380454">
        <ele>68.441</ele>
        <time>2021-10-29T14:42:27Z</time>
      </trkpt>
      <trkpt lat="28.062448" lon="-14.381564">
        <ele>70.010</ele>
        <time>2021-10-29T14:42:57Z</time>
      </trkpt>
      <trkpt lat="28.062024" lon="-14.381991">
        <ele>71.282</ele>
        <time>2021-10-29T14:43:13Z</time>
      </trkpt>
      <trkpt lat="28.061864" lon="-14.383036">
        <ele>72.539</ele>
        <time>2021-10-29T14:43:40Z</time>
      </trkpt>
      <trkpt lat="28.061940" lon="-14.383329">
        <ele>72.401</ele>
        <time>2021-10-29T14:43:48Z</time>
      </trkpt>
      <trkpt lat="28.061754" lon="-14.383774">
        <ele>73.021</ele>
        <time>2021-10-29T14:44:00Z</time>
      </trkpt>
      <trkpt lat="28.062018" lon="-14.384377">
        <ele>72.708</ele>
        <time>2021-10-29T14:44:16Z</time>
      </trkpt>
      <trkpt lat="28.061808" lon="-14.384884">
        <ele>73.011</ele>
        <time>2021-10-29T14:44:30Z</time>
      </trkpt>
      <trkpt lat="28.061974" lon="-14.385235">
        <ele>73.681</ele>
        <time>2021-10-29T14:44:40Z</time>
      </trkpt>
      <trkpt lat="28.061751" lon="-14.385552">
        <ele>73.678</ele>
        <time>2021-10-29T14:44:50Z</time>
      </trkpt>
      <trkpt lat="28.061578" lon="-14.386427">
        <ele>72.323</ele>
        <time>2021-10-29T14:45:06Z</time>
      </trkpt>
      <trkpt lat="28.062011" lon="-14.387040">
        <ele>70.043</ele>
        <time>2021-10-29T14:45:22Z</time>
      </trkpt>
      <trkpt lat="28.061759" lon="-14.387982">
        <ele>67.649</ele>
        <time>2021-10-29T14:45:39Z</time>
      </trkpt>
      <trkpt lat="28.061834" lon="-14.388122">
        <ele>67.088</ele>
        <time>2021-10-29T14:45:42Z</time>
      </trkpt>
      <trkpt lat="28.062215" lon="-14.388176">
        <ele>66.450</ele>
        <time>2021-10-29T14:45:50Z</time>
      </trkpt>
      <trkpt lat="28.062286" lon="-14.388687">
        <ele>66.713</ele>
        <time>2021-10-29T14:46:05Z</time>
      </trkpt>
      <trkpt lat="28.062188" lon="-14.389121">
        <ele>67.443</ele>
        <time>2021-10-29T14:46:16Z</time>
      </trkpt>
      <trkpt lat="28.061863" lon="-14.389548">
        <ele>67.607</ele>
        <time>2021-10-29T14:46:29Z</time>
      </trkpt>
      <trkpt lat="28.061899" lon="-14.390058">
        <ele>67.308</ele>
        <time>2021-10-29T14:46:40Z</time>
      </trkpt>
      <trkpt lat="28.061638" lon="-14.389980">
        <ele>66.619</ele>
        <time>2021-10-29T14:46:47Z</time>
      </trkpt>
      <trkpt lat="28.061380" lon="-14.390107">
        <ele>66.289</ele>
        <time>2021-10-29T14:46:53Z</time>
      </trkpt>
      <trkpt lat="28.061382" lon="-14.390730">
        <ele>65.776</ele>
        <time>2021-10-29T14:47:06Z</time>
      </trkpt>
      <trkpt lat="28.061032" lon="-14.391075">
        <ele>65.091</ele>
        <time>2021-10-29T14:47:16Z</time>
      </trkpt>
      <trkpt lat="28.061274" lon="-14.391491">
        <ele>64.141</ele>
        <time>2021-10-29T14:47:27Z</time>
      </trkpt>
      <trkpt lat="28.060752" lon="-14.392218">
        <ele>62.537</ele>
        <time>2021-10-29T14:47:44Z</time>
      </trkpt>
      <trkpt lat="28.060623" lon="-14.392627">
        <ele>61.456</ele>
        <time>2021-10-29T14:47:51Z</time>
      </trkpt>
      <trkpt lat="28.060698" lon="-14.394666">
        <ele>54.918</ele>
        <time>2021-10-29T14:48:22Z</time>
      </trkpt>
      <trkpt lat="28.060959" lon="-14.394898">
        <ele>54.112</ele>
        <time>2021-10-29T14:48:28Z</time>
      </trkpt>
      <trkpt lat="28.061408" lon="-14.394867">
        <ele>53.232</ele>
        <time>2021-10-29T14:48:38Z</time>
      </trkpt>
      <trkpt lat="28.061553" lon="-14.395008">
        <ele>53.405</ele>
        <time>2021-10-29T14:48:42Z</time>
      </trkpt>
      <trkpt lat="28.061302" lon="-14.395595">
        <ele>56.008</ele>
        <time>2021-10-29T14:49:06Z</time>
      </trkpt>
      <trkpt lat="28.061531" lon="-14.396956">
        <ele>56.279</ele>
        <time>2021-10-29T14:49:46Z</time>
      </trkpt>
      <trkpt lat="28.061272" lon="-14.397364">
        <ele>56.539</ele>
        <time>2021-10-29T14:49:58Z</time>
      </trkpt>
      <trkpt lat="28.061335" lon="-14.398046">
        <ele>56.526</ele>
        <time>2021-10-29T14:50:14Z</time>
      </trkpt>
      <trkpt lat="28.061552" lon="-14.398235">
        <ele>56.171</ele>
        <time>2021-10-29T14:50:21Z</time>
      </trkpt>
      <trkpt lat="28.062761" lon="-14.398538">
        <ele>52.851</ele>
        <time>2021-10-29T14:50:45Z</time>
      </trkpt>
      <trkpt lat="28.062992" lon="-14.399489">
        <ele>54.747</ele>
        <time>2021-10-29T14:51:10Z</time>
      </trkpt>
      <trkpt lat="28.062833" lon="-14.399949">
        <ele>52.046</ele>
        <time>2021-10-29T14:52:19Z</time>
      </trkpt>
      <trkpt lat="28.062104" lon="-14.400542">
        <ele>45.998</ele>
        <time>2021-10-29T14:53:11Z</time>
      </trkpt>
      <trkpt lat="28.061773" lon="-14.401005">
        <ele>45.017</ele>
        <time>2021-10-29T14:53:22Z</time>
      </trkpt>
      <trkpt lat="28.061407" lon="-14.402137">
        <ele>45.587</ele>
        <time>2021-10-29T14:53:47Z</time>
      </trkpt>
      <trkpt lat="28.060924" lon="-14.402267">
        <ele>46.315</ele>
        <time>2021-10-29T14:54:00Z</time>
      </trkpt>
      <trkpt lat="28.060047" lon="-14.403045">
        <ele>41.108</ele>
        <time>2021-10-29T14:54:23Z</time>
      </trkpt>
      <trkpt lat="28.060199" lon="-14.403406">
        <ele>40.079</ele>
        <time>2021-10-29T14:54:31Z</time>
      </trkpt>
      <trkpt lat="28.060746" lon="-14.403273">
        <ele>38.859</ele>
        <time>2021-10-29T14:54:45Z</time>
      </trkpt>
      <trkpt lat="28.060813" lon="-14.403362">
        <ele>38.596</ele>
        <time>2021-10-29T14:54:48Z</time>
      </trkpt>
      <trkpt lat="28.060941" lon="-14.403812">
        <ele>37.621</ele>
        <time>2021-10-29T14:54:58Z</time>
      </trkpt>
      <trkpt lat="28.060808" lon="-14.404821">
        <ele>39.851</ele>
        <time>2021-10-29T14:55:18Z</time>
      </trkpt>
      <trkpt lat="28.061441" lon="-14.405562">
        <ele>45.257</ele>
        <time>2021-10-29T14:55:50Z</time>
      </trkpt>
      <trkpt lat="28.061319" lon="-14.405956">
        <ele>47.886</ele>
        <time>2021-10-29T14:56:04Z</time>
      </trkpt>
      <trkpt lat="28.063037" lon="-14.406849">
        <ele>61.288</ele>
        <time>2021-10-29T14:57:29Z</time>
      </trkpt>
      <trkpt lat="28.063533" lon="-14.407267">
        <ele>63.676</ele>
        <time>2021-10-29T14:57:53Z</time>
      </trkpt>
      <trkpt lat="28.064888" lon="-14.407491">
        <ele>63.790</ele>
        <time>2021-10-29T14:59:05Z</time>
      </trkpt>
      <trkpt lat="28.065316" lon="-14.407908">
        <ele>64.919</ele>
        <time>2021-10-29T14:59:19Z</time>
      </trkpt>
      <trkpt lat="28.065618" lon="-14.407952">
        <ele>66.008</ele>
        <time>2021-10-29T14:59:44Z</time>
      </trkpt>
      <trkpt lat="28.065509" lon="-14.408023">
        <ele>66.675</ele>
        <time>2021-10-29T15:00:04Z</time>
      </trkpt>
      <trkpt lat="28.066270" lon="-14.408306">
        <ele>69.465</ele>
        <time>2021-10-29T15:01:32Z</time>
      </trkpt>
      <trkpt lat="28.066575" lon="-14.408756">
        <ele>70.542</ele>
        <time>2021-10-29T15:01:44Z</time>
      </trkpt>
      <trkpt lat="28.066566" lon="-14.409001">
        <ele>71.237</ele>
        <time>2021-10-29T15:01:50Z</time>
      </trkpt>
      <trkpt lat="28.066104" lon="-14.409422">
        <ele>74.027</ele>
        <time>2021-10-29T15:02:07Z</time>
      </trkpt>
      <trkpt lat="28.066075" lon="-14.409638">
        <ele>74.733</ele>
        <time>2021-10-29T15:02:14Z</time>
      </trkpt>
      <trkpt lat="28.066544" lon="-14.410518">
        <ele>77.792</ele>
        <time>2021-10-29T15:02:45Z</time>
      </trkpt>
      <trkpt lat="28.067153" lon="-14.412357">
        <ele>84.144</ele>
        <time>2021-10-29T15:03:42Z</time>
      </trkpt>
      <trkpt lat="28.067333" lon="-14.414050">
        <ele>85.246</ele>
        <time>2021-10-29T15:04:27Z</time>
      </trkpt>
      <trkpt lat="28.067549" lon="-14.414477">
        <ele>85.588</ele>
        <time>2021-10-29T15:05:18Z</time>
      </trkpt>
      <trkpt lat="28.067569" lon="-14.414956">
        <ele>85.316</ele>
        <time>2021-10-29T15:05:28Z</time>
      </trkpt>
      <trkpt lat="28.068128" lon="-14.416639">
        <ele>79.508</ele>
        <time>2021-10-29T15:06:04Z</time>
      </trkpt>
      <trkpt lat="28.068470" lon="-14.416847">
        <ele>78.312</ele>
        <time>2021-10-29T15:06:13Z</time>
      </trkpt>
      <trkpt lat="28.068521" lon="-14.417331">
        <ele>77.022</ele>
        <time>2021-10-29T15:06:26Z</time>
      </trkpt>
      <trkpt lat="28.068376" lon="-14.417633">
        <ele>76.519</ele>
        <time>2021-10-29T15:06:32Z</time>
      </trkpt>
      <trkpt lat="28.068830" lon="-14.418748">
        <ele>76.064</ele>
        <time>2021-10-29T15:06:58Z</time>
      </trkpt>
      <trkpt lat="28.069137" lon="-14.419241">
        <ele>76.394</ele>
        <time>2021-10-29T15:07:11Z</time>
      </trkpt>
      <trkpt lat="28.070069" lon="-14.420031">
        <ele>74.920</ele>
        <time>2021-10-29T15:07:39Z</time>
      </trkpt>
      <trkpt lat="28.070148" lon="-14.420538">
        <ele>76.219</ele>
        <time>2021-10-29T15:07:49Z</time>
      </trkpt>
      <trkpt lat="28.070653" lon="-14.421438">
        <ele>77.681</ele>
        <time>2021-10-29T15:08:13Z</time>
      </trkpt>
      <trkpt lat="28.071570" lon="-14.421986">
        <ele>77.974</ele>
        <time>2021-10-29T15:08:39Z</time>
      </trkpt>
      <trkpt lat="28.072081" lon="-14.422549">
        <ele>79.156</ele>
        <time>2021-10-29T15:08:59Z</time>
      </trkpt>
      <trkpt lat="28.074188" lon="-14.423170">
        <ele>75.021</ele>
        <time>2021-10-29T15:09:59Z</time>
      </trkpt>
      <trkpt lat="28.074935" lon="-14.426684">
        <ele>72.608</ele>
        <time>2021-10-29T15:10:59Z</time>
      </trkpt>
      <trkpt lat="28.075215" lon="-14.427193">
        <ele>72.945</ele>
        <time>2021-10-29T15:11:10Z</time>
      </trkpt>
      <trkpt lat="28.075526" lon="-14.427346">
        <ele>72.885</ele>
        <time>2021-10-29T15:11:18Z</time>
      </trkpt>
      <trkpt lat="28.076180" lon="-14.428123">
        <ele>75.572</ele>
        <time>2021-10-29T15:11:39Z</time>
      </trkpt>
      <trkpt lat="28.076364" lon="-14.429657">
        <ele>74.517</ele>
        <time>2021-10-29T15:12:11Z</time>
      </trkpt>
      <trkpt lat="28.076569" lon="-14.429909">
        <ele>74.897</ele>
        <time>2021-10-29T15:12:18Z</time>
      </trkpt>
      <trkpt lat="28.077368" lon="-14.430273">
        <ele>76.733</ele>
        <time>2021-10-29T15:12:42Z</time>
      </trkpt>
      <trkpt lat="28.077453" lon="-14.431133">
        <ele>76.222</ele>
        <time>2021-10-29T15:13:02Z</time>
      </trkpt>
      <trkpt lat="28.078199" lon="-14.431772">
        <ele>77.144</ele>
        <time>2021-10-29T15:13:29Z</time>
      </trkpt>
      <trkpt lat="28.078317" lon="-14.432785">
        <ele>81.997</ele>
        <time>2021-10-29T15:13:52Z</time>
      </trkpt>
      <trkpt lat="28.078468" lon="-14.433009">
        <ele>84.123</ele>
        <time>2021-10-29T15:14:02Z</time>
      </trkpt>
      <trkpt lat="28.079865" lon="-14.433852">
        <ele>96.625</ele>
        <time>2021-10-29T15:15:13Z</time>
      </trkpt>
      <trkpt lat="28.080703" lon="-14.434194">
        <ele>103.108</ele>
        <time>2021-10-29T15:15:55Z</time>
      </trkpt>
      <trkpt lat="28.081449" lon="-14.434402">
        <ele>108.197</ele>
        <time>2021-10-29T15:16:32Z</time>
      </trkpt>
      <trkpt lat="28.082583" lon="-14.434464">
        <ele>113.347</ele>
        <time>2021-10-29T15:17:17Z</time>
      </trkpt>
      <trkpt lat="28.082613" lon="-14.434939">
        <ele>113.274</ele>
        <time>2021-10-29T15:17:29Z</time>
      </trkpt>
      <trkpt lat="28.083182" lon="-14.435678">
        <ele>113.319</ele>
        <time>2021-10-29T15:17:58Z</time>
      </trkpt>
      <trkpt lat="28.084170" lon="-14.435276">
        <ele>114.399</ele>
        <time>2021-10-29T15:19:27Z</time>
      </trkpt>
      <trkpt lat="28.084427" lon="-14.435496">
        <ele>117.885</ele>
        <time>2021-10-29T15:19:38Z</time>
      </trkpt>
      <trkpt lat="28.084994" lon="-14.434831">
        <ele>126.444</ele>
        <time>2021-10-29T15:20:21Z</time>
      </trkpt>
      <trkpt lat="28.086114" lon="-14.434258">
        <ele>139.986</ele>
        <time>2021-10-29T15:21:27Z</time>
      </trkpt>
      <trkpt lat="28.086290" lon="-14.434408">
        <ele>141.166</ele>
        <time>2021-10-29T15:21:38Z</time>
      </trkpt>
      <trkpt lat="28.086206" lon="-14.435306">
        <ele>144.229</ele>
        <time>2021-10-29T15:22:09Z</time>
      </trkpt>
      <trkpt lat="28.086425" lon="-14.435385">
        <ele>145.721</ele>
        <time>2021-10-29T15:22:19Z</time>
      </trkpt>
      <trkpt lat="28.086657" lon="-14.434842">
        <ele>149.408</ele>
        <time>2021-10-29T15:22:41Z</time>
      </trkpt>
      <trkpt lat="28.086918" lon="-14.434595">
        <ele>152.114</ele>
        <time>2021-10-29T15:22:55Z</time>
      </trkpt>
      <trkpt lat="28.087455" lon="-14.434860">
        <ele>156.414</ele>
        <time>2021-10-29T15:23:22Z</time>
      </trkpt>
      <trkpt lat="28.087564" lon="-14.434798">
        <ele>157.751</ele>
        <time>2021-10-29T15:23:28Z</time>
      </trkpt>
      <trkpt lat="28.087234" lon="-14.433997">
        <ele>165.046</ele>
        <time>2021-10-29T15:24:04Z</time>
      </trkpt>
      <trkpt lat="28.087359" lon="-14.433753">
        <ele>166.566</ele>
        <time>2021-10-29T15:24:16Z</time>
      </trkpt>
      <trkpt lat="28.087964" lon="-14.434315">
        <ele>172.922</ele>
        <time>2021-10-29T15:24:53Z</time>
      </trkpt>
      <trkpt lat="28.089075" lon="-14.434528">
        <ele>181.031</ele>
        <time>2021-10-29T15:25:42Z</time>
      </trkpt>
      <trkpt lat="28.089072" lon="-14.434391">
        <ele>182.323</ele>
        <time>2021-10-29T15:25:49Z</time>
      </trkpt>
      <trkpt lat="28.088287" lon="-14.433980">
        <ele>186.299</ele>
        <time>2021-10-29T15:26:19Z</time>
      </trkpt>
      <trkpt lat="28.088167" lon="-14.433692">
        <ele>187.107</ele>
        <time>2021-10-29T15:26:26Z</time>
      </trkpt>
      <trkpt lat="28.088295" lon="-14.433550">
        <ele>187.927</ele>
        <time>2021-10-29T15:26:31Z</time>
      </trkpt>
      <trkpt lat="28.088751" lon="-14.433898">
        <ele>191.508</ele>
        <time>2021-10-29T15:26:53Z</time>
      </trkpt>
      <trkpt lat="28.089752" lon="-14.434022">
        <ele>199.377</ele>
        <time>2021-10-29T15:27:39Z</time>
      </trkpt>
      <trkpt lat="28.091078" lon="-14.433882">
        <ele>209.987</ele>
        <time>2021-10-29T15:28:42Z</time>
      </trkpt>
      <trkpt lat="28.092068" lon="-14.433231">
        <ele>219.354</ele>
        <time>2021-10-29T15:29:39Z</time>
      </trkpt>
      <trkpt lat="28.092886" lon="-14.433151">
        <ele>226.789</ele>
        <time>2021-10-29T15:30:16Z</time>
      </trkpt>
      <trkpt lat="28.093359" lon="-14.433409">
        <ele>232.149</ele>
        <time>2021-10-29T15:30:44Z</time>
      </trkpt>
      <trkpt lat="28.093478" lon="-14.433348">
        <ele>234.475</ele>
        <time>2021-10-29T15:32:03Z</time>
      </trkpt>
      <trkpt lat="28.093557" lon="-14.433444">
        <ele>234.694</ele>
        <time>2021-10-29T15:32:16Z</time>
      </trkpt>
      <trkpt lat="28.093435" lon="-14.433514">
        <ele>229.016</ele>
        <time>2021-10-29T15:36:57Z</time>
      </trkpt>
      <trkpt lat="28.092788" lon="-14.433196">
        <ele>221.954</ele>
        <time>2021-10-29T15:38:07Z</time>
      </trkpt>
      <trkpt lat="28.092110" lon="-14.433248">
        <ele>216.656</ele>
        <time>2021-10-29T15:38:19Z</time>
      </trkpt>
      <trkpt lat="28.091062" lon="-14.433902">
        <ele>207.211</ele>
        <time>2021-10-29T15:38:41Z</time>
      </trkpt>
      <trkpt lat="28.090165" lon="-14.434063">
        <ele>200.308</ele>
        <time>2021-10-29T15:39:07Z</time>
      </trkpt>
      <trkpt lat="28.088977" lon="-14.433959">
        <ele>191.793</ele>
        <time>2021-10-29T15:40:16Z</time>
      </trkpt>
      <trkpt lat="28.088329" lon="-14.433634">
        <ele>187.513</ele>
        <time>2021-10-29T15:42:49Z</time>
      </trkpt>
      <trkpt lat="28.088170" lon="-14.433684">
        <ele>186.780</ele>
        <time>2021-10-29T15:42:55Z</time>
      </trkpt>
      <trkpt lat="28.088519" lon="-14.434060">
        <ele>185.915</ele>
        <time>2021-10-29T15:43:04Z</time>
      </trkpt>
      <trkpt lat="28.089138" lon="-14.434406">
        <ele>182.175</ele>
        <time>2021-10-29T15:43:23Z</time>
      </trkpt>
      <trkpt lat="28.089096" lon="-14.434588">
        <ele>180.641</ele>
        <time>2021-10-29T15:43:28Z</time>
      </trkpt>
      <trkpt lat="28.087947" lon="-14.434286">
        <ele>172.680</ele>
        <time>2021-10-29T15:43:44Z</time>
      </trkpt>
      <trkpt lat="28.087374" lon="-14.433706">
        <ele>166.452</ele>
        <time>2021-10-29T15:43:58Z</time>
      </trkpt>
      <trkpt lat="28.087236" lon="-14.433949">
        <ele>164.746</ele>
        <time>2021-10-29T15:44:05Z</time>
      </trkpt>
      <trkpt lat="28.087501" lon="-14.434470">
        <ele>160.388</ele>
        <time>2021-10-29T15:44:16Z</time>
      </trkpt>
      <trkpt lat="28.087472" lon="-14.434721">
        <ele>157.416</ele>
        <time>2021-10-29T15:44:20Z</time>
      </trkpt>
      <trkpt lat="28.087310" lon="-14.434780">
        <ele>155.708</ele>
        <time>2021-10-29T15:44:23Z</time>
      </trkpt>
      <trkpt lat="28.086861" lon="-14.434585">
        <ele>152.242</ele>
        <time>2021-10-29T15:44:32Z</time>
      </trkpt>
      <trkpt lat="28.086320" lon="-14.435410">
        <ele>145.572</ele>
        <time>2021-10-29T15:44:47Z</time>
      </trkpt>
      <trkpt lat="28.086103" lon="-14.435294">
        <ele>143.979</ele>
        <time>2021-10-29T15:44:52Z</time>
      </trkpt>
      <trkpt lat="28.086196" lon="-14.434352">
        <ele>140.794</ele>
        <time>2021-10-29T15:45:08Z</time>
      </trkpt>
      <trkpt lat="28.086009" lon="-14.434252">
        <ele>139.014</ele>
        <time>2021-10-29T15:45:13Z</time>
      </trkpt>
      <trkpt lat="28.085007" lon="-14.434802">
        <ele>126.460</ele>
        <time>2021-10-29T15:45:28Z</time>
      </trkpt>
      <trkpt lat="28.084423" lon="-14.435525">
        <ele>117.169</ele>
        <time>2021-10-29T15:45:41Z</time>
      </trkpt>
      <trkpt lat="28.084053" lon="-14.435343">
        <ele>113.821</ele>
        <time>2021-10-29T15:45:51Z</time>
      </trkpt>
      <trkpt lat="28.083167" lon="-14.435741">
        <ele>113.322</ele>
        <time>2021-10-29T15:46:15Z</time>
      </trkpt>
      <trkpt lat="28.082814" lon="-14.435029">
        <ele>112.962</ele>
        <time>2021-10-29T15:50:37Z</time>
      </trkpt>
      <trkpt lat="28.082568" lon="-14.434873">
        <ele>113.308</ele>
        <time>2021-10-29T15:50:44Z</time>
      </trkpt>
      <trkpt lat="28.082522" lon="-14.434448">
        <ele>113.308</ele>
        <time>2021-10-29T15:50:56Z</time>
      </trkpt>
      <trkpt lat="28.081494" lon="-14.434394">
        <ele>108.460</ele>
        <time>2021-10-29T15:51:17Z</time>
      </trkpt>
      <trkpt lat="28.080308" lon="-14.434031">
        <ele>100.120</ele>
        <time>2021-10-29T15:51:35Z</time>
      </trkpt>
      <trkpt lat="28.078415" lon="-14.432940">
        <ele>82.817</ele>
        <time>2021-10-29T15:53:48Z</time>
      </trkpt>
      <trkpt lat="28.078205" lon="-14.431849">
        <ele>76.782</ele>
        <time>2021-10-29T16:02:33Z</time>
      </trkpt>
      <trkpt lat="28.077504" lon="-14.431356">
        <ele>76.222</ele>
        <time>2021-10-29T16:02:50Z</time>
      </trkpt>
      <trkpt lat="28.077347" lon="-14.431083">
        <ele>76.578</ele>
        <time>2021-10-29T16:02:56Z</time>
      </trkpt>
      <trkpt lat="28.077310" lon="-14.430295">
        <ele>76.327</ele>
        <time>2021-10-29T16:03:12Z</time>
      </trkpt>
      <trkpt lat="28.076527" lon="-14.429919">
        <ele>74.729</ele>
        <time>2021-10-29T16:03:28Z</time>
      </trkpt>
      <trkpt lat="28.076330" lon="-14.429680">
        <ele>74.554</ele>
        <time>2021-10-29T16:03:33Z</time>
      </trkpt>
      <trkpt lat="28.076166" lon="-14.428140">
        <ele>74.856</ele>
        <time>2021-10-29T16:04:05Z</time>
      </trkpt>
      <trkpt lat="28.075127" lon="-14.427059">
        <ele>72.711</ele>
        <time>2021-10-29T16:04:28Z</time>
      </trkpt>
      <trkpt lat="28.074882" lon="-14.426627">
        <ele>72.708</ele>
        <time>2021-10-29T16:04:36Z</time>
      </trkpt>
      <trkpt lat="28.074090" lon="-14.423214">
        <ele>75.143</ele>
        <time>2021-10-29T16:05:56Z</time>
      </trkpt>
      <trkpt lat="28.071812" lon="-14.422331">
        <ele>78.533</ele>
        <time>2021-10-29T16:07:45Z</time>
      </trkpt>
      <trkpt lat="28.071469" lon="-14.421876">
        <ele>77.610</ele>
        <time>2021-10-29T16:07:55Z</time>
      </trkpt>
      <trkpt lat="28.070487" lon="-14.421152">
        <ele>77.615</ele>
        <time>2021-10-29T16:08:17Z</time>
      </trkpt>
      <trkpt lat="28.069978" lon="-14.420010">
        <ele>74.945</ele>
        <time>2021-10-29T16:08:36Z</time>
      </trkpt>
      <trkpt lat="28.069049" lon="-14.419229">
        <ele>76.271</ele>
        <time>2021-10-29T16:08:58Z</time>
      </trkpt>
      <trkpt lat="28.068730" lon="-14.418683">
        <ele>76.060</ele>
        <time>2021-10-29T16:09:09Z</time>
      </trkpt>
      <trkpt lat="28.068360" lon="-14.417654">
        <ele>76.332</ele>
        <time>2021-10-29T16:09:28Z</time>
      </trkpt>
      <trkpt lat="28.068478" lon="-14.417273">
        <ele>76.987</ele>
        <time>2021-10-29T16:09:35Z</time>
      </trkpt>
      <trkpt lat="28.068388" lon="-14.416737">
        <ele>78.242</ele>
        <time>2021-10-29T16:09:47Z</time>
      </trkpt>
      <trkpt lat="28.067930" lon="-14.416498">
        <ele>79.626</ele>
        <time>2021-10-29T16:10:03Z</time>
      </trkpt>
      <trkpt lat="28.068005" lon="-14.416380">
        <ele>80.408</ele>
        <time>2021-10-29T16:10:18Z</time>
      </trkpt>
      <trkpt lat="28.067543" lon="-14.415006">
        <ele>85.296</ele>
        <time>2021-10-29T16:11:01Z</time>
      </trkpt>
      <trkpt lat="28.067075" lon="-14.412423">
        <ele>84.436</ele>
        <time>2021-10-29T16:11:53Z</time>
      </trkpt>
      <trkpt lat="28.066474" lon="-14.410418">
        <ele>77.323</ele>
        <time>2021-10-29T16:12:20Z</time>
      </trkpt>
      <trkpt lat="28.066048" lon="-14.409591">
        <ele>74.538</ele>
        <time>2021-10-29T16:12:32Z</time>
      </trkpt>
      <trkpt lat="28.066093" lon="-14.409354">
        <ele>73.798</ele>
        <time>2021-10-29T16:12:36Z</time>
      </trkpt>
      <trkpt lat="28.066578" lon="-14.408869">
        <ele>70.774</ele>
        <time>2021-10-29T16:12:51Z</time>
      </trkpt>
      <trkpt lat="28.066351" lon="-14.408452">
        <ele>69.723</ele>
        <time>2021-10-29T16:13:00Z</time>
      </trkpt>
      <trkpt lat="28.065918" lon="-14.408123">
        <ele>68.325</ele>
        <time>2021-10-29T16:13:11Z</time>
      </trkpt>
      <trkpt lat="28.065216" lon="-14.407902">
        <ele>65.463</ele>
        <time>2021-10-29T16:13:23Z</time>
      </trkpt>
      <trkpt lat="28.064736" lon="-14.407479">
        <ele>63.744</ele>
        <time>2021-10-29T16:13:33Z</time>
      </trkpt>
      <trkpt lat="28.063554" lon="-14.407338">
        <ele>63.618</ele>
        <time>2021-10-29T16:13:57Z</time>
      </trkpt>
      <trkpt lat="28.061377" lon="-14.406094">
        <ele>48.408</ele>
        <time>2021-10-29T16:14:37Z</time>
      </trkpt>
      <trkpt lat="28.061226" lon="-14.405810">
        <ele>46.724</ele>
        <time>2021-10-29T16:14:43Z</time>
      </trkpt>
      <trkpt lat="28.061348" lon="-14.405473">
        <ele>44.474</ele>
        <time>2021-10-29T16:14:51Z</time>
      </trkpt>
      <trkpt lat="28.060831" lon="-14.404751">
        <ele>39.741</ele>
        <time>2021-10-29T16:15:06Z</time>
      </trkpt>
      <trkpt lat="28.060929" lon="-14.403717">
        <ele>37.516</ele>
        <time>2021-10-29T16:15:24Z</time>
      </trkpt>
      <trkpt lat="28.060722" lon="-14.403505">
        <ele>38.256</ele>
        <time>2021-10-29T16:15:37Z</time>
      </trkpt>
      <trkpt lat="28.060730" lon="-14.403299">
        <ele>38.632</ele>
        <time>2021-10-29T16:16:36Z</time>
      </trkpt>
      <trkpt lat="28.060283" lon="-14.403483">
        <ele>39.771</ele>
        <time>2021-10-29T16:16:50Z</time>
      </trkpt>
      <trkpt lat="28.060008" lon="-14.403200">
        <ele>40.713</ele>
        <time>2021-10-29T16:16:59Z</time>
      </trkpt>
      <trkpt lat="28.060193" lon="-14.402790">
        <ele>42.344</ele>
        <time>2021-10-29T16:17:10Z</time>
      </trkpt>
      <trkpt lat="28.061015" lon="-14.402205">
        <ele>46.305</ele>
        <time>2021-10-29T16:17:45Z</time>
      </trkpt>
      <trkpt lat="28.061354" lon="-14.402125">
        <ele>45.615</ele>
        <time>2021-10-29T16:17:56Z</time>
      </trkpt>
      <trkpt lat="28.061746" lon="-14.401054">
        <ele>45.008</ele>
        <time>2021-10-29T16:18:19Z</time>
      </trkpt>
      <trkpt lat="28.062199" lon="-14.400507">
        <ele>46.022</ele>
        <time>2021-10-29T16:18:34Z</time>
      </trkpt>
      <trkpt lat="28.062993" lon="-14.399955">
        <ele>51.722</ele>
        <time>2021-10-29T16:19:03Z</time>
      </trkpt>
      <trkpt lat="28.063187" lon="-14.399628">
        <ele>53.889</ele>
        <time>2021-10-29T16:19:18Z</time>
      </trkpt>
      <trkpt lat="28.062889" lon="-14.399732">
        <ele>54.774</ele>
        <time>2021-10-29T16:19:56Z</time>
      </trkpt>
      <trkpt lat="28.062724" lon="-14.398570">
        <ele>53.054</ele>
        <time>2021-10-29T16:20:42Z</time>
      </trkpt>
      <trkpt lat="28.061534" lon="-14.398339">
        <ele>56.040</ele>
        <time>2021-10-29T16:21:11Z</time>
      </trkpt>
      <trkpt lat="28.061311" lon="-14.398128">
        <ele>56.419</ele>
        <time>2021-10-29T16:21:20Z</time>
      </trkpt>
      <trkpt lat="28.061290" lon="-14.397469">
        <ele>56.681</ele>
        <time>2021-10-29T16:21:40Z</time>
      </trkpt>
      <trkpt lat="28.061604" lon="-14.396974">
        <ele>56.298</ele>
        <time>2021-10-29T16:21:52Z</time>
      </trkpt>
      <trkpt lat="28.061319" lon="-14.396201">
        <ele>57.115</ele>
        <time>2021-10-29T16:22:11Z</time>
      </trkpt>
      <trkpt lat="28.061321" lon="-14.395523">
        <ele>55.726</ele>
        <time>2021-10-29T16:22:24Z</time>
      </trkpt>
      <trkpt lat="28.061534" lon="-14.395022">
        <ele>53.508</ele>
        <time>2021-10-29T16:22:32Z</time>
      </trkpt>
      <trkpt lat="28.061423" lon="-14.394853">
        <ele>53.267</ele>
        <time>2021-10-29T16:22:36Z</time>
      </trkpt>
      <trkpt lat="28.060829" lon="-14.394884">
        <ele>54.367</ele>
        <time>2021-10-29T16:22:51Z</time>
      </trkpt>
      <trkpt lat="28.060652" lon="-14.394683">
        <ele>54.994</ele>
        <time>2021-10-29T16:22:57Z</time>
      </trkpt>
      <trkpt lat="28.060579" lon="-14.393019">
        <ele>59.839</ele>
        <time>2021-10-29T16:23:40Z</time>
      </trkpt>
      <trkpt lat="28.060696" lon="-14.392249">
        <ele>62.169</ele>
        <time>2021-10-29T16:24:02Z</time>
      </trkpt>
      <trkpt lat="28.061263" lon="-14.391492">
        <ele>64.155</ele>
        <time>2021-10-29T16:27:56Z</time>
      </trkpt>
      <trkpt lat="28.061039" lon="-14.391128">
        <ele>64.964</ele>
        <time>2021-10-29T16:28:08Z</time>
      </trkpt>
      <trkpt lat="28.061373" lon="-14.390753">
        <ele>65.716</ele>
        <time>2021-10-29T16:28:21Z</time>
      </trkpt>
      <trkpt lat="28.061337" lon="-14.390203">
        <ele>66.172</ele>
        <time>2021-10-29T16:28:36Z</time>
      </trkpt>
      <trkpt lat="28.061487" lon="-14.390023">
        <ele>66.313</ele>
        <time>2021-10-29T16:28:41Z</time>
      </trkpt>
      <trkpt lat="28.061965" lon="-14.389995">
        <ele>67.414</ele>
        <time>2021-10-29T16:28:54Z</time>
      </trkpt>
      <trkpt lat="28.061859" lon="-14.389594">
        <ele>67.608</ele>
        <time>2021-10-29T16:29:04Z</time>
      </trkpt>
      <trkpt lat="28.062209" lon="-14.389045">
        <ele>67.445</ele>
        <time>2021-10-29T16:29:19Z</time>
      </trkpt>
      <trkpt lat="28.062154" lon="-14.388268">
        <ele>66.365</ele>
        <time>2021-10-29T16:29:36Z</time>
      </trkpt>
      <trkpt lat="28.061829" lon="-14.388150">
        <ele>66.732</ele>
        <time>2021-10-29T16:29:45Z</time>
      </trkpt>
      <trkpt lat="28.061756" lon="-14.387951">
        <ele>67.177</ele>
        <time>2021-10-29T16:29:50Z</time>
      </trkpt>
      <trkpt lat="28.062010" lon="-14.387059">
        <ele>69.857</ele>
        <time>2021-10-29T16:30:15Z</time>
      </trkpt>
      <trkpt lat="28.061655" lon="-14.386435">
        <ele>71.693</ele>
        <time>2021-10-29T16:30:36Z</time>
      </trkpt>
      <trkpt lat="28.061757" lon="-14.385608">
        <ele>73.542</ele>
        <time>2021-10-29T16:30:57Z</time>
      </trkpt>
      <trkpt lat="28.061987" lon="-14.385242">
        <ele>73.764</ele>
        <time>2021-10-29T16:31:09Z</time>
      </trkpt>
      <trkpt lat="28.061800" lon="-14.384748">
        <ele>73.121</ele>
        <time>2021-10-29T16:31:22Z</time>
      </trkpt>
      <trkpt lat="28.062037" lon="-14.384310">
        <ele>72.641</ele>
        <time>2021-10-29T16:31:33Z</time>
      </trkpt>
      <trkpt lat="28.061736" lon="-14.384051">
        <ele>73.105</ele>
        <time>2021-10-29T16:31:44Z</time>
      </trkpt>
      <trkpt lat="28.061939" lon="-14.383249">
        <ele>72.408</ele>
        <time>2021-10-29T16:31:59Z</time>
      </trkpt>
      <trkpt lat="28.061816" lon="-14.382910">
        <ele>72.660</ele>
        <time>2021-10-29T16:32:07Z</time>
      </trkpt>
      <trkpt lat="28.061928" lon="-14.382198">
        <ele>71.720</ele>
        <time>2021-10-29T16:32:23Z</time>
      </trkpt>
      <trkpt lat="28.061826" lon="-14.382016">
        <ele>71.177</ele>
        <time>2021-10-29T16:32:35Z</time>
      </trkpt>
      <trkpt lat="28.061720" lon="-14.382162">
        <ele>70.732</ele>
        <time>2021-10-29T16:32:46Z</time>
      </trkpt>
      <trkpt lat="28.061899" lon="-14.382118">
        <ele>70.322</ele>
        <time>2021-10-29T16:34:06Z</time>
      </trkpt>
      <trkpt lat="28.062087" lon="-14.381713">
        <ele>69.918</ele>
        <time>2021-10-29T16:34:48Z</time>
      </trkpt>
      <trkpt lat="28.062417" lon="-14.381486">
        <ele>68.967</ele>
        <time>2021-10-29T16:34:57Z</time>
      </trkpt>
      <trkpt lat="28.062098" lon="-14.380398">
        <ele>66.599</ele>
        <time>2021-10-29T16:35:19Z</time>
      </trkpt>
      <trkpt lat="28.062270" lon="-14.379253">
        <ele>62.176</ele>
        <time>2021-10-29T16:35:35Z</time>
      </trkpt>
      <trkpt lat="28.062441" lon="-14.378930">
        <ele>61.290</ele>
        <time>2021-10-29T16:35:40Z</time>
      </trkpt>
      <trkpt lat="28.063148" lon="-14.378443">
        <ele>59.819</ele>
        <time>2021-10-29T16:35:55Z</time>
      </trkpt>
      <trkpt lat="28.063364" lon="-14.377697">
        <ele>58.708</ele>
        <time>2021-10-29T16:36:08Z</time>
      </trkpt>
      <trkpt lat="28.063425" lon="-14.376681">
        <ele>58.665</ele>
        <time>2021-10-29T16:36:25Z</time>
      </trkpt>
      <trkpt lat="28.062938" lon="-14.375710">
        <ele>59.015</ele>
        <time>2021-10-29T16:36:47Z</time>
      </trkpt>
      <trkpt lat="28.062238" lon="-14.374957">
        <ele>59.542</ele>
        <time>2021-10-29T16:37:07Z</time>
      </trkpt>
      <trkpt lat="28.061858" lon="-14.374723">
        <ele>58.927</ele>
        <time>2021-10-29T16:37:15Z</time>
      </trkpt>
      <trkpt lat="28.061089" lon="-14.374593">
        <ele>55.017</ele>
        <time>2021-10-29T16:37:26Z</time>
      </trkpt>
      <trkpt lat="28.060194" lon="-14.374134">
        <ele>54.523</ele>
        <time>2021-10-29T16:37:40Z</time>
      </trkpt>
      <trkpt lat="28.056396" lon="-14.371157">
        <ele>43.842</ele>
        <time>2021-10-29T16:38:46Z</time>
      </trkpt>
      <trkpt lat="28.056343" lon="-14.369929">
        <ele>40.134</ele>
        <time>2021-10-29T16:39:03Z</time>
      </trkpt>
      <trkpt lat="28.056701" lon="-14.369409">
        <ele>40.117</ele>
        <time>2021-10-29T16:39:16Z</time>
      </trkpt>
      <trkpt lat="28.055787" lon="-14.369409">
        <ele>43.487</ele>
        <time>2021-10-29T16:39:42Z</time>
      </trkpt>
      <trkpt lat="28.055538" lon="-14.368658">
        <ele>46.715</ele>
        <time>2021-10-29T16:40:13Z</time>
      </trkpt>
      <trkpt lat="28.055585" lon="-14.368746">
        <ele>47.408</ele>
        <time>2021-10-29T16:40:31Z</time>
      </trkpt>
      <trkpt lat="28.055628" lon="-14.368446">
        <ele>48.989</ele>
        <time>2021-10-29T16:40:40Z</time>
      </trkpt>
      <trkpt lat="28.055816" lon="-14.368296">
        <ele>50.279</ele>
        <time>2021-10-29T16:40:46Z</time>
      </trkpt>
      <trkpt lat="28.056626" lon="-14.368734">
        <ele>55.346</ele>
        <time>2021-10-29T16:41:16Z</time>
      </trkpt>
      <trkpt lat="28.056870" lon="-14.368541">
        <ele>58.121</ele>
        <time>2021-10-29T16:41:30Z</time>
      </trkpt>
      <trkpt lat="28.056604" lon="-14.367194">
        <ele>62.461</ele>
        <time>2021-10-29T16:42:18Z</time>
      </trkpt>
      <trkpt lat="28.056442" lon="-14.367266">
        <ele>62.517</ele>
        <time>2021-10-29T16:42:42Z</time>
      </trkpt>
      <trkpt lat="28.056576" lon="-14.367084">
        <ele>62.636</ele>
        <time>2021-10-29T16:43:49Z</time>
      </trkpt>
      <trkpt lat="28.056476" lon="-14.366745">
        <ele>62.778</ele>
        <time>2021-10-29T16:46:14Z</time>
      </trkpt>
      <trkpt lat="28.056239" lon="-14.366418">
        <ele>62.947</ele>
        <time>2021-10-29T16:46:23Z</time>
      </trkpt>
      <trkpt lat="28.056209" lon="-14.366572">
        <ele>62.929</ele>
        <time>2021-10-29T16:46:27Z</time>
      </trkpt>
      <trkpt lat="28.056405" lon="-14.366629">
        <ele>63.021</ele>
        <time>2021-10-29T16:46:59Z</time>
      </trkpt>
      <trkpt lat="28.055319" lon="-14.365056">
        <ele>59.808</ele>
        <time>2021-10-29T16:47:33Z</time>
      </trkpt>
      <trkpt lat="28.055163" lon="-14.364560">
        <ele>58.422</ele>
        <time>2021-10-29T16:47:39Z</time>
      </trkpt>
      <trkpt lat="28.055260" lon="-14.364226">
        <ele>57.472</ele>
        <time>2021-10-29T16:47:43Z</time>
      </trkpt>
      <trkpt lat="28.055479" lon="-14.364078">
        <ele>56.779</ele>
        <time>2021-10-29T16:47:46Z</time>
      </trkpt>
      <trkpt lat="28.056204" lon="-14.364177">
        <ele>56.214</ele>
        <time>2021-10-29T16:47:58Z</time>
      </trkpt>
      <trkpt lat="28.056548" lon="-14.364027">
        <ele>56.614</ele>
        <time>2021-10-29T16:48:07Z</time>
      </trkpt>
      <trkpt lat="28.055530" lon="-14.363154">
        <ele>57.620</ele>
        <time>2021-10-29T16:48:33Z</time>
      </trkpt>
      <trkpt lat="28.054614" lon="-14.363209">
        <ele>53.649</ele>
        <time>2021-10-29T16:48:47Z</time>
      </trkpt>
      <trkpt lat="28.054013" lon="-14.363084">
        <ele>51.171</ele>
        <time>2021-10-29T16:48:56Z</time>
      </trkpt>
      <trkpt lat="28.054150" lon="-14.362524">
        <ele>47.727</ele>
        <time>2021-10-29T16:49:05Z</time>
      </trkpt>
      <trkpt lat="28.053697" lon="-14.362123">
        <ele>43.568</ele>
        <time>2021-10-29T16:49:14Z</time>
      </trkpt>
      <trkpt lat="28.053919" lon="-14.361486">
        <ele>42.514</ele>
        <time>2021-10-29T16:49:24Z</time>
      </trkpt>
      <trkpt lat="28.053514" lon="-14.361283">
        <ele>41.708</ele>
        <time>2021-10-29T16:49:32Z</time>
      </trkpt>
      <trkpt lat="28.053378" lon="-14.360842">
        <ele>40.750</ele>
        <time>2021-10-29T16:49:39Z</time>
      </trkpt>
      <trkpt lat="28.053408" lon="-14.360654">
        <ele>40.650</ele>
        <time>2021-10-29T16:49:42Z</time>
      </trkpt>
      <trkpt lat="28.053940" lon="-14.360233">
        <ele>41.067</ele>
        <time>2021-10-29T16:49:55Z</time>
      </trkpt>
      <trkpt lat="28.053945" lon="-14.359765">
        <ele>41.242</ele>
        <time>2021-10-29T16:50:04Z</time>
      </trkpt>
      <trkpt lat="28.052843" lon="-14.358872">
        <ele>39.312</ele>
        <time>2021-10-29T16:50:29Z</time>
      </trkpt>
      <trkpt lat="28.052245" lon="-14.357025">
        <ele>34.368</ele>
        <time>2021-10-29T16:50:54Z</time>
      </trkpt>
      <trkpt lat="28.051936" lon="-14.356697">
        <ele>33.487</ele>
        <time>2021-10-29T16:51:03Z</time>
      </trkpt>
      <trkpt lat="28.051760" lon="-14.356779">
        <ele>33.239</ele>
        <time>2021-10-29T16:55:53Z</time>
      </trkpt>
      <trkpt lat="28.051073" lon="-14.356080">
        <ele>39.265</ele>
        <time>2021-10-29T16:56:31Z</time>
      </trkpt>
      <trkpt lat="28.050708" lon="-14.355260">
        <ele>45.268</ele>
        <time>2021-10-29T16:57:06Z</time>
      </trkpt>
      <trkpt lat="28.051278" lon="-14.354683">
        <ele>51.014</ele>
        <time>2021-10-29T16:57:40Z</time>
      </trkpt>
      <trkpt lat="28.053462" lon="-14.354861">
        <ele>67.908</ele>
        <time>2021-10-29T16:58:57Z</time>
      </trkpt>
      <trkpt lat="28.054075" lon="-14.354805">
        <ele>69.454</ele>
        <time>2021-10-29T16:59:21Z</time>
      </trkpt>
      <trkpt lat="28.054212" lon="-14.354607">
        <ele>69.144</ele>
        <time>2021-10-29T17:02:44Z</time>
      </trkpt>
      <trkpt lat="28.054358" lon="-14.354694">
        <ele>68.281</ele>
        <time>2021-10-29T17:03:07Z</time>
      </trkpt>
      <trkpt lat="28.055690" lon="-14.354464">
        <ele>60.536</ele>
        <time>2021-10-29T17:03:29Z</time>
      </trkpt>
      <trkpt lat="28.057075" lon="-14.354436">
        <ele>57.866</ele>
        <time>2021-10-29T17:03:47Z</time>
      </trkpt>
      <trkpt lat="28.057629" lon="-14.353877">
        <ele>57.692</ele>
        <time>2021-10-29T17:04:04Z</time>
      </trkpt>
      <trkpt lat="28.057562" lon="-14.353282">
        <ele>57.351</ele>
        <time>2021-10-29T17:04:15Z</time>
      </trkpt>
      <trkpt lat="28.056365" lon="-14.352256">
        <ele>55.573</ele>
        <time>2021-10-29T17:04:40Z</time>
      </trkpt>
      <trkpt lat="28.053789" lon="-14.351398">
        <ele>47.868</ele>
        <time>2021-10-29T17:05:34Z</time>
      </trkpt>
      <trkpt lat="28.052713" lon="-14.350872">
        <ele>45.242</ele>
        <time>2021-10-29T17:05:56Z</time>
      </trkpt>
      <trkpt lat="28.052055" lon="-14.350213">
        <ele>45.926</ele>
        <time>2021-10-29T17:06:10Z</time>
      </trkpt>
      <trkpt lat="28.050983" lon="-14.348767">
        <ele>49.108</ele>
        <time>2021-10-29T17:06:43Z</time>
      </trkpt>
      <trkpt lat="28.050512" lon="-14.348533">
        <ele>49.694</ele>
        <time>2021-10-29T17:06:53Z</time>
      </trkpt>
      <trkpt lat="28.050288" lon="-14.347022">
        <ele>45.074</ele>
        <time>2021-10-29T17:07:13Z</time>
      </trkpt>
      <trkpt lat="28.050876" lon="-14.345909">
        <ele>36.341</ele>
        <time>2021-10-29T17:07:24Z</time>
      </trkpt>
      <trkpt lat="28.050886" lon="-14.345565">
        <ele>33.566</ele>
        <time>2021-10-29T17:07:28Z</time>
      </trkpt>
      <trkpt lat="28.050580" lon="-14.345323">
        <ele>29.616</ele>
        <time>2021-10-29T17:07:33Z</time>
      </trkpt>
      <trkpt lat="28.049384" lon="-14.345042">
        <ele>20.452</ele>
        <time>2021-10-29T17:07:45Z</time>
      </trkpt>
      <trkpt lat="28.048903" lon="-14.344289">
        <ele>14.071</ele>
        <time>2021-10-29T17:07:54Z</time>
      </trkpt>
      <trkpt lat="28.048630" lon="-14.338176">
        <ele>11.243</ele>
        <time>2021-10-29T17:10:17Z</time>
      </trkpt>
      <trkpt lat="28.048457" lon="-14.337693">
        <ele>11.414</ele>
        <time>2021-10-29T17:10:27Z</time>
      </trkpt>
      <trkpt lat="28.048619" lon="-14.337256">
        <ele>11.254</ele>
        <time>2021-10-29T17:10:36Z</time>
      </trkpt>
      <trkpt lat="28.048414" lon="-14.337119">
        <ele>11.009</ele>
        <time>2021-10-29T17:10:47Z</time>
      </trkpt>
      <trkpt lat="28.048338" lon="-14.335840">
        <ele>9.908</ele>
        <time>2021-10-29T17:11:42Z</time>
      </trkpt>
      <trkpt lat="28.048798" lon="-14.333214">
        <ele>9.179</ele>
        <time>2021-10-29T17:12:32Z</time>
      </trkpt>
      <trkpt lat="28.047349" lon="-14.332969">
        <ele>7.779</ele>
        <time>2021-10-29T17:13:15Z</time>
      </trkpt>
      <trkpt lat="28.047355" lon="-14.333151">
        <ele>7.796</ele>
        <time>2021-10-29T17:13:22Z</time>
      </trkpt>
      <trkpt lat="28.046889" lon="-14.332917">
        <ele>7.511</ele>
        <time>2021-10-29T17:13:34Z</time>
      </trkpt>
      <trkpt lat="28.046084" lon="-14.332771">
        <ele>7.481</ele>
        <time>2021-10-29T17:14:02Z</time>
      </trkpt>
      <trkpt lat="28.048859" lon="-14.333156">
        <ele>9.117</ele>
        <time>2021-10-29T17:17:03Z</time>
      </trkpt>
      <trkpt lat="28.049545" lon="-14.329983">
        <ele>12.476</ele>
        <time>2021-10-29T17:18:53Z</time>
      </trkpt>
      <trkpt lat="28.049653" lon="-14.329945">
        <ele>12.648</ele>
        <time>2021-10-29T17:18:59Z</time>
      </trkpt>
      <trkpt lat="28.049710" lon="-14.329022">
        <ele>13.266</ele>
        <time>2021-10-29T17:19:14Z</time>
      </trkpt>
      <trkpt lat="28.050528" lon="-14.327690">
        <ele>14.229</ele>
        <time>2021-10-29T17:19:52Z</time>
      </trkpt>
      <trkpt lat="28.050478" lon="-14.327874">
        <ele>14.021</ele>
        <time>2021-10-29T17:20:05Z</time>
      </trkpt>
      <trkpt lat="28.050738" lon="-14.327102">
        <ele>13.108</ele>
        <time>2021-10-29T17:21:02Z</time>
      </trkpt>
      <trkpt lat="28.052628" lon="-14.323488">
        <ele>8.594</ele>
        <time>2021-10-29T17:22:05Z</time>
      </trkpt>
      <trkpt lat="28.054267" lon="-14.322114">
        <ele>9.614</ele>
        <time>2021-10-29T17:22:44Z</time>
      </trkpt>
      <trkpt lat="28.054517" lon="-14.320629">
        <ele>8.941</ele>
        <time>2021-10-29T17:23:12Z</time>
      </trkpt>
      <trkpt lat="28.055595" lon="-14.319339">
        <ele>8.226</ele>
        <time>2021-10-29T17:23:45Z</time>
      </trkpt>
      <trkpt lat="28.055706" lon="-14.318945">
        <ele>8.226</ele>
        <time>2021-10-29T17:23:51Z</time>
      </trkpt>
      <trkpt lat="28.055646" lon="-14.318294">
        <ele>8.352</ele>
        <time>2021-10-29T17:24:03Z</time>
      </trkpt>
      <trkpt lat="28.056264" lon="-14.316923">
        <ele>8.691</ele>
        <time>2021-10-29T17:26:16Z</time>
      </trkpt>
      <trkpt lat="28.057634" lon="-14.317043">
        <ele>14.023</ele>
        <time>2021-10-29T17:27:06Z</time>
      </trkpt>
      <trkpt lat="28.058080" lon="-14.318159">
        <ele>19.781</ele>
        <time>2021-10-29T17:27:44Z</time>
      </trkpt>
      <trkpt lat="28.058591" lon="-14.318934">
        <ele>23.561</ele>
        <time>2021-10-29T17:28:13Z</time>
      </trkpt>
      <trkpt lat="28.060401" lon="-14.319466">
        <ele>35.017</ele>
        <time>2021-10-29T17:29:53Z</time>
      </trkpt>
      <trkpt lat="28.060059" lon="-14.318815">
        <ele>40.408</ele>
        <time>2021-10-29T17:30:22Z</time>
      </trkpt>
      <trkpt lat="28.060314" lon="-14.317829">
        <ele>45.076</ele>
        <time>2021-10-29T17:30:56Z</time>
      </trkpt>
      <trkpt lat="28.061072" lon="-14.317482">
        <ele>47.026</ele>
        <time>2021-10-29T17:31:26Z</time>
      </trkpt>
      <trkpt lat="28.061339" lon="-14.317183">
        <ele>47.293</ele>
        <time>2021-10-29T17:32:43Z</time>
      </trkpt>
      <trkpt lat="28.061991" lon="-14.316942">
        <ele>48.158</ele>
        <time>2021-10-29T17:33:03Z</time>
      </trkpt>
      <trkpt lat="28.063150" lon="-14.314814">
        <ele>50.668</ele>
        <time>2021-10-29T17:33:51Z</time>
      </trkpt>
      <trkpt lat="28.067057" lon="-14.310831">
        <ele>52.994</ele>
        <time>2021-10-29T17:35:31Z</time>
      </trkpt>
      <trkpt lat="28.067859" lon="-14.310518">
        <ele>50.393</ele>
        <time>2021-10-29T17:35:45Z</time>
      </trkpt>
      <trkpt lat="28.068868" lon="-14.310494">
        <ele>47.275</ele>
        <time>2021-10-29T17:36:01Z</time>
      </trkpt>
      <trkpt lat="28.069735" lon="-14.310831">
        <ele>46.033</ele>
        <time>2021-10-29T17:36:17Z</time>
      </trkpt>
      <trkpt lat="28.072125" lon="-14.312295">
        <ele>51.623</ele>
        <time>2021-10-29T17:37:19Z</time>
      </trkpt>
      <trkpt lat="28.073266" lon="-14.312563">
        <ele>58.315</ele>
        <time>2021-10-29T17:37:53Z</time>
      </trkpt>
      <trkpt lat="28.074434" lon="-14.312438">
        <ele>66.008</ele>
        <time>2021-10-29T17:38:28Z</time>
      </trkpt>
      <trkpt lat="28.075533" lon="-14.311990">
        <ele>73.621</ele>
        <time>2021-10-29T17:39:04Z</time>
      </trkpt>
      <trkpt lat="28.076635" lon="-14.310813">
        <ele>83.341</ele>
        <time>2021-10-29T17:39:57Z</time>
      </trkpt>
      <trkpt lat="28.077477" lon="-14.308866">
        <ele>92.318</ele>
        <time>2021-10-29T17:41:04Z</time>
      </trkpt>
      <trkpt lat="28.077739" lon="-14.307915">
        <ele>89.173</ele>
        <time>2021-10-29T17:41:57Z</time>
      </trkpt>
      <trkpt lat="28.077683" lon="-14.307689">
        <ele>87.783</ele>
        <time>2021-10-29T17:42:02Z</time>
      </trkpt>
      <trkpt lat="28.077469" lon="-14.307711">
        <ele>86.679</ele>
        <time>2021-10-29T17:42:06Z</time>
      </trkpt>
      <trkpt lat="28.076945" lon="-14.308433">
        <ele>86.518</ele>
        <time>2021-10-29T17:42:22Z</time>
      </trkpt>
      <trkpt lat="28.075953" lon="-14.308725">
        <ele>83.570</ele>
        <time>2021-10-29T17:42:44Z</time>
      </trkpt>
      <trkpt lat="28.074305" lon="-14.307560">
        <ele>67.129</ele>
        <time>2021-10-29T17:43:11Z</time>
      </trkpt>
      <trkpt lat="28.073791" lon="-14.307784">
        <ele>63.500</ele>
        <time>2021-10-29T17:43:24Z</time>
      </trkpt>
      <trkpt lat="28.073383" lon="-14.307702">
        <ele>60.320</ele>
        <time>2021-10-29T17:43:33Z</time>
      </trkpt>
      <trkpt lat="28.073323" lon="-14.307276">
        <ele>54.508</ele>
        <time>2021-10-29T17:43:52Z</time>
      </trkpt>
      <trkpt lat="28.073478" lon="-14.307162">
        <ele>56.170</ele>
        <time>2021-10-29T17:44:45Z</time>
      </trkpt>
      <trkpt lat="28.073621" lon="-14.307316">
        <ele>59.410</ele>
        <time>2021-10-29T17:47:49Z</time>
      </trkpt>
      <trkpt lat="28.073803" lon="-14.307064">
        <ele>61.317</ele>
        <time>2021-10-29T17:48:34Z</time>
      </trkpt>
      <trkpt lat="28.073632" lon="-14.307441">
        <ele>60.972</ele>
        <time>2021-10-29T17:50:53Z</time>
      </trkpt>
      <trkpt lat="28.073820" lon="-14.307149">
        <ele>63.092</ele>
        <time>2021-10-29T17:52:23Z</time>
      </trkpt>
      <trkpt lat="28.073542" lon="-14.307168">
        <ele>59.438</ele>
        <time>2021-10-29T17:53:05Z</time>
      </trkpt>
      <trkpt lat="28.073554" lon="-14.307405">
        <ele>60.937</ele>
        <time>2021-10-29T17:53:30Z</time>
      </trkpt>
      <trkpt lat="28.073454" lon="-14.307165">
        <ele>58.899</ele>
        <time>2021-10-29T17:54:43Z</time>
      </trkpt>
      <trkpt lat="28.073138" lon="-14.307500">
        <ele>56.783</ele>
        <time>2021-10-29T17:57:57Z</time>
      </trkpt>
      <trkpt lat="28.073066" lon="-14.306540">
        <ele>50.825</ele>
        <time>2021-10-29T17:58:16Z</time>
      </trkpt>
      <trkpt lat="28.072247" lon="-14.306477">
        <ele>43.917</ele>
        <time>2021-10-29T17:58:27Z</time>
      </trkpt>
      <trkpt lat="28.071662" lon="-14.306897">
        <ele>40.508</ele>
        <time>2021-10-29T17:58:36Z</time>
      </trkpt>
      <trkpt lat="28.071474" lon="-14.307410">
        <ele>40.566</ele>
        <time>2021-10-29T17:58:45Z</time>
      </trkpt>
      <trkpt lat="28.071504" lon="-14.308147">
        <ele>41.926</ele>
        <time>2021-10-29T17:59:27Z</time>
      </trkpt>
      <trkpt lat="28.071949" lon="-14.309929">
        <ele>44.583</ele>
        <time>2021-10-29T18:00:19Z</time>
      </trkpt>
      <trkpt lat="28.071910" lon="-14.309829">
        <ele>44.218</ele>
        <time>2021-10-29T18:00:48Z</time>
      </trkpt>
      <trkpt lat="28.071065" lon="-14.309897">
        <ele>35.548</ele>
        <time>2021-10-29T18:01:30Z</time>
      </trkpt>
      <trkpt lat="28.069116" lon="-14.307981">
        <ele>18.084</ele>
        <time>2021-10-29T18:02:24Z</time>
      </trkpt>
      <trkpt lat="28.068918" lon="-14.306292">
        <ele>13.563</ele>
        <time>2021-10-29T18:02:58Z</time>
      </trkpt>
      <trkpt lat="28.069178" lon="-14.305712">
        <ele>11.535</ele>
        <time>2021-10-29T18:05:24Z</time>
      </trkpt>
      <trkpt lat="28.068971" lon="-14.305755">
        <ele>11.473</ele>
        <time>2021-10-29T18:05:46Z</time>
      </trkpt>
      <trkpt lat="28.068846" lon="-14.305592">
        <ele>10.785</ele>
        <time>2021-10-29T18:06:24Z</time>
      </trkpt>
      <trkpt lat="28.068739" lon="-14.305663">
        <ele>10.513</ele>
        <time>2021-10-29T18:06:41Z</time>
      </trkpt>
      <trkpt lat="28.069016" lon="-14.305734">
        <ele>10.208</ele>
        <time>2021-10-29T18:07:05Z</time>
      </trkpt>
      <trkpt lat="28.068893" lon="-14.305660">
        <ele>10.035</ele>
        <time>2021-10-29T18:08:54Z</time>
      </trkpt>
      <trkpt lat="28.068366" lon="-14.305826">
        <ele>9.355</ele>
        <time>2021-10-29T18:10:08Z</time>
      </trkpt>
      <trkpt lat="28.067908" lon="-14.306273">
        <ele>8.672</ele>
        <time>2021-10-29T18:11:26Z</time>
      </trkpt>
      <trkpt lat="28.067920" lon="-14.306127">
        <ele>8.637</ele>
        <time>2021-10-29T18:11:42Z</time>
      </trkpt>
      <trkpt lat="28.067787" lon="-14.306153">
        <ele>8.567</ele>
        <time>2021-10-29T18:12:04Z</time>
      </trkpt>
      <trkpt lat="28.067545" lon="-14.306489">
        <ele>8.423</ele>
        <time>2021-10-29T18:13:27Z</time>
      </trkpt>
      <trkpt lat="28.068892" lon="-14.306765">
        <ele>14.779</ele>
        <time>2021-10-30T07:54:14Z</time>
      </trkpt>
      <trkpt lat="28.069228" lon="-14.308172">
        <ele>19.205</ele>
        <time>2021-10-30T07:55:07Z</time>
      </trkpt>
      <trkpt lat="28.071007" lon="-14.309824">
        <ele>35.225</ele>
        <time>2021-10-30T07:56:55Z</time>
      </trkpt>
      <trkpt lat="28.071994" lon="-14.309827">
        <ele>44.508</ele>
        <time>2021-10-30T07:57:53Z</time>
      </trkpt>
      <trkpt lat="28.072123" lon="-14.310554">
        <ele>44.615</ele>
        <time>2021-10-30T07:58:24Z</time>
      </trkpt>
      <trkpt lat="28.071918" lon="-14.311163">
        <ele>42.925</ele>
        <time>2021-10-30T07:58:42Z</time>
      </trkpt>
      <trkpt lat="28.071585" lon="-14.311458">
        <ele>38.662</ele>
        <time>2021-10-30T07:58:56Z</time>
      </trkpt>
      <trkpt lat="28.071649" lon="-14.311856">
        <ele>40.337</ele>
        <time>2021-10-30T07:59:13Z</time>
      </trkpt>
      <trkpt lat="28.071624" lon="-14.311318">
        <ele>36.427</ele>
        <time>2021-10-30T07:59:58Z</time>
      </trkpt>
      <trkpt lat="28.076526" lon="-14.310753">
        <ele>95.383</ele>
        <time>2021-10-30T08:00:14Z</time>
      </trkpt>
      <trkpt lat="28.072436" lon="-14.311255">
        <ele>44.216</ele>
        <time>2021-10-30T08:00:20Z</time>
      </trkpt>
      <trkpt lat="28.072961" lon="-14.308544">
        <ele>49.927</ele>
        <time>2021-10-30T08:00:45Z</time>
      </trkpt>
      <trkpt lat="28.071478" lon="-14.309088">
        <ele>38.568</ele>
        <time>2021-10-30T08:01:00Z</time>
      </trkpt>
      <trkpt lat="28.072899" lon="-14.308830">
        <ele>49.142</ele>
        <time>2021-10-30T08:01:08Z</time>
      </trkpt>
      <trkpt lat="28.069251" lon="-14.310235">
        <ele>46.126</ele>
        <time>2021-10-30T08:01:10Z</time>
      </trkpt>
      <trkpt lat="28.068049" lon="-14.309931">
        <ele>46.208</ele>
        <time>2021-10-30T08:01:37Z</time>
      </trkpt>
      <trkpt lat="28.067149" lon="-14.310333">
        <ele>46.234</ele>
        <time>2021-10-30T08:01:57Z</time>
      </trkpt>
      <trkpt lat="28.063221" lon="-14.314432">
        <ele>48.434</ele>
        <time>2021-10-30T08:04:01Z</time>
      </trkpt>
      <trkpt lat="28.062535" lon="-14.315413">
        <ele>46.621</ele>
        <time>2021-10-30T08:04:24Z</time>
      </trkpt>
      <trkpt lat="28.062187" lon="-14.316298">
        <ele>45.386</ele>
        <time>2021-10-30T08:04:52Z</time>
      </trkpt>
      <trkpt lat="28.061635" lon="-14.316909">
        <ele>45.336</ele>
        <time>2021-10-30T08:05:15Z</time>
      </trkpt>
      <trkpt lat="28.061187" lon="-14.316800">
        <ele>44.762</ele>
        <time>2021-10-30T08:05:30Z</time>
      </trkpt>
      <trkpt lat="28.061039" lon="-14.317076">
        <ele>45.745</ele>
        <time>2021-10-30T08:05:43Z</time>
      </trkpt>
      <trkpt lat="28.061538" lon="-14.317271">
        <ele>47.756</ele>
        <time>2021-10-30T08:06:56Z</time>
      </trkpt>
      <trkpt lat="28.061613" lon="-14.317510">
        <ele>49.356</ele>
        <time>2021-10-30T08:07:03Z</time>
      </trkpt>
      <trkpt lat="28.060304" lon="-14.318112">
        <ele>46.059</ele>
        <time>2021-10-30T08:07:25Z</time>
      </trkpt>
      <trkpt lat="28.060220" lon="-14.318682">
        <ele>43.914</ele>
        <time>2021-10-30T08:07:31Z</time>
      </trkpt>
      <trkpt lat="28.060501" lon="-14.319522">
        <ele>41.908</ele>
        <time>2021-10-30T08:07:41Z</time>
      </trkpt>
      <trkpt lat="28.060362" lon="-14.319932">
        <ele>41.723</ele>
        <time>2021-10-30T08:07:47Z</time>
      </trkpt>
      <trkpt lat="28.056908" lon="-14.321621">
        <ele>30.043</ele>
        <time>2021-10-30T08:08:44Z</time>
      </trkpt>
      <trkpt lat="28.054586" lon="-14.322406">
        <ele>13.620</ele>
        <time>2021-10-30T08:09:06Z</time>
      </trkpt>
      <trkpt lat="28.054533" lon="-14.322659">
        <ele>14.795</ele>
        <time>2021-10-30T08:09:12Z</time>
      </trkpt>
      <trkpt lat="28.056634" lon="-14.324726">
        <ele>53.155</ele>
        <time>2021-10-30T08:12:19Z</time>
      </trkpt>
      <trkpt lat="28.058351" lon="-14.326103">
        <ele>70.381</ele>
        <time>2021-10-30T08:14:07Z</time>
      </trkpt>
      <trkpt lat="28.056469" lon="-14.324782">
        <ele>53.374</ele>
        <time>2021-10-30T08:15:10Z</time>
      </trkpt>
      <trkpt lat="28.054758" lon="-14.327329">
        <ele>67.755</ele>
        <time>2021-10-30T08:17:28Z</time>
      </trkpt>
      <trkpt lat="28.054821" lon="-14.327838">
        <ele>72.736</ele>
        <time>2021-10-30T08:17:54Z</time>
      </trkpt>
      <trkpt lat="28.055023" lon="-14.328001">
        <ele>75.417</ele>
        <time>2021-10-30T08:18:06Z</time>
      </trkpt>
      <trkpt lat="28.057278" lon="-14.327665">
        <ele>95.618</ele>
        <time>2021-10-30T08:20:33Z</time>
      </trkpt>
      <trkpt lat="28.058316" lon="-14.328396">
        <ele>105.408</ele>
        <time>2021-10-30T08:21:37Z</time>
      </trkpt>
      <trkpt lat="28.058102" lon="-14.328192">
        <ele>108.341</ele>
        <time>2021-10-30T08:22:03Z</time>
      </trkpt>
      <trkpt lat="28.059634" lon="-14.328383">
        <ele>124.221</ele>
        <time>2021-10-30T08:23:38Z</time>
      </trkpt>
      <trkpt lat="28.060151" lon="-14.327988">
        <ele>136.868</ele>
        <time>2021-10-30T08:32:44Z</time>
      </trkpt>
      <trkpt lat="28.060734" lon="-14.327969">
        <ele>145.753</ele>
        <time>2021-10-30T08:36:10Z</time>
      </trkpt>
      <trkpt lat="28.061306" lon="-14.327242">
        <ele>161.443</ele>
        <time>2021-10-30T08:38:36Z</time>
      </trkpt>
      <trkpt lat="28.061466" lon="-14.327611">
        <ele>166.639</ele>
        <time>2021-10-30T08:39:03Z</time>
      </trkpt>
      <trkpt lat="28.061242" lon="-14.327981">
        <ele>172.972</ele>
        <time>2021-10-30T08:39:36Z</time>
      </trkpt>
      <trkpt lat="28.061264" lon="-14.328372">
        <ele>178.953</ele>
        <time>2021-10-30T08:40:45Z</time>
      </trkpt>
      <trkpt lat="28.062149" lon="-14.327683">
        <ele>195.049</ele>
        <time>2021-10-30T08:42:47Z</time>
      </trkpt>
      <trkpt lat="28.062659" lon="-14.327643">
        <ele>202.102</ele>
        <time>2021-10-30T08:44:10Z</time>
      </trkpt>
      <trkpt lat="28.062952" lon="-14.327879">
        <ele>203.522</ele>
        <time>2021-10-30T08:45:18Z</time>
      </trkpt>
      <trkpt lat="28.062505" lon="-14.327573">
        <ele>199.508</ele>
        <time>2021-10-30T08:46:04Z</time>
      </trkpt>
      <trkpt lat="28.063604" lon="-14.328355">
        <ele>211.352</ele>
        <time>2021-10-30T08:49:21Z</time>
      </trkpt>
      <trkpt lat="28.065144" lon="-14.329076">
        <ele>217.132</ele>
        <time>2021-10-30T08:50:29Z</time>
      </trkpt>
      <trkpt lat="28.066321" lon="-14.330394">
        <ele>211.269</ele>
        <time>2021-10-30T08:53:30Z</time>
      </trkpt>
      <trkpt lat="28.068254" lon="-14.331662">
        <ele>216.234</ele>
        <time>2021-10-30T08:55:24Z</time>
      </trkpt>
      <trkpt lat="28.069619" lon="-14.332097">
        <ele>228.244</ele>
        <time>2021-10-30T08:56:50Z</time>
      </trkpt>
      <trkpt lat="28.071114" lon="-14.333394">
        <ele>244.340</ele>
        <time>2021-10-30T08:58:42Z</time>
      </trkpt>
      <trkpt lat="28.072839" lon="-14.333693">
        <ele>259.193</ele>
        <time>2021-10-30T09:00:44Z</time>
      </trkpt>
      <trkpt lat="28.073632" lon="-14.334039">
        <ele>266.384</ele>
        <time>2021-10-30T09:01:45Z</time>
      </trkpt>
      <trkpt lat="28.074161" lon="-14.334539">
        <ele>272.481</ele>
        <time>2021-10-30T09:02:39Z</time>
      </trkpt>
      <trkpt lat="28.073985" lon="-14.334563">
        <ele>274.461</ele>
        <time>2021-10-30T09:03:04Z</time>
      </trkpt>
      <trkpt lat="28.075653" lon="-14.335142">
        <ele>293.617</ele>
        <time>2021-10-30T09:06:34Z</time>
      </trkpt>
      <trkpt lat="28.076631" lon="-14.334954">
        <ele>304.608</ele>
        <time>2021-10-30T09:07:44Z</time>
      </trkpt>
      <trkpt lat="28.077654" lon="-14.335101">
        <ele>316.216</ele>
        <time>2021-10-30T09:09:05Z</time>
      </trkpt>
      <trkpt lat="28.079236" lon="-14.336196">
        <ele>336.726</ele>
        <time>2021-10-30T09:11:25Z</time>
      </trkpt>
      <trkpt lat="28.079884" lon="-14.336196">
        <ele>343.963</ele>
        <time>2021-10-30T09:12:15Z</time>
      </trkpt>
      <trkpt lat="28.080766" lon="-14.336524">
        <ele>354.298</ele>
        <time>2021-10-30T09:13:19Z</time>
      </trkpt>
      <trkpt lat="28.081104" lon="-14.336464">
        <ele>358.718</ele>
        <time>2021-10-30T09:13:49Z</time>
      </trkpt>
      <trkpt lat="28.082182" lon="-14.337231">
        <ele>381.524</ele>
        <time>2021-10-30T09:20:20Z</time>
      </trkpt>
      <trkpt lat="28.083179" lon="-14.338359">
        <ele>407.797</ele>
        <time>2021-10-30T09:23:34Z</time>
      </trkpt>
      <trkpt lat="28.084637" lon="-14.338757">
        <ele>429.498</ele>
        <time>2021-10-30T09:26:45Z</time>
      </trkpt>
      <trkpt lat="28.085166" lon="-14.339379">
        <ele>440.697</ele>
        <time>2021-10-30T09:28:21Z</time>
      </trkpt>
      <trkpt lat="28.086177" lon="-14.339441">
        <ele>457.623</ele>
        <time>2021-10-30T09:30:39Z</time>
      </trkpt>
      <trkpt lat="28.087895" lon="-14.341284">
        <ele>490.525</ele>
        <time>2021-10-30T09:33:35Z</time>
      </trkpt>
      <trkpt lat="28.088291" lon="-14.342052">
        <ele>501.408</ele>
        <time>2021-10-30T09:34:30Z</time>
      </trkpt>
      <trkpt lat="28.088723" lon="-14.342360">
        <ele>508.447</ele>
        <time>2021-10-30T09:35:07Z</time>
      </trkpt>
      <trkpt lat="28.089460" lon="-14.343452">
        <ele>524.167</ele>
        <time>2021-10-30T09:36:34Z</time>
      </trkpt>
      <trkpt lat="28.091020" lon="-14.344767">
        <ele>547.944</ele>
        <time>2021-10-30T09:38:55Z</time>
      </trkpt>
      <trkpt lat="28.092529" lon="-14.346549">
        <ele>551.959</ele>
        <time>2021-10-30T09:40:33Z</time>
      </trkpt>
      <trkpt lat="28.094073" lon="-14.347589">
        <ele>552.249</ele>
        <time>2021-10-30T09:41:44Z</time>
      </trkpt>
      <trkpt lat="28.095604" lon="-14.349008">
        <ele>564.035</ele>
        <time>2021-10-30T09:44:20Z</time>
      </trkpt>
      <trkpt lat="28.095866" lon="-14.348750">
        <ele>569.078</ele>
        <time>2021-10-30T09:44:56Z</time>
      </trkpt>
      <trkpt lat="28.096456" lon="-14.348911">
        <ele>575.699</ele>
        <time>2021-10-30T09:50:36Z</time>
      </trkpt>
      <trkpt lat="28.097096" lon="-14.350305">
        <ele>607.453</ele>
        <time>2021-10-30T09:52:28Z</time>
      </trkpt>
      <trkpt lat="28.097947" lon="-14.350699">
        <ele>633.104</ele>
        <time>2021-10-30T09:54:02Z</time>
      </trkpt>
      <trkpt lat="28.098019" lon="-14.351117">
        <ele>639.714</ele>
        <time>2021-10-30T09:54:40Z</time>
      </trkpt>
      <trkpt lat="28.098269" lon="-14.351310">
        <ele>646.008</ele>
        <time>2021-10-30T09:55:07Z</time>
      </trkpt>
      <trkpt lat="28.098910" lon="-14.353394">
        <ele>663.953</ele>
        <time>2021-10-30T09:57:34Z</time>
      </trkpt>
      <trkpt lat="28.099040" lon="-14.352668">
        <ele>671.763</ele>
        <time>2021-10-30T09:58:23Z</time>
      </trkpt>
      <trkpt lat="28.099242" lon="-14.352481">
        <ele>676.560</ele>
        <time>2021-10-30T09:58:45Z</time>
      </trkpt>
      <trkpt lat="28.099400" lon="-14.352896">
        <ele>683.875</ele>
        <time>2021-10-30T09:59:33Z</time>
      </trkpt>
      <trkpt lat="28.099615" lon="-14.352972">
        <ele>687.745</ele>
        <time>2021-10-30T09:59:54Z</time>
      </trkpt>
      <trkpt lat="28.099697" lon="-14.353853">
        <ele>698.341</ele>
        <time>2021-10-30T10:00:55Z</time>
      </trkpt>
      <trkpt lat="28.099894" lon="-14.353545">
        <ele>704.114</ele>
        <time>2021-10-30T10:01:18Z</time>
      </trkpt>
      <trkpt lat="28.100272" lon="-14.354378">
        <ele>733.975</ele>
        <time>2021-10-30T10:03:34Z</time>
      </trkpt>
      <trkpt lat="28.100426" lon="-14.354237">
        <ele>740.049</ele>
        <time>2021-10-30T10:03:51Z</time>
      </trkpt>
      <trkpt lat="28.100441" lon="-14.354547">
        <ele>745.902</ele>
        <time>2021-10-30T10:04:19Z</time>
      </trkpt>
      <trkpt lat="28.100572" lon="-14.354490">
        <ele>751.022</ele>
        <time>2021-10-30T10:04:39Z</time>
      </trkpt>
      <trkpt lat="28.100884" lon="-14.355033">
        <ele>765.908</ele>
        <time>2021-10-30T10:05:40Z</time>
      </trkpt>
      <trkpt lat="28.101291" lon="-14.354917">
        <ele>776.162</ele>
        <time>2021-10-30T10:06:19Z</time>
      </trkpt>
      <trkpt lat="28.101321" lon="-14.355165">
        <ele>782.252</ele>
        <time>2021-10-30T10:06:47Z</time>
      </trkpt>
      <trkpt lat="28.101861" lon="-14.355458">
        <ele>784.499</ele>
        <time>2021-10-30T10:08:20Z</time>
      </trkpt>
      <trkpt lat="28.101842" lon="-14.355730">
        <ele>763.714</ele>
        <time>2021-10-30T10:12:22Z</time>
      </trkpt>
      <trkpt lat="28.102047" lon="-14.355320">
        <ele>780.944</ele>
        <time>2021-10-30T10:13:55Z</time>
      </trkpt>
      <trkpt lat="28.101815" lon="-14.355450">
        <ele>791.510</ele>
        <time>2021-10-30T10:16:20Z</time>
      </trkpt>
      <trkpt lat="28.101273" lon="-14.355214">
        <ele>781.473</ele>
        <time>2021-10-30T10:17:28Z</time>
      </trkpt>
      <trkpt lat="28.101210" lon="-14.354933">
        <ele>774.484</ele>
        <time>2021-10-30T10:17:49Z</time>
      </trkpt>
      <trkpt lat="28.100626" lon="-14.354876">
        <ele>758.759</ele>
        <time>2021-10-30T10:18:53Z</time>
      </trkpt>
      <trkpt lat="28.100590" lon="-14.354456">
        <ele>750.303</ele>
        <time>2021-10-30T10:19:20Z</time>
      </trkpt>
      <trkpt lat="28.100433" lon="-14.354558">
        <ele>745.023</ele>
        <time>2021-10-30T10:19:40Z</time>
      </trkpt>
      <trkpt lat="28.100385" lon="-14.354278">
        <ele>738.308</ele>
        <time>2021-10-30T10:20:04Z</time>
      </trkpt>
      <trkpt lat="28.100277" lon="-14.354383">
        <ele>733.653</ele>
        <time>2021-10-30T10:20:18Z</time>
      </trkpt>
      <trkpt lat="28.099908" lon="-14.353579">
        <ele>705.443</ele>
        <time>2021-10-30T10:21:44Z</time>
      </trkpt>
      <trkpt lat="28.099697" lon="-14.353884">
        <ele>699.390</ele>
        <time>2021-10-30T10:22:04Z</time>
      </trkpt>
      <trkpt lat="28.099585" lon="-14.352971">
        <ele>687.925</ele>
        <time>2021-10-30T10:22:50Z</time>
      </trkpt>
      <trkpt lat="28.099353" lon="-14.352867">
        <ele>683.475</ele>
        <time>2021-10-30T10:23:08Z</time>
      </trkpt>
      <trkpt lat="28.099231" lon="-14.352486">
        <ele>676.681</ele>
        <time>2021-10-30T10:23:39Z</time>
      </trkpt>
      <trkpt lat="28.098991" lon="-14.352718">
        <ele>671.024</ele>
        <time>2021-10-30T10:24:01Z</time>
      </trkpt>
      <trkpt lat="28.098911" lon="-14.353408">
        <ele>663.735</ele>
        <time>2021-10-30T10:24:39Z</time>
      </trkpt>
      <trkpt lat="28.098287" lon="-14.351277">
        <ele>645.231</ele>
        <time>2021-10-30T10:26:01Z</time>
      </trkpt>
      <trkpt lat="28.097866" lon="-14.350730">
        <ele>631.961</ele>
        <time>2021-10-30T10:26:34Z</time>
      </trkpt>
      <trkpt lat="28.097035" lon="-14.350250">
        <ele>605.607</ele>
        <time>2021-10-30T10:27:36Z</time>
      </trkpt>
      <trkpt lat="28.096480" lon="-14.348964">
        <ele>576.808</ele>
        <time>2021-10-30T10:28:49Z</time>
      </trkpt>
      <trkpt lat="28.095814" lon="-14.348774">
        <ele>569.581</ele>
        <time>2021-10-30T10:29:31Z</time>
      </trkpt>
      <trkpt lat="28.095604" lon="-14.348994">
        <ele>563.951</ele>
        <time>2021-10-30T10:32:00Z</time>
      </trkpt>
      <trkpt lat="28.089924" lon="-14.343938">
        <ele>530.368</ele>
        <time>2021-10-30T10:35:50Z</time>
      </trkpt>
      <trkpt lat="28.088730" lon="-14.342295">
        <ele>508.343</ele>
        <time>2021-10-30T10:36:42Z</time>
      </trkpt>
      <trkpt lat="28.088273" lon="-14.341983">
        <ele>501.043</ele>
        <time>2021-10-30T10:36:58Z</time>
      </trkpt>
      <trkpt lat="28.087850" lon="-14.341154">
        <ele>489.459</ele>
        <time>2021-10-30T10:37:28Z</time>
      </trkpt>
      <trkpt lat="28.086274" lon="-14.339425">
        <ele>459.452</ele>
        <time>2021-10-30T10:38:31Z</time>
      </trkpt>
      <trkpt lat="28.085085" lon="-14.339364">
        <ele>439.993</ele>
        <time>2021-10-30T10:40:17Z</time>
      </trkpt>
      <trkpt lat="28.084609" lon="-14.338719">
        <ele>427.245</ele>
        <time>2021-10-30T10:47:57Z</time>
      </trkpt>
      <trkpt lat="28.083433" lon="-14.338456">
        <ele>410.947</ele>
        <time>2021-10-30T10:48:43Z</time>
      </trkpt>
      <trkpt lat="28.082866" lon="-14.338123">
        <ele>402.211</ele>
        <time>2021-10-30T10:49:16Z</time>
      </trkpt>
      <trkpt lat="28.082206" lon="-14.337261">
        <ele>380.508</ele>
        <time>2021-10-30T10:50:06Z</time>
      </trkpt>
      <trkpt lat="28.081038" lon="-14.336522">
        <ele>360.442</ele>
        <time>2021-10-30T10:50:41Z</time>
      </trkpt>
      <trkpt lat="28.079108" lon="-14.336155">
        <ele>339.292</ele>
        <time>2021-10-30T10:51:26Z</time>
      </trkpt>
      <trkpt lat="28.078492" lon="-14.335661">
        <ele>331.259</ele>
        <time>2021-10-30T10:51:45Z</time>
      </trkpt>
      <trkpt lat="28.077039" lon="-14.335000">
        <ele>314.614</ele>
        <time>2021-10-30T10:52:22Z</time>
      </trkpt>
      <trkpt lat="28.075609" lon="-14.335094">
        <ele>299.344</ele>
        <time>2021-10-30T10:53:04Z</time>
      </trkpt>
      <trkpt lat="28.075427" lon="-14.335273">
        <ele>295.710</ele>
        <time>2021-10-30T10:53:56Z</time>
      </trkpt>
      <trkpt lat="28.075435" lon="-14.334993">
        <ele>290.683</ele>
        <time>2021-10-30T10:58:36Z</time>
      </trkpt>
      <trkpt lat="28.073937" lon="-14.334448">
        <ele>275.024</ele>
        <time>2021-10-30T10:59:09Z</time>
      </trkpt>
      <trkpt lat="28.073575" lon="-14.333980">
        <ele>270.135</ele>
        <time>2021-10-30T10:59:25Z</time>
      </trkpt>
      <trkpt lat="28.070935" lon="-14.333318">
        <ele>245.586</ele>
        <time>2021-10-30T11:00:41Z</time>
      </trkpt>
      <trkpt lat="28.070435" lon="-14.332946">
        <ele>240.114</ele>
        <time>2021-10-30T11:00:56Z</time>
      </trkpt>
      <trkpt lat="28.070019" lon="-14.332298">
        <ele>233.208</ele>
        <time>2021-10-30T11:01:36Z</time>
      </trkpt>
      <trkpt lat="28.067097" lon="-14.331032">
        <ele>205.331</ele>
        <time>2021-10-30T11:03:09Z</time>
      </trkpt>
      <trkpt lat="28.065083" lon="-14.328973">
        <ele>216.981</ele>
        <time>2021-10-30T11:05:24Z</time>
      </trkpt>
      <trkpt lat="28.063705" lon="-14.328433">
        <ele>211.188</ele>
        <time>2021-10-30T11:06:01Z</time>
      </trkpt>
      <trkpt lat="28.062691" lon="-14.327658">
        <ele>202.083</ele>
        <time>2021-10-30T11:07:06Z</time>
      </trkpt>
      <trkpt lat="28.062057" lon="-14.327800">
        <ele>190.963</ele>
        <time>2021-10-30T11:07:44Z</time>
      </trkpt>
      <trkpt lat="28.061287" lon="-14.328326">
        <ele>174.499</ele>
        <time>2021-10-30T11:08:41Z</time>
      </trkpt>
      <trkpt lat="28.061260" lon="-14.327978">
        <ele>168.292</ele>
        <time>2021-10-30T11:08:55Z</time>
      </trkpt>
      <trkpt lat="28.061491" lon="-14.327614">
        <ele>161.223</ele>
        <time>2021-10-30T11:09:15Z</time>
      </trkpt>
      <trkpt lat="28.061340" lon="-14.327377">
        <ele>156.178</ele>
        <time>2021-10-30T11:09:28Z</time>
      </trkpt>
      <trkpt lat="28.060733" lon="-14.328113">
        <ele>144.333</ele>
        <time>2021-10-30T11:10:09Z</time>
      </trkpt>
      <trkpt lat="28.060276" lon="-14.328071">
        <ele>138.726</ele>
        <time>2021-10-30T11:10:25Z</time>
      </trkpt>
      <trkpt lat="28.059497" lon="-14.328358">
        <ele>126.208</ele>
        <time>2021-10-30T11:10:50Z</time>
      </trkpt>
      <trkpt lat="28.058153" lon="-14.328227">
        <ele>107.635</ele>
        <time>2021-10-30T11:11:27Z</time>
      </trkpt>
      <trkpt lat="28.056968" lon="-14.327719">
        <ele>94.285</ele>
        <time>2021-10-30T11:11:47Z</time>
      </trkpt>
      <trkpt lat="28.054971" lon="-14.328004">
        <ele>74.012</ele>
        <time>2021-10-30T11:12:08Z</time>
      </trkpt>
      <trkpt lat="28.054683" lon="-14.327702">
        <ele>69.727</ele>
        <time>2021-10-30T11:12:13Z</time>
      </trkpt>
      <trkpt lat="28.054739" lon="-14.327361">
        <ele>66.187</ele>
        <time>2021-10-30T11:12:16Z</time>
      </trkpt>
      <trkpt lat="28.056488" lon="-14.324650">
        <ele>52.743</ele>
        <time>2021-10-30T11:12:55Z</time>
      </trkpt>
      <trkpt lat="28.054288" lon="-14.322706">
        <ele>14.336</ele>
        <time>2021-10-30T11:13:39Z</time>
      </trkpt>
      <trkpt lat="28.053167" lon="-14.323281">
        <ele>10.967</ele>
        <time>2021-10-30T11:13:58Z</time>
      </trkpt>
      <trkpt lat="28.052710" lon="-14.323794">
        <ele>9.857</ele>
        <time>2021-10-30T11:14:07Z</time>
      </trkpt>
      <trkpt lat="28.052883" lon="-14.324535">
        <ele>12.100</ele>
        <time>2021-10-30T11:14:30Z</time>
      </trkpt>
      <trkpt lat="28.053057" lon="-14.324282">
        <ele>12.320</ele>
        <time>2021-10-30T11:14:48Z</time>
      </trkpt>
      <trkpt lat="28.053300" lon="-14.324614">
        <ele>19.808</ele>
        <time>2021-10-30T11:18:18Z</time>
      </trkpt>
      <trkpt lat="28.053399" lon="-14.324403">
        <ele>19.843</ele>
        <time>2021-10-30T11:19:35Z</time>
      </trkpt>
      <trkpt lat="28.053226" lon="-14.324553">
        <ele>19.793</ele>
        <time>2021-10-30T11:19:59Z</time>
      </trkpt>
      <trkpt lat="28.052967" lon="-14.324347">
        <ele>11.660</ele>
        <time>2021-10-30T11:32:28Z</time>
      </trkpt>
      <trkpt lat="28.052833" lon="-14.324523">
        <ele>12.255</ele>
        <time>2021-10-30T11:32:38Z</time>
      </trkpt>
      <trkpt lat="28.052644" lon="-14.323991">
        <ele>9.745</ele>
        <time>2021-10-30T11:32:55Z</time>
      </trkpt>
      <trkpt lat="28.053106" lon="-14.323109">
        <ele>10.111</ele>
        <time>2021-10-30T11:33:32Z</time>
      </trkpt>
      <trkpt lat="28.054225" lon="-14.322255">
        <ele>13.074</ele>
        <time>2021-10-30T11:34:14Z</time>
      </trkpt>
      <trkpt lat="28.056806" lon="-14.321621">
        <ele>29.125</ele>
        <time>2021-10-30T11:35:38Z</time>
      </trkpt>
      <trkpt lat="28.060314" lon="-14.319847">
        <ele>41.774</ele>
        <time>2021-10-30T11:38:23Z</time>
      </trkpt>
      <trkpt lat="28.060429" lon="-14.319363">
        <ele>42.056</ele>
        <time>2021-10-30T11:38:32Z</time>
      </trkpt>
      <trkpt lat="28.060099" lon="-14.318463">
        <ele>44.321</ele>
        <time>2021-10-30T11:38:54Z</time>
      </trkpt>
      <trkpt lat="28.060239" lon="-14.317958">
        <ele>46.108</ele>
        <time>2021-10-30T11:39:08Z</time>
      </trkpt>
      <trkpt lat="28.061157" lon="-14.317468">
        <ele>46.915</ele>
        <time>2021-10-30T11:39:38Z</time>
      </trkpt>
      <trkpt lat="28.061043" lon="-14.316871">
        <ele>45.155</ele>
        <time>2021-10-30T11:39:53Z</time>
      </trkpt>
      <trkpt lat="28.061873" lon="-14.316849">
        <ele>45.072</ele>
        <time>2021-10-30T11:40:21Z</time>
      </trkpt>
      <trkpt lat="28.063311" lon="-14.314234">
        <ele>48.897</ele>
        <time>2021-10-30T11:41:35Z</time>
      </trkpt>
      <trkpt lat="28.067322" lon="-14.310174">
        <ele>46.187</ele>
        <time>2021-10-30T11:43:43Z</time>
      </trkpt>
      <trkpt lat="28.068182" lon="-14.309853">
        <ele>46.283</ele>
        <time>2021-10-30T11:44:06Z</time>
      </trkpt>
      <trkpt lat="28.069504" lon="-14.310311">
        <ele>45.946</ele>
        <time>2021-10-30T11:44:42Z</time>
      </trkpt>
      <trkpt lat="28.071100" lon="-14.311628">
        <ele>45.187</ele>
        <time>2021-10-30T11:45:23Z</time>
      </trkpt>
      <trkpt lat="28.071844" lon="-14.311542">
        <ele>45.129</ele>
        <time>2021-10-30T11:45:37Z</time>
      </trkpt>
      <trkpt lat="28.072120" lon="-14.311157">
        <ele>44.900</ele>
        <time>2021-10-30T11:45:45Z</time>
      </trkpt>
      <trkpt lat="28.072029" lon="-14.309792">
        <ele>44.520</ele>
        <time>2021-10-30T11:46:13Z</time>
      </trkpt>
      <trkpt lat="28.071387" lon="-14.307557">
        <ele>40.808</ele>
        <time>2021-10-30T11:47:04Z</time>
      </trkpt>
      <trkpt lat="28.071516" lon="-14.307054">
        <ele>40.350</ele>
        <time>2021-10-30T11:47:13Z</time>
      </trkpt>
      <trkpt lat="28.071976" lon="-14.306516">
        <ele>42.210</ele>
        <time>2021-10-30T11:47:30Z</time>
      </trkpt>
      <trkpt lat="28.072525" lon="-14.306428">
        <ele>46.277</ele>
        <time>2021-10-30T11:47:49Z</time>
      </trkpt>
      <trkpt lat="28.073118" lon="-14.306629">
        <ele>51.832</ele>
        <time>2021-10-30T11:48:15Z</time>
      </trkpt>
      <trkpt lat="28.073646" lon="-14.306356">
        <ele>54.182</ele>
        <time>2021-10-30T11:49:06Z</time>
      </trkpt>
      <trkpt lat="28.074045" lon="-14.306456">
        <ele>56.318</ele>
        <time>2021-10-30T11:49:21Z</time>
      </trkpt>
      <trkpt lat="28.074302" lon="-14.306869">
        <ele>61.331</ele>
        <time>2021-10-30T11:49:42Z</time>
      </trkpt>
      <trkpt lat="28.074336" lon="-14.307448">
        <ele>66.942</ele>
        <time>2021-10-30T11:50:13Z</time>
      </trkpt>
      <trkpt lat="28.075561" lon="-14.308496">
        <ele>80.134</ele>
        <time>2021-10-30T11:51:21Z</time>
      </trkpt>
      <trkpt lat="28.076429" lon="-14.308614">
        <ele>85.855</ele>
        <time>2021-10-30T11:52:00Z</time>
      </trkpt>
      <trkpt lat="28.077351" lon="-14.307770">
        <ele>86.210</ele>
        <time>2021-10-30T11:52:25Z</time>
      </trkpt>
      <trkpt lat="28.077438" lon="-14.307191">
        <ele>84.908</ele>
        <time>2021-10-30T11:52:37Z</time>
      </trkpt>
      <trkpt lat="28.077857" lon="-14.307253">
        <ele>87.281</ele>
        <time>2021-10-30T11:53:39Z</time>
      </trkpt>
      <trkpt lat="28.078438" lon="-14.306028">
        <ele>92.841</ele>
        <time>2021-10-30T11:54:17Z</time>
      </trkpt>
      <trkpt lat="28.078167" lon="-14.303103">
        <ele>79.128</ele>
        <time>2021-10-30T11:55:00Z</time>
      </trkpt>
      <trkpt lat="28.078456" lon="-14.302248">
        <ele>74.593</ele>
        <time>2021-10-30T11:55:12Z</time>
      </trkpt>
      <trkpt lat="28.079902" lon="-14.301571">
        <ele>65.053</ele>
        <time>2021-10-30T11:57:25Z</time>
      </trkpt>
      <trkpt lat="28.082225" lon="-14.302105">
        <ele>49.959</ele>
        <time>2021-10-30T11:57:48Z</time>
      </trkpt>
      <trkpt lat="28.082344" lon="-14.301368">
        <ele>46.892</ele>
        <time>2021-10-30T11:57:56Z</time>
      </trkpt>
      <trkpt lat="28.081052" lon="-14.300154">
        <ele>41.893</ele>
        <time>2021-10-30T11:58:20Z</time>
      </trkpt>
      <trkpt lat="28.079702" lon="-14.297849">
        <ele>39.343</ele>
        <time>2021-10-30T11:59:04Z</time>
      </trkpt>
      <trkpt lat="28.079315" lon="-14.296844">
        <ele>43.664</ele>
        <time>2021-10-30T11:59:34Z</time>
      </trkpt>
      <trkpt lat="28.079552" lon="-14.296407">
        <ele>47.510</ele>
        <time>2021-10-30T11:59:52Z</time>
      </trkpt>
      <trkpt lat="28.080644" lon="-14.295758">
        <ele>53.408</ele>
        <time>2021-10-30T12:00:41Z</time>
      </trkpt>
      <trkpt lat="28.083641" lon="-14.294684">
        <ele>44.052</ele>
        <time>2021-10-30T12:01:38Z</time>
      </trkpt>
      <trkpt lat="28.083637" lon="-14.294119">
        <ele>42.892</ele>
        <time>2021-10-30T12:01:44Z</time>
      </trkpt>
      <trkpt lat="28.082898" lon="-14.292960">
        <ele>47.089</ele>
        <time>2021-10-30T12:02:17Z</time>
      </trkpt>
      <trkpt lat="28.083205" lon="-14.292315">
        <ele>50.014</ele>
        <time>2021-10-30T12:02:38Z</time>
      </trkpt>
      <trkpt lat="28.086656" lon="-14.292056">
        <ele>61.574</ele>
        <time>2021-10-30T12:04:15Z</time>
      </trkpt>
      <trkpt lat="28.087538" lon="-14.292211">
        <ele>64.010</ele>
        <time>2021-10-30T12:05:36Z</time>
      </trkpt>
      <trkpt lat="28.089091" lon="-14.293159">
        <ele>56.853</ele>
        <time>2021-10-30T12:06:08Z</time>
      </trkpt>
      <trkpt lat="28.090179" lon="-14.293044">
        <ele>49.694</ele>
        <time>2021-10-30T12:06:20Z</time>
      </trkpt>
      <trkpt lat="28.091930" lon="-14.291934">
        <ele>58.289</ele>
        <time>2021-10-30T12:07:03Z</time>
      </trkpt>
      <trkpt lat="28.092081" lon="-14.291491">
        <ele>62.006</ele>
        <time>2021-10-30T12:07:20Z</time>
      </trkpt>
      <trkpt lat="28.091916" lon="-14.290152">
        <ele>69.826</ele>
        <time>2021-10-30T12:08:16Z</time>
      </trkpt>
      <trkpt lat="28.092307" lon="-14.289570">
        <ele>74.308</ele>
        <time>2021-10-30T12:08:59Z</time>
      </trkpt>
      <trkpt lat="28.093177" lon="-14.289647">
        <ele>75.846</ele>
        <time>2021-10-30T12:10:27Z</time>
      </trkpt>
      <trkpt lat="28.093598" lon="-14.289388">
        <ele>72.276</ele>
        <time>2021-10-30T12:10:33Z</time>
      </trkpt>
      <trkpt lat="28.093783" lon="-14.288989">
        <ele>69.983</ele>
        <time>2021-10-30T12:10:39Z</time>
      </trkpt>
      <trkpt lat="28.094131" lon="-14.288955">
        <ele>70.218</ele>
        <time>2021-10-30T12:10:47Z</time>
      </trkpt>
      <trkpt lat="28.094727" lon="-14.289458">
        <ele>80.978</ele>
        <time>2021-10-30T12:11:20Z</time>
      </trkpt>
      <trkpt lat="28.096322" lon="-14.289763">
        <ele>98.074</ele>
        <time>2021-10-30T12:12:32Z</time>
      </trkpt>
      <trkpt lat="28.098127" lon="-14.289107">
        <ele>91.567</ele>
        <time>2021-10-30T12:13:24Z</time>
      </trkpt>
      <trkpt lat="28.098726" lon="-14.288009">
        <ele>81.048</ele>
        <time>2021-10-30T12:13:34Z</time>
      </trkpt>
      <trkpt lat="28.098532" lon="-14.285088">
        <ele>80.649</ele>
        <time>2021-10-30T12:14:21Z</time>
      </trkpt>
      <trkpt lat="28.098640" lon="-14.284776">
        <ele>79.302</ele>
        <time>2021-10-30T12:14:31Z</time>
      </trkpt>
      <trkpt lat="28.099419" lon="-14.284452">
        <ele>72.122</ele>
        <time>2021-10-30T12:18:24Z</time>
      </trkpt>
      <trkpt lat="28.101422" lon="-14.286379">
        <ele>52.508</ele>
        <time>2021-10-30T12:18:48Z</time>
      </trkpt>
      <trkpt lat="28.101996" lon="-14.286335">
        <ele>52.062</ele>
        <time>2021-10-30T12:18:55Z</time>
      </trkpt>
      <trkpt lat="28.102240" lon="-14.285747">
        <ele>51.562</ele>
        <time>2021-10-30T12:19:03Z</time>
      </trkpt>
      <trkpt lat="28.101948" lon="-14.281917">
        <ele>41.589</ele>
        <time>2021-10-30T12:19:54Z</time>
      </trkpt>
      <trkpt lat="28.101434" lon="-14.280833">
        <ele>42.294</ele>
        <time>2021-10-30T12:20:16Z</time>
      </trkpt>
      <trkpt lat="28.100765" lon="-14.280401">
        <ele>41.074</ele>
        <time>2021-10-30T12:20:31Z</time>
      </trkpt>
      <trkpt lat="28.100480" lon="-14.279921">
        <ele>41.240</ele>
        <time>2021-10-30T12:20:42Z</time>
      </trkpt>
      <trkpt lat="28.100138" lon="-14.277888">
        <ele>48.353</ele>
        <time>2021-10-30T12:22:02Z</time>
      </trkpt>
      <trkpt lat="28.100271" lon="-14.277080">
        <ele>52.294</ele>
        <time>2021-10-30T12:22:26Z</time>
      </trkpt>
      <trkpt lat="28.101850" lon="-14.275094">
        <ele>62.691</ele>
        <time>2021-10-30T12:25:11Z</time>
      </trkpt>
      <trkpt lat="28.103295" lon="-14.275190">
        <ele>65.281</ele>
        <time>2021-10-30T12:29:44Z</time>
      </trkpt>
      <trkpt lat="28.106563" lon="-14.276921">
        <ele>71.319</ele>
        <time>2021-10-30T12:31:15Z</time>
      </trkpt>
      <trkpt lat="28.106841" lon="-14.277605">
        <ele>70.508</ele>
        <time>2021-10-30T12:32:05Z</time>
      </trkpt>
      <trkpt lat="28.106489" lon="-14.277622">
        <ele>71.587</ele>
        <time>2021-10-30T12:34:04Z</time>
      </trkpt>
      <trkpt lat="28.106577" lon="-14.277123">
        <ele>71.297</ele>
        <time>2021-10-30T12:34:14Z</time>
      </trkpt>
      <trkpt lat="28.106203" lon="-14.276651">
        <ele>71.374</ele>
        <time>2021-10-30T12:34:28Z</time>
      </trkpt>
      <trkpt lat="28.103259" lon="-14.275221">
        <ele>65.219</ele>
        <time>2021-10-30T12:35:34Z</time>
      </trkpt>
      <trkpt lat="28.101803" lon="-14.275190">
        <ele>62.239</ele>
        <time>2021-10-30T12:36:19Z</time>
      </trkpt>
      <trkpt lat="28.102709" lon="-14.274958">
        <ele>59.845</ele>
        <time>2021-10-30T12:36:50Z</time>
      </trkpt>
      <trkpt lat="28.104981" lon="-14.275171">
        <ele>51.398</ele>
        <time>2021-10-30T12:38:02Z</time>
      </trkpt>
      <trkpt lat="28.104911" lon="-14.274804">
        <ele>49.049</ele>
        <time>2021-10-30T12:38:14Z</time>
      </trkpt>
      <trkpt lat="28.104149" lon="-14.274422">
        <ele>48.723</ele>
        <time>2021-10-30T12:39:24Z</time>
      </trkpt>
      <trkpt lat="28.104086" lon="-14.273987">
        <ele>42.983</ele>
        <time>2021-10-30T12:40:00Z</time>
      </trkpt>
      <trkpt lat="28.104648" lon="-14.273401">
        <ele>31.411</ele>
        <time>2021-10-30T12:40:54Z</time>
      </trkpt>
      <trkpt lat="28.104701" lon="-14.272957">
        <ele>25.808</ele>
        <time>2021-10-30T12:41:13Z</time>
      </trkpt>
      <trkpt lat="28.104415" lon="-14.272394">
        <ele>17.760</ele>
        <time>2021-10-30T12:41:44Z</time>
      </trkpt>
      <trkpt lat="28.103842" lon="-14.271886">
        <ele>9.940</ele>
        <time>2021-10-30T12:44:04Z</time>
      </trkpt>
      <trkpt lat="28.104664" lon="-14.271863">
        <ele>10.627</ele>
        <time>2021-10-30T12:46:16Z</time>
      </trkpt>
      <trkpt lat="28.105091" lon="-14.272607">
        <ele>20.672</ele>
        <time>2021-10-30T12:49:01Z</time>
      </trkpt>
      <trkpt lat="28.105392" lon="-14.271857">
        <ele>40.722</ele>
        <time>2021-10-30T12:56:33Z</time>
      </trkpt>
      <trkpt lat="28.106269" lon="-14.271461">
        <ele>49.458</ele>
        <time>2021-10-30T13:01:40Z</time>
      </trkpt>
      <trkpt lat="28.108487" lon="-14.269585">
        <ele>23.591</ele>
        <time>2021-10-30T13:07:13Z</time>
      </trkpt>
      <trkpt lat="28.108840" lon="-14.269815">
        <ele>17.232</ele>
        <time>2021-10-30T13:09:15Z</time>
      </trkpt>
      <trkpt lat="28.108917" lon="-14.269120">
        <ele>16.328</ele>
        <time>2021-10-30T13:12:12Z</time>
      </trkpt>
      <trkpt lat="28.108565" lon="-14.268482">
        <ele>12.989</ele>
        <time>2021-10-30T13:12:54Z</time>
      </trkpt>
      <trkpt lat="28.108065" lon="-14.268139">
        <ele>10.817</ele>
        <time>2021-10-30T13:13:22Z</time>
      </trkpt>
      <trkpt lat="28.108199" lon="-14.267650">
        <ele>10.508</ele>
        <time>2021-10-30T13:14:20Z</time>
      </trkpt>
      <trkpt lat="28.109513" lon="-14.266150">
        <ele>7.060</ele>
        <time>2021-10-30T13:17:13Z</time>
      </trkpt>
      <trkpt lat="28.111056" lon="-14.263899">
        <ele>2.640</ele>
        <time>2021-10-30T13:19:29Z</time>
      </trkpt>
      <trkpt lat="28.111488" lon="-14.263559">
        <ele>3.947</ele>
        <time>2021-10-30T13:20:25Z</time>
      </trkpt>
      <trkpt lat="28.112196" lon="-14.263419">
        <ele>6.232</ele>
        <time>2021-10-30T13:21:10Z</time>
      </trkpt>
      <trkpt lat="28.112549" lon="-14.262974">
        <ele>5.552</ele>
        <time>2021-10-30T13:21:31Z</time>
      </trkpt>
      <trkpt lat="28.112872" lon="-14.261852">
        <ele>5.428</ele>
        <time>2021-10-30T13:22:16Z</time>
      </trkpt>
      <trkpt lat="28.113391" lon="-14.261008">
        <ele>5.521</ele>
        <time>2021-10-30T13:22:52Z</time>
      </trkpt>
      <trkpt lat="28.116350" lon="-14.260463">
        <ele>5.242</ele>
        <time>2021-10-30T13:24:55Z</time>
      </trkpt>
      <trkpt lat="28.117312" lon="-14.259713">
        <ele>5.311</ele>
        <time>2021-10-30T13:25:40Z</time>
      </trkpt>
      <trkpt lat="28.120520" lon="-14.258570">
        <ele>5.521</ele>
        <time>2021-10-30T13:31:44Z</time>
      </trkpt>
      <trkpt lat="28.121795" lon="-14.256842">
        <ele>6.003</ele>
        <time>2021-10-30T13:33:20Z</time>
      </trkpt>
      <trkpt lat="28.122835" lon="-14.256157">
        <ele>7.208</ele>
        <time>2021-10-30T13:36:02Z</time>
      </trkpt>
      <trkpt lat="28.123204" lon="-14.255443">
        <ele>11.459</ele>
        <time>2021-10-30T13:37:44Z</time>
      </trkpt>
      <trkpt lat="28.123627" lon="-14.255132">
        <ele>19.199</ele>
        <time>2021-10-30T13:39:16Z</time>
      </trkpt>
      <trkpt lat="28.123501" lon="-14.254824">
        <ele>20.946</ele>
        <time>2021-10-30T13:39:58Z</time>
      </trkpt>
      <trkpt lat="28.123893" lon="-14.254602">
        <ele>22.471</ele>
        <time>2021-10-30T13:41:39Z</time>
      </trkpt>
      <trkpt lat="28.124348" lon="-14.253845">
        <ele>22.881</ele>
        <time>2021-10-30T13:42:23Z</time>
      </trkpt>
      <trkpt lat="28.125907" lon="-14.252942">
        <ele>20.527</ele>
        <time>2021-10-30T13:43:52Z</time>
      </trkpt>
      <trkpt lat="28.126322" lon="-14.252219">
        <ele>16.580</ele>
        <time>2021-10-30T13:44:25Z</time>
      </trkpt>
      <trkpt lat="28.126879" lon="-14.251867">
        <ele>12.851</ele>
        <time>2021-10-30T13:44:52Z</time>
      </trkpt>
      <trkpt lat="28.127129" lon="-14.251449">
        <ele>13.199</ele>
        <time>2021-10-30T13:45:12Z</time>
      </trkpt>
      <trkpt lat="28.130038" lon="-14.250610">
        <ele>16.207</ele>
        <time>2021-10-30T13:47:19Z</time>
      </trkpt>
      <trkpt lat="28.130450" lon="-14.250253">
        <ele>19.327</ele>
        <time>2021-10-30T13:48:05Z</time>
      </trkpt>
      <trkpt lat="28.131430" lon="-14.250169">
        <ele>22.408</ele>
        <time>2021-10-30T13:49:35Z</time>
      </trkpt>
      <trkpt lat="28.132623" lon="-14.249633">
        <ele>23.717</ele>
        <time>2021-10-30T13:50:09Z</time>
      </trkpt>
      <trkpt lat="28.133016" lon="-14.249258">
        <ele>22.677</ele>
        <time>2021-10-30T13:50:24Z</time>
      </trkpt>
      <trkpt lat="28.134653" lon="-14.248728">
        <ele>24.684</ele>
        <time>2021-10-30T13:51:12Z</time>
      </trkpt>
      <trkpt lat="28.135406" lon="-14.248139">
        <ele>22.449</ele>
        <time>2021-10-30T13:52:01Z</time>
      </trkpt>
      <trkpt lat="28.137020" lon="-14.247887">
        <ele>20.219</ele>
        <time>2021-10-30T13:52:48Z</time>
      </trkpt>
      <trkpt lat="28.137020" lon="-14.246814">
        <ele>27.665</ele>
        <time>2021-10-30T13:54:32Z</time>
      </trkpt>
      <trkpt lat="28.137665" lon="-14.246225">
        <ele>31.668</ele>
        <time>2021-10-30T13:55:16Z</time>
      </trkpt>
      <trkpt lat="28.137622" lon="-14.244272">
        <ele>27.089</ele>
        <time>2021-10-30T13:56:07Z</time>
      </trkpt>
      <trkpt lat="28.138093" lon="-14.243793">
        <ele>29.699</ele>
        <time>2021-10-30T13:56:28Z</time>
      </trkpt>
      <trkpt lat="28.138818" lon="-14.242435">
        <ele>27.007</ele>
        <time>2021-10-30T13:57:12Z</time>
      </trkpt>
      <trkpt lat="28.138618" lon="-14.242161">
        <ele>25.827</ele>
        <time>2021-10-30T13:57:26Z</time>
      </trkpt>
      <trkpt lat="28.138954" lon="-14.242125">
        <ele>24.808</ele>
        <time>2021-10-30T13:58:55Z</time>
      </trkpt>
      <trkpt lat="28.139254" lon="-14.241178">
        <ele>18.667</ele>
        <time>2021-10-30T13:59:18Z</time>
      </trkpt>
      <trkpt lat="28.140068" lon="-14.240231">
        <ele>27.467</ele>
        <time>2021-10-30T13:59:59Z</time>
      </trkpt>
      <trkpt lat="28.141139" lon="-14.239679">
        <ele>32.244</ele>
        <time>2021-10-30T14:00:38Z</time>
      </trkpt>
      <trkpt lat="28.142359" lon="-14.239967">
        <ele>40.919</ele>
        <time>2021-10-30T14:01:38Z</time>
      </trkpt>
      <trkpt lat="28.142912" lon="-14.239860">
        <ele>39.739</ele>
        <time>2021-10-30T14:01:58Z</time>
      </trkpt>
      <trkpt lat="28.143486" lon="-14.239441">
        <ele>36.345</ele>
        <time>2021-10-30T14:02:11Z</time>
      </trkpt>
      <trkpt lat="28.144579" lon="-14.239055">
        <ele>35.218</ele>
        <time>2021-10-30T14:02:32Z</time>
      </trkpt>
      <trkpt lat="28.146152" lon="-14.237900">
        <ele>29.779</ele>
        <time>2021-10-30T14:03:15Z</time>
      </trkpt>
      <trkpt lat="28.149356" lon="-14.236730">
        <ele>46.644</ele>
        <time>2021-10-30T14:05:11Z</time>
      </trkpt>
      <trkpt lat="28.148803" lon="-14.236280">
        <ele>41.405</ele>
        <time>2021-10-30T14:05:54Z</time>
      </trkpt>
      <trkpt lat="28.149115" lon="-14.235409">
        <ele>46.215</ele>
        <time>2021-10-30T14:06:21Z</time>
      </trkpt>
      <trkpt lat="28.150984" lon="-14.232481">
        <ele>39.408</ele>
        <time>2021-10-30T14:07:25Z</time>
      </trkpt>
      <trkpt lat="28.153624" lon="-14.230664">
        <ele>33.242</ele>
        <time>2021-10-30T14:08:18Z</time>
      </trkpt>
      <trkpt lat="28.153951" lon="-14.230876">
        <ele>33.122</ele>
        <time>2021-10-30T14:08:25Z</time>
      </trkpt>
      <trkpt lat="28.154748" lon="-14.232326">
        <ele>41.499</ele>
        <time>2021-10-30T14:09:15Z</time>
      </trkpt>
      <trkpt lat="28.156809" lon="-14.232963">
        <ele>51.074</ele>
        <time>2021-10-30T14:10:24Z</time>
      </trkpt>
      <trkpt lat="28.160131" lon="-14.230193">
        <ele>37.544</ele>
        <time>2021-10-30T14:12:49Z</time>
      </trkpt>
      <trkpt lat="28.159316" lon="-14.228558">
        <ele>30.260</ele>
        <time>2021-10-30T14:13:32Z</time>
      </trkpt>
      <trkpt lat="28.159087" lon="-14.228710">
        <ele>29.953</ele>
        <time>2021-10-30T14:13:50Z</time>
      </trkpt>
      <trkpt lat="28.159323" lon="-14.228989">
        <ele>29.884</ele>
        <time>2021-10-30T15:06:22Z</time>
      </trkpt>
      <trkpt lat="28.159077" lon="-14.228695">
        <ele>29.827</ele>
        <time>2021-10-30T15:11:32Z</time>
      </trkpt>
      <trkpt lat="28.159195" lon="-14.228558">
        <ele>29.868</ele>
        <time>2021-10-30T15:11:48Z</time>
      </trkpt>
      <trkpt lat="28.158962" lon="-14.228650">
        <ele>29.814</ele>
        <time>2021-10-30T15:12:35Z</time>
      </trkpt>
      <trkpt lat="28.159017" lon="-14.228479">
        <ele>29.808</ele>
        <time>2021-10-30T15:13:17Z</time>
      </trkpt>
      <trkpt lat="28.158832" lon="-14.228419">
        <ele>29.860</ele>
        <time>2021-10-30T15:13:38Z</time>
      </trkpt>
      <trkpt lat="28.159089" lon="-14.228643">
        <ele>29.860</ele>
        <time>2021-10-30T15:15:01Z</time>
      </trkpt>
      <trkpt lat="28.159043" lon="-14.228405">
        <ele>29.847</ele>
        <time>2021-10-30T15:15:21Z</time>
      </trkpt>
      <trkpt lat="28.158965" lon="-14.228683">
        <ele>29.832</ele>
        <time>2021-10-30T15:15:31Z</time>
      </trkpt>
      <trkpt lat="28.159244" lon="-14.228539">
        <ele>29.962</ele>
        <time>2021-10-30T15:27:20Z</time>
      </trkpt>
      <trkpt lat="28.160227" lon="-14.230151">
        <ele>37.318</ele>
        <time>2021-10-30T15:28:07Z</time>
      </trkpt>
      <trkpt lat="28.165530" lon="-14.222947">
        <ele>21.191</ele>
        <time>2021-10-30T15:30:54Z</time>
      </trkpt>
      <trkpt lat="28.166861" lon="-14.221661">
        <ele>11.532</ele>
        <time>2021-10-30T15:31:11Z</time>
      </trkpt>
      <trkpt lat="28.167265" lon="-14.220977">
        <ele>11.061</ele>
        <time>2021-10-30T15:31:20Z</time>
      </trkpt>
      <trkpt lat="28.168094" lon="-14.221010">
        <ele>10.821</ele>
        <time>2021-10-30T15:31:37Z</time>
      </trkpt>
      <trkpt lat="28.170324" lon="-14.217429">
        <ele>22.313</ele>
        <time>2021-10-30T15:33:13Z</time>
      </trkpt>
      <trkpt lat="28.171911" lon="-14.213333">
        <ele>46.708</ele>
        <time>2021-10-30T15:34:56Z</time>
      </trkpt>
      <trkpt lat="28.173933" lon="-14.210090">
        <ele>32.494</ele>
        <time>2021-10-30T15:36:14Z</time>
      </trkpt>
      <trkpt lat="28.174349" lon="-14.208354">
        <ele>24.234</ele>
        <time>2021-10-30T15:36:32Z</time>
      </trkpt>
      <trkpt lat="28.175624" lon="-14.209029">
        <ele>23.511</ele>
        <time>2021-10-30T15:36:55Z</time>
      </trkpt>
      <trkpt lat="28.176025" lon="-14.208961">
        <ele>23.216</ele>
        <time>2021-10-30T15:37:03Z</time>
      </trkpt>
      <trkpt lat="28.176305" lon="-14.209241">
        <ele>24.526</ele>
        <time>2021-10-30T15:37:10Z</time>
      </trkpt>
      <trkpt lat="28.177383" lon="-14.209619">
        <ele>25.342</ele>
        <time>2021-10-30T15:37:31Z</time>
      </trkpt>
      <trkpt lat="28.185893" lon="-14.216847">
        <ele>48.585</ele>
        <time>2021-10-30T15:41:41Z</time>
      </trkpt>
      <trkpt lat="28.193382" lon="-14.221158">
        <ele>67.956</ele>
        <time>2021-10-30T15:45:02Z</time>
      </trkpt>
      <trkpt lat="28.206512" lon="-14.218165">
        <ele>99.531</ele>
        <time>2021-10-30T15:56:22Z</time>
      </trkpt>
      <trkpt lat="28.206972" lon="-14.217663">
        <ele>95.561</ele>
        <time>2021-10-30T15:56:29Z</time>
      </trkpt>
      <trkpt lat="28.207758" lon="-14.215055">
        <ele>86.407</ele>
        <time>2021-10-30T15:57:29Z</time>
      </trkpt>
      <trkpt lat="28.209468" lon="-14.212016">
        <ele>89.108</ele>
        <time>2021-10-30T15:58:19Z</time>
      </trkpt>
      <trkpt lat="28.209596" lon="-14.212117">
        <ele>88.861</ele>
        <time>2021-10-30T15:58:25Z</time>
      </trkpt>
      <trkpt lat="28.209480" lon="-14.212407">
        <ele>87.571</ele>
        <time>2021-10-30T15:59:07Z</time>
      </trkpt>
      <trkpt lat="28.209884" lon="-14.211396">
        <ele>79.968</ele>
        <time>2021-10-30T15:59:34Z</time>
      </trkpt>
      <trkpt lat="28.210839" lon="-14.210016">
        <ele>66.683</ele>
        <time>2021-10-30T15:59:48Z</time>
      </trkpt>
      <trkpt lat="28.216418" lon="-14.211549">
        <ele>54.053</ele>
        <time>2021-10-30T16:01:21Z</time>
      </trkpt>
      <trkpt lat="28.217155" lon="-14.213995">
        <ele>52.929</ele>
        <time>2021-10-30T16:02:06Z</time>
      </trkpt>
      <trkpt lat="28.219767" lon="-14.214462">
        <ele>48.472</ele>
        <time>2021-10-30T16:02:56Z</time>
      </trkpt>
      <trkpt lat="28.222329" lon="-14.212617">
        <ele>56.423</ele>
        <time>2021-10-30T16:04:04Z</time>
      </trkpt>
      <trkpt lat="28.223965" lon="-14.210572">
        <ele>58.798</ele>
        <time>2021-10-30T16:04:55Z</time>
      </trkpt>
      <trkpt lat="28.225928" lon="-14.207199">
        <ele>67.115</ele>
        <time>2021-10-30T16:06:14Z</time>
      </trkpt>
      <trkpt lat="28.225943" lon="-14.207393">
        <ele>66.426</ele>
        <time>2021-10-30T16:06:34Z</time>
      </trkpt>
      <trkpt lat="28.226988" lon="-14.205940">
        <ele>58.508</ele>
        <time>2021-10-30T16:07:46Z</time>
      </trkpt>
      <trkpt lat="28.228966" lon="-14.204361">
        <ele>64.337</ele>
        <time>2021-10-30T16:08:33Z</time>
      </trkpt>
      <trkpt lat="28.230542" lon="-14.202479">
        <ele>70.287</ele>
        <time>2021-10-30T16:09:26Z</time>
      </trkpt>
      <trkpt lat="28.237170" lon="-14.198284">
        <ele>75.894</ele>
        <time>2021-10-30T16:11:55Z</time>
      </trkpt>
      <trkpt lat="28.241191" lon="-14.197677">
        <ele>80.489</ele>
        <time>2021-10-30T16:13:32Z</time>
      </trkpt>
      <trkpt lat="28.241507" lon="-14.198056">
        <ele>80.229</ele>
        <time>2021-10-30T16:13:47Z</time>
      </trkpt>
      <trkpt lat="28.241186" lon="-14.197945">
        <ele>80.115</ele>
        <time>2021-10-30T16:14:08Z</time>
      </trkpt>
      <trkpt lat="28.241379" lon="-14.197641">
        <ele>80.748</ele>
        <time>2021-10-30T16:16:02Z</time>
      </trkpt>
      <trkpt lat="28.242531" lon="-14.197362">
        <ele>84.069</ele>
        <time>2021-10-30T16:16:30Z</time>
      </trkpt>
      <trkpt lat="28.250121" lon="-14.193309">
        <ele>108.425</ele>
        <time>2021-10-30T16:19:53Z</time>
      </trkpt>
      <trkpt lat="28.250828" lon="-14.192531">
        <ele>116.026</ele>
        <time>2021-10-30T16:20:28Z</time>
      </trkpt>
      <trkpt lat="28.251609" lon="-14.190813">
        <ele>122.908</ele>
        <time>2021-10-30T16:21:24Z</time>
      </trkpt>
      <trkpt lat="28.253585" lon="-14.188189">
        <ele>123.608</ele>
        <time>2021-10-30T16:25:02Z</time>
      </trkpt>
      <trkpt lat="28.255947" lon="-14.185869">
        <ele>134.290</ele>
        <time>2021-10-30T16:26:17Z</time>
      </trkpt>
      <trkpt lat="28.257467" lon="-14.184698">
        <ele>143.570</ele>
        <time>2021-10-30T16:27:15Z</time>
      </trkpt>
      <trkpt lat="28.257774" lon="-14.184116">
        <ele>144.857</ele>
        <time>2021-10-30T16:27:31Z</time>
      </trkpt>
      <trkpt lat="28.257705" lon="-14.183848">
        <ele>145.652</ele>
        <time>2021-10-30T16:28:06Z</time>
      </trkpt>
      <trkpt lat="28.258599" lon="-14.182626">
        <ele>150.182</ele>
        <time>2021-10-30T16:28:42Z</time>
      </trkpt>
      <trkpt lat="28.259276" lon="-14.179879">
        <ele>165.168</ele>
        <time>2021-10-30T16:30:01Z</time>
      </trkpt>
      <trkpt lat="28.259509" lon="-14.179511">
        <ele>168.251</ele>
        <time>2021-10-30T16:30:16Z</time>
      </trkpt>
      <trkpt lat="28.262766" lon="-14.177546">
        <ele>187.852</ele>
        <time>2021-10-30T16:32:26Z</time>
      </trkpt>
      <trkpt lat="28.266804" lon="-14.175803">
        <ele>206.124</ele>
        <time>2021-10-30T16:35:07Z</time>
      </trkpt>
      <trkpt lat="28.269263" lon="-14.173457">
        <ele>223.804</ele>
        <time>2021-10-30T16:36:58Z</time>
      </trkpt>
      <trkpt lat="28.274519" lon="-14.169654">
        <ele>268.714</ele>
        <time>2021-10-30T16:41:04Z</time>
      </trkpt>
      <trkpt lat="28.285016" lon="-14.159471">
        <ele>364.008</ele>
        <time>2021-10-30T16:53:40Z</time>
      </trkpt>
      <trkpt lat="28.285384" lon="-14.159465">
        <ele>366.960</ele>
        <time>2021-10-30T16:53:56Z</time>
      </trkpt>
      <trkpt lat="28.285484" lon="-14.159888">
        <ele>369.980</ele>
        <time>2021-10-30T16:54:11Z</time>
      </trkpt>
      <trkpt lat="28.284959" lon="-14.161460">
        <ele>384.237</ele>
        <time>2021-10-30T16:55:20Z</time>
      </trkpt>
      <trkpt lat="28.286878" lon="-14.161375">
        <ele>399.832</ele>
        <time>2021-10-30T16:56:51Z</time>
      </trkpt>
      <trkpt lat="28.287163" lon="-14.161989">
        <ele>404.352</ele>
        <time>2021-10-30T16:57:17Z</time>
      </trkpt>
      <trkpt lat="28.288130" lon="-14.162273">
        <ele>405.148</ele>
        <time>2021-10-30T16:57:52Z</time>
      </trkpt>
      <trkpt lat="28.287317" lon="-14.161717">
        <ele>409.251</ele>
        <time>2021-10-30T16:59:58Z</time>
      </trkpt>
      <trkpt lat="28.288148" lon="-14.160708">
        <ele>414.412</ele>
        <time>2021-10-30T17:01:19Z</time>
      </trkpt>
      <trkpt lat="28.288156" lon="-14.160115">
        <ele>420.447</ele>
        <time>2021-10-30T17:02:14Z</time>
      </trkpt>
      <trkpt lat="28.287944" lon="-14.159887">
        <ele>421.829</ele>
        <time>2021-10-30T17:02:50Z</time>
      </trkpt>
      <trkpt lat="28.288067" lon="-14.159802">
        <ele>421.821</ele>
        <time>2021-10-30T17:04:40Z</time>
      </trkpt>
      <trkpt lat="28.287946" lon="-14.159922">
        <ele>418.908</ele>
        <time>2021-10-30T17:07:07Z</time>
      </trkpt>
      <trkpt lat="28.288269" lon="-14.160442">
        <ele>412.982</ele>
        <time>2021-10-30T17:10:09Z</time>
      </trkpt>
      <trkpt lat="28.287769" lon="-14.161186">
        <ele>410.842</ele>
        <time>2021-10-30T17:10:42Z</time>
      </trkpt>
      <trkpt lat="28.287405" lon="-14.161300">
        <ele>409.069</ele>
        <time>2021-10-30T17:11:52Z</time>
      </trkpt>
      <trkpt lat="28.287524" lon="-14.161343">
        <ele>408.624</ele>
        <time>2021-10-30T17:11:59Z</time>
      </trkpt>
      <trkpt lat="28.287356" lon="-14.161803">
        <ele>406.824</ele>
        <time>2021-10-30T17:12:29Z</time>
      </trkpt>
      <trkpt lat="28.288504" lon="-14.162414">
        <ele>405.040</ele>
        <time>2021-10-30T17:14:28Z</time>
      </trkpt>
      <trkpt lat="28.288499" lon="-14.162600">
        <ele>404.923</ele>
        <time>2021-10-30T17:14:44Z</time>
      </trkpt>
      <trkpt lat="28.289045" lon="-14.162565">
        <ele>403.934</ele>
        <time>2021-10-30T17:16:14Z</time>
      </trkpt>
      <trkpt lat="28.290399" lon="-14.161998">
        <ele>402.091</ele>
        <time>2021-10-30T17:16:40Z</time>
      </trkpt>
      <trkpt lat="28.291460" lon="-14.161806">
        <ele>399.381</ele>
        <time>2021-10-30T17:16:58Z</time>
      </trkpt>
      <trkpt lat="28.292674" lon="-14.161214">
        <ele>390.319</ele>
        <time>2021-10-30T17:17:16Z</time>
      </trkpt>
      <trkpt lat="28.294443" lon="-14.159523">
        <ele>366.108</ele>
        <time>2021-10-30T17:17:36Z</time>
      </trkpt>
      <trkpt lat="28.295544" lon="-14.157909">
        <ele>352.517</ele>
        <time>2021-10-30T17:17:51Z</time>
      </trkpt>
      <trkpt lat="28.298431" lon="-14.157757">
        <ele>327.247</ele>
        <time>2021-10-30T17:18:20Z</time>
      </trkpt>
      <trkpt lat="28.299537" lon="-14.157240">
        <ele>323.314</ele>
        <time>2021-10-30T17:18:34Z</time>
      </trkpt>
      <trkpt lat="28.299733" lon="-14.156943">
        <ele>322.689</ele>
        <time>2021-10-30T17:18:39Z</time>
      </trkpt>
      <trkpt lat="28.299644" lon="-14.156067">
        <ele>314.329</ele>
        <time>2021-10-30T17:20:06Z</time>
      </trkpt>
      <trkpt lat="28.301070" lon="-14.153539">
        <ele>294.045</ele>
        <time>2021-10-30T17:20:35Z</time>
      </trkpt>
      <trkpt lat="28.300912" lon="-14.153272">
        <ele>290.258</ele>
        <time>2021-10-30T17:20:39Z</time>
      </trkpt>
      <trkpt lat="28.300541" lon="-14.153270">
        <ele>284.329</ele>
        <time>2021-10-30T17:20:43Z</time>
      </trkpt>
      <trkpt lat="28.299316" lon="-14.153855">
        <ele>273.073</ele>
        <time>2021-10-30T17:20:55Z</time>
      </trkpt>
      <trkpt lat="28.299142" lon="-14.153286">
        <ele>266.485</ele>
        <time>2021-10-30T17:21:02Z</time>
      </trkpt>
      <trkpt lat="28.299402" lon="-14.152657">
        <ele>262.313</ele>
        <time>2021-10-30T17:21:09Z</time>
      </trkpt>
      <trkpt lat="28.298517" lon="-14.152339">
        <ele>254.308</ele>
        <time>2021-10-30T17:21:20Z</time>
      </trkpt>
      <trkpt lat="28.298443" lon="-14.151809">
        <ele>251.175</ele>
        <time>2021-10-30T17:21:26Z</time>
      </trkpt>
      <trkpt lat="28.299874" lon="-14.151511">
        <ele>239.125</ele>
        <time>2021-10-30T17:21:43Z</time>
      </trkpt>
      <trkpt lat="28.302376" lon="-14.150051">
        <ele>223.512</ele>
        <time>2021-10-30T17:22:10Z</time>
      </trkpt>
      <trkpt lat="28.303471" lon="-14.150549">
        <ele>217.477</ele>
        <time>2021-10-30T17:22:22Z</time>
      </trkpt>
      <trkpt lat="28.304799" lon="-14.151649">
        <ele>208.127</ele>
        <time>2021-10-30T17:22:40Z</time>
      </trkpt>
      <trkpt lat="28.306035" lon="-14.151138">
        <ele>199.783</ele>
        <time>2021-10-30T17:22:55Z</time>
      </trkpt>
      <trkpt lat="28.307594" lon="-14.149990">
        <ele>194.116</ele>
        <time>2021-10-30T17:23:15Z</time>
      </trkpt>
      <trkpt lat="28.309902" lon="-14.147326">
        <ele>201.577</ele>
        <time>2021-10-30T17:28:56Z</time>
      </trkpt>
      <trkpt lat="28.310689" lon="-14.145560">
        <ele>215.857</ele>
        <time>2021-10-30T17:29:48Z</time>
      </trkpt>
      <trkpt lat="28.311991" lon="-14.143828">
        <ele>230.100</ele>
        <time>2021-10-30T17:31:16Z</time>
      </trkpt>
      <trkpt lat="28.314810" lon="-14.142177">
        <ele>241.920</ele>
        <time>2021-10-30T17:32:45Z</time>
      </trkpt>
      <trkpt lat="28.316113" lon="-14.142198">
        <ele>253.208</ele>
        <time>2021-10-30T17:33:43Z</time>
      </trkpt>
      <trkpt lat="28.316396" lon="-14.140799">
        <ele>262.213</ele>
        <time>2021-10-30T17:34:27Z</time>
      </trkpt>
      <trkpt lat="28.317170" lon="-14.140457">
        <ele>267.273</ele>
        <time>2021-10-30T17:34:59Z</time>
      </trkpt>
      <trkpt lat="28.317465" lon="-14.139953">
        <ele>269.540</ele>
        <time>2021-10-30T17:35:21Z</time>
      </trkpt>
      <trkpt lat="28.318496" lon="-14.139320">
        <ele>272.165</ele>
        <time>2021-10-30T17:36:17Z</time>
      </trkpt>
      <trkpt lat="28.321053" lon="-14.138962">
        <ele>258.615</ele>
        <time>2021-10-30T17:36:54Z</time>
      </trkpt>
      <trkpt lat="28.323021" lon="-14.138094">
        <ele>249.761</ele>
        <time>2021-10-30T17:37:18Z</time>
      </trkpt>
      <trkpt lat="28.325082" lon="-14.139011">
        <ele>237.114</ele>
        <time>2021-10-30T17:37:44Z</time>
      </trkpt>
      <trkpt lat="28.325973" lon="-14.139093">
        <ele>229.245</ele>
        <time>2021-10-30T17:37:53Z</time>
      </trkpt>
      <trkpt lat="28.328254" lon="-14.138592">
        <ele>209.469</ele>
        <time>2021-10-30T17:38:14Z</time>
      </trkpt>
      <trkpt lat="28.329532" lon="-14.137868">
        <ele>201.004</ele>
        <time>2021-10-30T17:38:27Z</time>
      </trkpt>
      <trkpt lat="28.331195" lon="-14.137743">
        <ele>189.124</ele>
        <time>2021-10-30T17:38:43Z</time>
      </trkpt>
      <trkpt lat="28.336572" lon="-14.138904">
        <ele>153.708</ele>
        <time>2021-10-30T17:39:36Z</time>
      </trkpt>
      <trkpt lat="28.338049" lon="-14.140276">
        <ele>154.374</ele>
        <time>2021-10-30T17:40:15Z</time>
      </trkpt>
      <trkpt lat="28.339320" lon="-14.140896">
        <ele>152.154</ele>
        <time>2021-10-30T17:40:40Z</time>
      </trkpt>
      <trkpt lat="28.340553" lon="-14.139540">
        <ele>146.851</ele>
        <time>2021-10-30T17:41:05Z</time>
      </trkpt>
      <trkpt lat="28.342627" lon="-14.139032">
        <ele>149.546</ele>
        <time>2021-10-30T17:41:54Z</time>
      </trkpt>
      <trkpt lat="28.348811" lon="-14.136070">
        <ele>150.526</ele>
        <time>2021-10-30T17:44:09Z</time>
      </trkpt>
      <trkpt lat="28.350138" lon="-14.134464">
        <ele>164.542</ele>
        <time>2021-10-30T17:45:20Z</time>
      </trkpt>
      <trkpt lat="28.351174" lon="-14.132454">
        <ele>178.865</ele>
        <time>2021-10-30T17:46:37Z</time>
      </trkpt>
      <trkpt lat="28.353281" lon="-14.129397">
        <ele>200.956</ele>
        <time>2021-10-30T17:49:31Z</time>
      </trkpt>
      <trkpt lat="28.353311" lon="-14.126859">
        <ele>194.436</ele>
        <time>2021-10-30T17:50:10Z</time>
      </trkpt>
      <trkpt lat="28.352769" lon="-14.124744">
        <ele>184.617</ele>
        <time>2021-10-30T17:50:29Z</time>
      </trkpt>
      <trkpt lat="28.354201" lon="-14.121716">
        <ele>182.318</ele>
        <time>2021-10-30T17:51:07Z</time>
      </trkpt>
      <trkpt lat="28.354202" lon="-14.121305">
        <ele>181.108</ele>
        <time>2021-10-30T17:51:12Z</time>
      </trkpt>
      <trkpt lat="28.353687" lon="-14.120028">
        <ele>176.871</ele>
        <time>2021-10-30T17:51:30Z</time>
      </trkpt>
      <trkpt lat="28.355330" lon="-14.120940">
        <ele>173.611</ele>
        <time>2021-10-30T17:52:00Z</time>
      </trkpt>
      <trkpt lat="28.356800" lon="-14.122339">
        <ele>170.478</ele>
        <time>2021-10-30T17:52:29Z</time>
      </trkpt>
      <trkpt lat="28.358547" lon="-14.122537">
        <ele>168.143</ele>
        <time>2021-10-30T17:52:56Z</time>
      </trkpt>
      <trkpt lat="28.361387" lon="-14.124067">
        <ele>153.933</ele>
        <time>2021-10-30T17:53:37Z</time>
      </trkpt>
      <trkpt lat="28.363522" lon="-14.124466">
        <ele>151.629</ele>
        <time>2021-10-30T17:54:06Z</time>
      </trkpt>
      <trkpt lat="28.366881" lon="-14.122795">
        <ele>146.352</ele>
        <time>2021-10-30T17:55:01Z</time>
      </trkpt>
      <trkpt lat="28.370425" lon="-14.122553">
        <ele>140.833</ele>
        <time>2021-10-30T17:55:55Z</time>
      </trkpt>
      <trkpt lat="28.372999" lon="-14.122759">
        <ele>148.566</ele>
        <time>2021-10-30T17:57:06Z</time>
      </trkpt>
      <trkpt lat="28.377070" lon="-14.120521">
        <ele>132.129</ele>
        <time>2021-10-30T17:58:18Z</time>
      </trkpt>
      <trkpt lat="28.379337" lon="-14.119958">
        <ele>133.521</ele>
        <time>2021-10-30T17:58:55Z</time>
      </trkpt>
      <trkpt lat="28.382095" lon="-14.120128">
        <ele>139.408</ele>
        <time>2021-10-30T17:59:59Z</time>
      </trkpt>
      <trkpt lat="28.387333" lon="-14.122883">
        <ele>124.484</ele>
        <time>2021-10-30T18:03:05Z</time>
      </trkpt>
      <trkpt lat="28.393729" lon="-14.127722">
        <ele>69.964</ele>
        <time>2021-10-30T18:04:20Z</time>
      </trkpt>
      <trkpt lat="28.396289" lon="-14.130496">
        <ele>61.691</ele>
        <time>2021-10-30T18:05:08Z</time>
      </trkpt>
      <trkpt lat="28.399036" lon="-14.132392">
        <ele>55.966</ele>
        <time>2021-10-30T18:05:58Z</time>
      </trkpt>
      <trkpt lat="28.399858" lon="-14.134824">
        <ele>67.576</ele>
        <time>2021-10-30T18:06:59Z</time>
      </trkpt>
      <trkpt lat="28.400010" lon="-14.137199">
        <ele>56.172</ele>
        <time>2021-10-30T18:07:21Z</time>
      </trkpt>
      <trkpt lat="28.399604" lon="-14.143102">
        <ele>34.775</ele>
        <time>2021-10-30T18:08:11Z</time>
      </trkpt>
      <trkpt lat="28.399858" lon="-14.146392">
        <ele>28.796</ele>
        <time>2021-10-30T18:08:43Z</time>
      </trkpt>
      <trkpt lat="28.399867" lon="-14.153402">
        <ele>26.161</ele>
        <time>2021-10-30T18:10:13Z</time>
      </trkpt>
      <trkpt lat="28.400087" lon="-14.154439">
        <ele>22.321</ele>
        <time>2021-10-30T18:10:25Z</time>
      </trkpt>
      <trkpt lat="28.399884" lon="-14.154723">
        <ele>20.213</ele>
        <time>2021-10-30T18:10:32Z</time>
      </trkpt>
      <trkpt lat="28.399922" lon="-14.155527">
        <ele>12.608</ele>
        <time>2021-10-30T18:10:52Z</time>
      </trkpt>
      <trkpt lat="28.400316" lon="-14.155587">
        <ele>12.454</ele>
        <time>2021-10-30T18:11:05Z</time>
      </trkpt>
      <trkpt lat="28.400369" lon="-14.155109">
        <ele>12.714</ele>
        <time>2021-10-30T18:11:26Z</time>
      </trkpt>
      <trkpt lat="28.400451" lon="-14.155772">
        <ele>11.711</ele>
        <time>2021-10-30T18:11:38Z</time>
      </trkpt>
      <trkpt lat="28.399925" lon="-14.156706">
        <ele>9.546</ele>
        <time>2021-10-30T18:18:39Z</time>
      </trkpt>
      <trkpt lat="28.399748" lon="-14.154685">
        <ele>20.714</ele>
        <time>2021-10-31T08:18:11Z</time>
      </trkpt>
      <trkpt lat="28.399622" lon="-14.154457">
        <ele>21.354</ele>
        <time>2021-10-31T08:18:25Z</time>
      </trkpt>
      <trkpt lat="28.399814" lon="-14.153362">
        <ele>26.209</ele>
        <time>2021-10-31T08:19:05Z</time>
      </trkpt>
      <trkpt lat="28.399862" lon="-14.146578">
        <ele>28.608</ele>
        <time>2021-10-31T08:22:14Z</time>
      </trkpt>
      <trkpt lat="28.399520" lon="-14.143333">
        <ele>33.319</ele>
        <time>2021-10-31T08:23:32Z</time>
      </trkpt>
      <trkpt lat="28.399900" lon="-14.136682">
        <ele>59.079</ele>
        <time>2021-10-31T08:27:28Z</time>
      </trkpt>
      <trkpt lat="28.399628" lon="-14.134194">
        <ele>68.936</ele>
        <time>2021-10-31T08:28:57Z</time>
      </trkpt>
      <trkpt lat="28.399145" lon="-14.132763">
        <ele>58.781</ele>
        <time>2021-10-31T08:29:20Z</time>
      </trkpt>
      <trkpt lat="28.398680" lon="-14.132166">
        <ele>54.241</ele>
        <time>2021-10-31T08:29:28Z</time>
      </trkpt>
      <trkpt lat="28.396300" lon="-14.130692">
        <ele>61.248</ele>
        <time>2021-10-31T08:30:43Z</time>
      </trkpt>
      <trkpt lat="28.393621" lon="-14.127800">
        <ele>70.115</ele>
        <time>2021-10-31T08:32:30Z</time>
      </trkpt>
      <trkpt lat="28.387065" lon="-14.122795">
        <ele>126.547</ele>
        <time>2021-10-31T08:38:27Z</time>
      </trkpt>
      <trkpt lat="28.381663" lon="-14.120132">
        <ele>135.732</ele>
        <time>2021-10-31T08:42:43Z</time>
      </trkpt>
      <trkpt lat="28.378785" lon="-14.120072">
        <ele>131.892</ele>
        <time>2021-10-31T08:43:29Z</time>
      </trkpt>
      <trkpt lat="28.375871" lon="-14.121258">
        <ele>144.011</ele>
        <time>2021-10-31T08:44:58Z</time>
      </trkpt>
      <trkpt lat="28.373880" lon="-14.122417">
        <ele>148.508</ele>
        <time>2021-10-31T08:46:14Z</time>
      </trkpt>
      <trkpt lat="28.373040" lon="-14.122646">
        <ele>148.541</ele>
        <time>2021-10-31T08:46:34Z</time>
      </trkpt>
      <trkpt lat="28.369896" lon="-14.122616">
        <ele>139.931</ele>
        <time>2021-10-31T08:47:21Z</time>
      </trkpt>
      <trkpt lat="28.366918" lon="-14.122911">
        <ele>146.388</ele>
        <time>2021-10-31T08:48:40Z</time>
      </trkpt>
      <trkpt lat="28.363475" lon="-14.124523">
        <ele>151.723</ele>
        <time>2021-10-31T08:50:20Z</time>
      </trkpt>
      <trkpt lat="28.360916" lon="-14.123914">
        <ele>156.763</ele>
        <time>2021-10-31T08:51:26Z</time>
      </trkpt>
      <trkpt lat="28.358329" lon="-14.122496">
        <ele>168.670</ele>
        <time>2021-10-31T08:53:02Z</time>
      </trkpt>
      <trkpt lat="28.356644" lon="-14.122319">
        <ele>170.577</ele>
        <time>2021-10-31T08:53:46Z</time>
      </trkpt>
      <trkpt lat="28.355455" lon="-14.121155">
        <ele>173.369</ele>
        <time>2021-10-31T08:54:24Z</time>
      </trkpt>
      <trkpt lat="28.353227" lon="-14.119706">
        <ele>177.334</ele>
        <time>2021-10-31T08:55:28Z</time>
      </trkpt>
      <trkpt lat="28.350551" lon="-14.114675">
        <ele>194.955</ele>
        <time>2021-10-31T08:58:14Z</time>
      </trkpt>
      <trkpt lat="28.349774" lon="-14.111462">
        <ele>201.210</ele>
        <time>2021-10-31T09:00:15Z</time>
      </trkpt>
      <trkpt lat="28.349806" lon="-14.111691">
        <ele>201.308</ele>
        <time>2021-10-31T09:00:30Z</time>
      </trkpt>
      <trkpt lat="28.349935" lon="-14.108241">
        <ele>203.431</ele>
        <time>2021-10-31T09:05:53Z</time>
      </trkpt>
      <trkpt lat="28.350025" lon="-14.108457">
        <ele>203.261</ele>
        <time>2021-10-31T09:07:03Z</time>
      </trkpt>
      <trkpt lat="28.350157" lon="-14.107962">
        <ele>202.728</ele>
        <time>2021-10-31T09:08:16Z</time>
      </trkpt>
      <trkpt lat="28.350668" lon="-14.107592">
        <ele>202.243</ele>
        <time>2021-10-31T09:09:28Z</time>
      </trkpt>
      <trkpt lat="28.350355" lon="-14.107710">
        <ele>202.213</ele>
        <time>2021-10-31T09:11:44Z</time>
      </trkpt>
      <trkpt lat="28.350539" lon="-14.107142">
        <ele>202.360</ele>
        <time>2021-10-31T09:13:31Z</time>
      </trkpt>
      <trkpt lat="28.350673" lon="-14.107167">
        <ele>202.427</ele>
        <time>2021-10-31T09:35:04Z</time>
      </trkpt>
      <trkpt lat="28.350553" lon="-14.107097">
        <ele>202.489</ele>
        <time>2021-10-31T09:36:50Z</time>
      </trkpt>
      <trkpt lat="28.350686" lon="-14.107626">
        <ele>201.768</ele>
        <time>2021-10-31T09:39:48Z</time>
      </trkpt>
      <trkpt lat="28.351696" lon="-14.107463">
        <ele>201.342</ele>
        <time>2021-10-31T09:41:21Z</time>
      </trkpt>
      <trkpt lat="28.350646" lon="-14.107658">
        <ele>202.126</ele>
        <time>2021-10-31T09:43:05Z</time>
      </trkpt>
      <trkpt lat="28.351167" lon="-14.108749">
        <ele>201.408</ele>
        <time>2021-10-31T09:43:42Z</time>
      </trkpt>
      <trkpt lat="28.351792" lon="-14.109174">
        <ele>202.834</ele>
        <time>2021-10-31T09:44:01Z</time>
      </trkpt>
      <trkpt lat="28.351947" lon="-14.109812">
        <ele>206.414</ele>
        <time>2021-10-31T09:44:25Z</time>
      </trkpt>
      <trkpt lat="28.355011" lon="-14.108801">
        <ele>218.831</ele>
        <time>2021-10-31T09:46:33Z</time>
      </trkpt>
      <trkpt lat="28.355086" lon="-14.109078">
        <ele>219.336</ele>
        <time>2021-10-31T09:46:42Z</time>
      </trkpt>
      <trkpt lat="28.354437" lon="-14.109982">
        <ele>223.136</ele>
        <time>2021-10-31T09:47:17Z</time>
      </trkpt>
      <trkpt lat="28.354462" lon="-14.110582">
        <ele>226.243</ele>
        <time>2021-10-31T09:47:37Z</time>
      </trkpt>
      <trkpt lat="28.354799" lon="-14.110829">
        <ele>228.070</ele>
        <time>2021-10-31T09:47:51Z</time>
      </trkpt>
      <trkpt lat="28.357192" lon="-14.110829">
        <ele>237.592</ele>
        <time>2021-10-31T09:49:11Z</time>
      </trkpt>
      <trkpt lat="28.357224" lon="-14.112328">
        <ele>247.021</ele>
        <time>2021-10-31T09:49:58Z</time>
      </trkpt>
      <trkpt lat="28.357763" lon="-14.112014">
        <ele>251.441</ele>
        <time>2021-10-31T09:50:19Z</time>
      </trkpt>
      <trkpt lat="28.358515" lon="-14.110162">
        <ele>260.005</ele>
        <time>2021-10-31T09:51:18Z</time>
      </trkpt>
      <trkpt lat="28.359935" lon="-14.108535">
        <ele>270.608</ele>
        <time>2021-10-31T09:52:21Z</time>
      </trkpt>
      <trkpt lat="28.361406" lon="-14.108329">
        <ele>276.580</ele>
        <time>2021-10-31T09:53:05Z</time>
      </trkpt>
      <trkpt lat="28.363549" lon="-14.107081">
        <ele>286.440</ele>
        <time>2021-10-31T09:54:20Z</time>
      </trkpt>
      <trkpt lat="28.364929" lon="-14.106769">
        <ele>291.547</ele>
        <time>2021-10-31T09:55:04Z</time>
      </trkpt>
      <trkpt lat="28.365440" lon="-14.106245">
        <ele>294.472</ele>
        <time>2021-10-31T09:55:22Z</time>
      </trkpt>
      <trkpt lat="28.365696" lon="-14.106312">
        <ele>295.482</ele>
        <time>2021-10-31T09:55:30Z</time>
      </trkpt>
      <trkpt lat="28.365682" lon="-14.106510">
        <ele>296.119</ele>
        <time>2021-10-31T09:55:36Z</time>
      </trkpt>
      <trkpt lat="28.365597" lon="-14.106128">
        <ele>297.576</ele>
        <time>2021-10-31T09:55:59Z</time>
      </trkpt>
      <trkpt lat="28.366021" lon="-14.107295">
        <ele>303.088</ele>
        <time>2021-10-31T09:57:14Z</time>
      </trkpt>
      <trkpt lat="28.367182" lon="-14.107512">
        <ele>308.362</ele>
        <time>2021-10-31T09:58:02Z</time>
      </trkpt>
      <trkpt lat="28.367552" lon="-14.106923">
        <ele>310.783</ele>
        <time>2021-10-31T09:58:49Z</time>
      </trkpt>
      <trkpt lat="28.368041" lon="-14.104735">
        <ele>313.811</ele>
        <time>2021-10-31T09:59:46Z</time>
      </trkpt>
      <trkpt lat="28.368274" lon="-14.104726">
        <ele>313.908</ele>
        <time>2021-10-31T09:59:52Z</time>
      </trkpt>
      <trkpt lat="28.368525" lon="-14.105174">
        <ele>314.664</ele>
        <time>2021-10-31T10:00:03Z</time>
      </trkpt>
      <trkpt lat="28.369270" lon="-14.105600">
        <ele>317.094</ele>
        <time>2021-10-31T10:00:26Z</time>
      </trkpt>
      <trkpt lat="28.369539" lon="-14.105434">
        <ele>317.871</ele>
        <time>2021-10-31T10:00:35Z</time>
      </trkpt>
      <trkpt lat="28.369939" lon="-14.104231">
        <ele>320.646</ele>
        <time>2021-10-31T10:01:08Z</time>
      </trkpt>
      <trkpt lat="28.370034" lon="-14.102780">
        <ele>323.726</ele>
        <time>2021-10-31T10:01:44Z</time>
      </trkpt>
      <trkpt lat="28.370483" lon="-14.102997">
        <ele>324.233</ele>
        <time>2021-10-31T10:02:16Z</time>
      </trkpt>
      <trkpt lat="28.371219" lon="-14.103957">
        <ele>326.220</ele>
        <time>2021-10-31T10:02:52Z</time>
      </trkpt>
      <trkpt lat="28.371470" lon="-14.104629">
        <ele>329.022</ele>
        <time>2021-10-31T10:03:13Z</time>
      </trkpt>
      <trkpt lat="28.371773" lon="-14.104800">
        <ele>330.817</ele>
        <time>2021-10-31T10:03:26Z</time>
      </trkpt>
      <trkpt lat="28.372310" lon="-14.104673">
        <ele>332.587</ele>
        <time>2021-10-31T10:03:51Z</time>
      </trkpt>
      <trkpt lat="28.373390" lon="-14.101206">
        <ele>340.115</ele>
        <time>2021-10-31T10:07:28Z</time>
      </trkpt>
      <trkpt lat="28.373788" lon="-14.101383">
        <ele>341.008</ele>
        <time>2021-10-31T10:07:41Z</time>
      </trkpt>
      <trkpt lat="28.374089" lon="-14.102219">
        <ele>343.439</ele>
        <time>2021-10-31T10:08:05Z</time>
      </trkpt>
      <trkpt lat="28.374615" lon="-14.102690">
        <ele>346.549</ele>
        <time>2021-10-31T10:08:29Z</time>
      </trkpt>
      <trkpt lat="28.375930" lon="-14.102993">
        <ele>350.246</ele>
        <time>2021-10-31T10:09:09Z</time>
      </trkpt>
      <trkpt lat="28.377315" lon="-14.102734">
        <ele>355.251</ele>
        <time>2021-10-31T10:09:54Z</time>
      </trkpt>
      <trkpt lat="28.377459" lon="-14.102879">
        <ele>356.161</ele>
        <time>2021-10-31T10:10:04Z</time>
      </trkpt>
      <trkpt lat="28.377484" lon="-14.102554">
        <ele>358.098</ele>
        <time>2021-10-31T10:10:45Z</time>
      </trkpt>
      <trkpt lat="28.377448" lon="-14.102819">
        <ele>359.535</ele>
        <time>2021-10-31T10:11:04Z</time>
      </trkpt>
      <trkpt lat="28.377669" lon="-14.102032">
        <ele>363.627</ele>
        <time>2021-10-31T10:12:22Z</time>
      </trkpt>
      <trkpt lat="28.377236" lon="-14.099284">
        <ele>377.877</ele>
        <time>2021-10-31T10:13:49Z</time>
      </trkpt>
      <trkpt lat="28.376435" lon="-14.098338">
        <ele>384.461</ele>
        <time>2021-10-31T10:14:34Z</time>
      </trkpt>
      <trkpt lat="28.376268" lon="-14.097816">
        <ele>386.927</ele>
        <time>2021-10-31T10:14:52Z</time>
      </trkpt>
      <trkpt lat="28.376349" lon="-14.097202">
        <ele>389.708</ele>
        <time>2021-10-31T10:15:13Z</time>
      </trkpt>
      <trkpt lat="28.375720" lon="-14.096293">
        <ele>394.015</ele>
        <time>2021-10-31T10:15:49Z</time>
      </trkpt>
      <trkpt lat="28.376043" lon="-14.095273">
        <ele>398.115</ele>
        <time>2021-10-31T10:16:26Z</time>
      </trkpt>
      <trkpt lat="28.376020" lon="-14.095543">
        <ele>399.952</ele>
        <time>2021-10-31T10:16:45Z</time>
      </trkpt>
      <trkpt lat="28.375815" lon="-14.093985">
        <ele>408.377</ele>
        <time>2021-10-31T10:19:14Z</time>
      </trkpt>
      <trkpt lat="28.376109" lon="-14.093379">
        <ele>411.247</ele>
        <time>2021-10-31T10:19:42Z</time>
      </trkpt>
      <trkpt lat="28.376410" lon="-14.093256">
        <ele>412.134</ele>
        <time>2021-10-31T10:19:54Z</time>
      </trkpt>
      <trkpt lat="28.379429" lon="-14.095049">
        <ele>425.041</ele>
        <time>2021-10-31T10:21:27Z</time>
      </trkpt>
      <trkpt lat="28.379501" lon="-14.095642">
        <ele>411.973</ele>
        <time>2021-10-31T10:22:23Z</time>
      </trkpt>
      <trkpt lat="28.379444" lon="-14.095358">
        <ele>413.293</ele>
        <time>2021-10-31T10:22:56Z</time>
      </trkpt>
      <trkpt lat="28.379568" lon="-14.095479">
        <ele>413.865</ele>
        <time>2021-10-31T10:23:34Z</time>
      </trkpt>
      <trkpt lat="28.379345" lon="-14.095089">
        <ele>415.621</ele>
        <time>2021-10-31T10:24:13Z</time>
      </trkpt>
      <trkpt lat="28.379644" lon="-14.094940">
        <ele>417.308</ele>
        <time>2021-10-31T10:25:20Z</time>
      </trkpt>
      <trkpt lat="28.379604" lon="-14.095419">
        <ele>420.157</ele>
        <time>2021-10-31T10:26:48Z</time>
      </trkpt>
      <trkpt lat="28.379642" lon="-14.095253">
        <ele>421.047</ele>
        <time>2021-10-31T10:27:46Z</time>
      </trkpt>
      <trkpt lat="28.379372" lon="-14.095207">
        <ele>422.724</ele>
        <time>2021-10-31T10:29:11Z</time>
      </trkpt>
      <trkpt lat="28.379610" lon="-14.094948">
        <ele>424.619</ele>
        <time>2021-10-31T10:30:37Z</time>
      </trkpt>
      <trkpt lat="28.379364" lon="-14.095098">
        <ele>424.759</ele>
        <time>2021-10-31T10:31:10Z</time>
      </trkpt>
      <trkpt lat="28.379206" lon="-14.094936">
        <ele>423.196</ele>
        <time>2021-10-31T10:31:39Z</time>
      </trkpt>
      <trkpt lat="28.379353" lon="-14.094311">
        <ele>420.573</ele>
        <time>2021-10-31T10:31:51Z</time>
      </trkpt>
      <trkpt lat="28.378878" lon="-14.091077">
        <ele>400.815</ele>
        <time>2021-10-31T10:32:26Z</time>
      </trkpt>
      <trkpt lat="28.379043" lon="-14.090370">
        <ele>398.235</ele>
        <time>2021-10-31T10:32:34Z</time>
      </trkpt>
      <trkpt lat="28.378813" lon="-14.089829">
        <ele>394.586</ele>
        <time>2021-10-31T10:32:41Z</time>
      </trkpt>
      <trkpt lat="28.378855" lon="-14.088401">
        <ele>387.914</ele>
        <time>2021-10-31T10:32:58Z</time>
      </trkpt>
      <trkpt lat="28.379146" lon="-14.088152">
        <ele>386.508</ele>
        <time>2021-10-31T10:34:20Z</time>
      </trkpt>
      <trkpt lat="28.379376" lon="-14.087353">
        <ele>383.881</ele>
        <time>2021-10-31T10:34:39Z</time>
      </trkpt>
      <trkpt lat="28.379595" lon="-14.087207">
        <ele>382.481</ele>
        <time>2021-10-31T10:34:44Z</time>
      </trkpt>
      <trkpt lat="28.380892" lon="-14.088141">
        <ele>372.928</ele>
        <time>2021-10-31T10:35:06Z</time>
      </trkpt>
      <trkpt lat="28.381953" lon="-14.089406">
        <ele>367.233</ele>
        <time>2021-10-31T10:35:23Z</time>
      </trkpt>
      <trkpt lat="28.382473" lon="-14.089613">
        <ele>365.563</ele>
        <time>2021-10-31T10:35:31Z</time>
      </trkpt>
      <trkpt lat="28.382771" lon="-14.090218">
        <ele>363.090</ele>
        <time>2021-10-31T10:35:39Z</time>
      </trkpt>
      <trkpt lat="28.383382" lon="-14.090374">
        <ele>361.297</ele>
        <time>2021-10-31T10:35:48Z</time>
      </trkpt>
      <trkpt lat="28.383539" lon="-14.090913">
        <ele>359.439</ele>
        <time>2021-10-31T10:35:57Z</time>
      </trkpt>
      <trkpt lat="28.384644" lon="-14.090737">
        <ele>352.365</ele>
        <time>2021-10-31T10:36:14Z</time>
      </trkpt>
      <trkpt lat="28.385407" lon="-14.091083">
        <ele>347.868</ele>
        <time>2021-10-31T10:36:53Z</time>
      </trkpt>
      <trkpt lat="28.385504" lon="-14.091481">
        <ele>345.514</ele>
        <time>2021-10-31T10:37:00Z</time>
      </trkpt>
      <trkpt lat="28.387055" lon="-14.092480">
        <ele>335.908</ele>
        <time>2021-10-31T10:39:42Z</time>
      </trkpt>
      <trkpt lat="28.387429" lon="-14.091972">
        <ele>333.284</ele>
        <time>2021-10-31T10:43:05Z</time>
      </trkpt>
      <trkpt lat="28.388330" lon="-14.089271">
        <ele>321.064</ele>
        <time>2021-10-31T10:43:38Z</time>
      </trkpt>
      <trkpt lat="28.388313" lon="-14.087394">
        <ele>312.321</ele>
        <time>2021-10-31T10:43:57Z</time>
      </trkpt>
      <trkpt lat="28.387997" lon="-14.086972">
        <ele>310.766</ele>
        <time>2021-10-31T10:44:04Z</time>
      </trkpt>
      <trkpt lat="28.388552" lon="-14.086523">
        <ele>307.246</ele>
        <time>2021-10-31T10:44:15Z</time>
      </trkpt>
      <trkpt lat="28.388403" lon="-14.085432">
        <ele>302.233</ele>
        <time>2021-10-31T10:44:29Z</time>
      </trkpt>
      <trkpt lat="28.389052" lon="-14.084600">
        <ele>296.760</ele>
        <time>2021-10-31T10:44:43Z</time>
      </trkpt>
      <trkpt lat="28.389095" lon="-14.083856">
        <ele>294.612</ele>
        <time>2021-10-31T10:44:52Z</time>
      </trkpt>
      <trkpt lat="28.389385" lon="-14.083739">
        <ele>293.212</ele>
        <time>2021-10-31T10:44:56Z</time>
      </trkpt>
      <trkpt lat="28.390791" lon="-14.084195">
        <ele>289.932</ele>
        <time>2021-10-31T10:45:15Z</time>
      </trkpt>
      <trkpt lat="28.391349" lon="-14.083890">
        <ele>288.705</ele>
        <time>2021-10-31T10:45:23Z</time>
      </trkpt>
      <trkpt lat="28.391735" lon="-14.082038">
        <ele>286.308</ele>
        <time>2021-10-31T10:45:50Z</time>
      </trkpt>
      <trkpt lat="28.391557" lon="-14.080540">
        <ele>284.719</ele>
        <time>2021-10-31T10:46:17Z</time>
      </trkpt>
      <trkpt lat="28.391369" lon="-14.080247">
        <ele>284.379</ele>
        <time>2021-10-31T10:46:24Z</time>
      </trkpt>
      <trkpt lat="28.390560" lon="-14.080009">
        <ele>282.916</ele>
        <time>2021-10-31T10:46:42Z</time>
      </trkpt>
      <trkpt lat="28.390432" lon="-14.079527">
        <ele>282.131</ele>
        <time>2021-10-31T10:46:51Z</time>
      </trkpt>
      <trkpt lat="28.390629" lon="-14.079310">
        <ele>281.651</ele>
        <time>2021-10-31T10:46:57Z</time>
      </trkpt>
      <trkpt lat="28.390550" lon="-14.079470">
        <ele>281.278</ele>
        <time>2021-10-31T10:47:08Z</time>
      </trkpt>
      <trkpt lat="28.392010" lon="-14.078968">
        <ele>279.735</ele>
        <time>2021-10-31T10:48:17Z</time>
      </trkpt>
      <trkpt lat="28.393410" lon="-14.076865">
        <ele>276.457</ele>
        <time>2021-10-31T10:49:07Z</time>
      </trkpt>
      <trkpt lat="28.393714" lon="-14.075485">
        <ele>275.693</ele>
        <time>2021-10-31T10:49:53Z</time>
      </trkpt>
      <trkpt lat="28.393596" lon="-14.074361">
        <ele>277.465</ele>
        <time>2021-10-31T10:50:22Z</time>
      </trkpt>
      <trkpt lat="28.393807" lon="-14.073656">
        <ele>278.221</ele>
        <time>2021-10-31T10:50:41Z</time>
      </trkpt>
      <trkpt lat="28.393455" lon="-14.071766">
        <ele>282.308</ele>
        <time>2021-10-31T10:51:28Z</time>
      </trkpt>
      <trkpt lat="28.393256" lon="-14.071685">
        <ele>283.057</ele>
        <time>2021-10-31T10:51:37Z</time>
      </trkpt>
      <trkpt lat="28.393118" lon="-14.070906">
        <ele>286.017</ele>
        <time>2021-10-31T10:52:43Z</time>
      </trkpt>
      <trkpt lat="28.392807" lon="-14.071078">
        <ele>286.534</ele>
        <time>2021-10-31T10:52:57Z</time>
      </trkpt>
      <trkpt lat="28.392766" lon="-14.070831">
        <ele>287.639</ele>
        <time>2021-10-31T11:18:52Z</time>
      </trkpt>
      <trkpt lat="28.392943" lon="-14.071228">
        <ele>287.929</ele>
        <time>2021-10-31T11:20:37Z</time>
      </trkpt>
      <trkpt lat="28.392808" lon="-14.070895">
        <ele>288.246</ele>
        <time>2021-10-31T11:21:35Z</time>
      </trkpt>
      <trkpt lat="28.393053" lon="-14.071089">
        <ele>288.423</ele>
        <time>2021-10-31T11:22:56Z</time>
      </trkpt>
      <trkpt lat="28.393874" lon="-14.068623">
        <ele>295.225</ele>
        <time>2021-10-31T11:24:34Z</time>
      </trkpt>
      <trkpt lat="28.395639" lon="-14.067279">
        <ele>296.945</ele>
        <time>2021-10-31T11:25:39Z</time>
      </trkpt>
      <trkpt lat="28.395662" lon="-14.067421">
        <ele>297.047</ele>
        <time>2021-10-31T11:25:51Z</time>
      </trkpt>
      <trkpt lat="28.395630" lon="-14.067247">
        <ele>297.211</ele>
        <time>2021-10-31T11:26:12Z</time>
      </trkpt>
      <trkpt lat="28.397023" lon="-14.067033">
        <ele>299.508</ele>
        <time>2021-10-31T11:26:54Z</time>
      </trkpt>
      <trkpt lat="28.397835" lon="-14.066258">
        <ele>302.282</ele>
        <time>2021-10-31T11:27:23Z</time>
      </trkpt>
      <trkpt lat="28.399684" lon="-14.063291">
        <ele>313.992</ele>
        <time>2021-10-31T11:28:57Z</time>
      </trkpt>
      <trkpt lat="28.399892" lon="-14.061979">
        <ele>315.319</ele>
        <time>2021-10-31T11:29:31Z</time>
      </trkpt>
      <trkpt lat="28.400801" lon="-14.061967">
        <ele>319.224</ele>
        <time>2021-10-31T11:29:55Z</time>
      </trkpt>
      <trkpt lat="28.401950" lon="-14.060754">
        <ele>319.884</ele>
        <time>2021-10-31T11:30:34Z</time>
      </trkpt>
      <trkpt lat="28.402707" lon="-14.060605">
        <ele>321.711</ele>
        <time>2021-10-31T11:30:54Z</time>
      </trkpt>
      <trkpt lat="28.403023" lon="-14.060972">
        <ele>322.378</ele>
        <time>2021-10-31T11:31:05Z</time>
      </trkpt>
      <trkpt lat="28.402282" lon="-14.061769">
        <ele>325.360</ele>
        <time>2021-10-31T11:31:30Z</time>
      </trkpt>
      <trkpt lat="28.402237" lon="-14.062130">
        <ele>326.494</ele>
        <time>2021-10-31T11:31:39Z</time>
      </trkpt>
      <trkpt lat="28.404207" lon="-14.063030">
        <ele>333.857</ele>
        <time>2021-10-31T11:33:08Z</time>
      </trkpt>
      <trkpt lat="28.404765" lon="-14.063074">
        <ele>335.522</ele>
        <time>2021-10-31T11:33:23Z</time>
      </trkpt>
      <trkpt lat="28.406356" lon="-14.062589">
        <ele>338.308</ele>
        <time>2021-10-31T11:34:03Z</time>
      </trkpt>
      <trkpt lat="28.408949" lon="-14.062257">
        <ele>340.027</ele>
        <time>2021-10-31T11:35:03Z</time>
      </trkpt>
      <trkpt lat="28.410916" lon="-14.062680">
        <ele>343.017</ele>
        <time>2021-10-31T11:35:46Z</time>
      </trkpt>
      <trkpt lat="28.411260" lon="-14.062375">
        <ele>343.834</ele>
        <time>2021-10-31T11:35:57Z</time>
      </trkpt>
      <trkpt lat="28.411268" lon="-14.061440">
        <ele>344.849</ele>
        <time>2021-10-31T11:36:17Z</time>
      </trkpt>
      <trkpt lat="28.411533" lon="-14.060913">
        <ele>345.519</ele>
        <time>2021-10-31T11:36:30Z</time>
      </trkpt>
      <trkpt lat="28.413259" lon="-14.059635">
        <ele>350.146</ele>
        <time>2021-10-31T11:37:25Z</time>
      </trkpt>
      <trkpt lat="28.414766" lon="-14.059812">
        <ele>354.053</ele>
        <time>2021-10-31T11:38:06Z</time>
      </trkpt>
      <trkpt lat="28.415317" lon="-14.058992">
        <ele>360.885</ele>
        <time>2021-10-31T11:39:54Z</time>
      </trkpt>
      <trkpt lat="28.416223" lon="-14.058478">
        <ele>367.712</ele>
        <time>2021-10-31T11:40:35Z</time>
      </trkpt>
      <trkpt lat="28.417820" lon="-14.058802">
        <ele>373.032</ele>
        <time>2021-10-31T11:41:23Z</time>
      </trkpt>
      <trkpt lat="28.418440" lon="-14.059336">
        <ele>375.305</ele>
        <time>2021-10-31T11:41:43Z</time>
      </trkpt>
      <trkpt lat="28.420561" lon="-14.058260">
        <ele>375.608</ele>
        <time>2021-10-31T11:42:33Z</time>
      </trkpt>
      <trkpt lat="28.421356" lon="-14.058317">
        <ele>378.129</ele>
        <time>2021-10-31T11:42:49Z</time>
      </trkpt>
      <trkpt lat="28.423014" lon="-14.057307">
        <ele>388.649</ele>
        <time>2021-10-31T11:45:14Z</time>
      </trkpt>
      <trkpt lat="28.423084" lon="-14.057056">
        <ele>391.076</ele>
        <time>2021-10-31T12:09:26Z</time>
      </trkpt>
      <trkpt lat="28.423927" lon="-14.056835">
        <ele>395.271</ele>
        <time>2021-10-31T12:10:54Z</time>
      </trkpt>
      <trkpt lat="28.423800" lon="-14.056758">
        <ele>393.511</ele>
        <time>2021-10-31T12:11:26Z</time>
      </trkpt>
      <trkpt lat="28.424494" lon="-14.056830">
        <ele>388.528</ele>
        <time>2021-10-31T12:12:04Z</time>
      </trkpt>
      <trkpt lat="28.424360" lon="-14.057557">
        <ele>395.375</ele>
        <time>2021-10-31T12:12:51Z</time>
      </trkpt>
      <trkpt lat="28.424788" lon="-14.057189">
        <ele>396.287</ele>
        <time>2021-10-31T12:13:43Z</time>
      </trkpt>
      <trkpt lat="28.424830" lon="-14.057391">
        <ele>399.016</ele>
        <time>2021-10-31T12:14:33Z</time>
      </trkpt>
      <trkpt lat="28.425116" lon="-14.057216">
        <ele>401.876</ele>
        <time>2021-10-31T12:15:29Z</time>
      </trkpt>
      <trkpt lat="28.424693" lon="-14.057557">
        <ele>405.213</ele>
        <time>2021-10-31T12:17:07Z</time>
      </trkpt>
      <trkpt lat="28.424824" lon="-14.057637">
        <ele>405.908</ele>
        <time>2021-10-31T12:18:19Z</time>
      </trkpt>
      <trkpt lat="28.424429" lon="-14.057901">
        <ele>406.479</ele>
        <time>2021-10-31T12:19:35Z</time>
      </trkpt>
      <trkpt lat="28.424372" lon="-14.057526">
        <ele>396.729</ele>
        <time>2021-10-31T12:21:08Z</time>
      </trkpt>
      <trkpt lat="28.425449" lon="-14.056785">
        <ele>393.216</ele>
        <time>2021-10-31T12:23:52Z</time>
      </trkpt>
      <trkpt lat="28.426139" lon="-14.057584">
        <ele>402.191</ele>
        <time>2021-10-31T12:25:42Z</time>
      </trkpt>
      <trkpt lat="28.428134" lon="-14.057868">
        <ele>416.471</ele>
        <time>2021-10-31T12:27:26Z</time>
      </trkpt>
      <trkpt lat="28.428034" lon="-14.057995">
        <ele>417.788</ele>
        <time>2021-10-31T12:28:14Z</time>
      </trkpt>
      <trkpt lat="28.428714" lon="-14.058162">
        <ele>420.075</ele>
        <time>2021-10-31T12:28:46Z</time>
      </trkpt>
      <trkpt lat="28.429404" lon="-14.058938">
        <ele>426.427</ele>
        <time>2021-10-31T12:29:27Z</time>
      </trkpt>
      <trkpt lat="28.430591" lon="-14.059620">
        <ele>434.515</ele>
        <time>2021-10-31T12:30:19Z</time>
      </trkpt>
      <trkpt lat="28.431778" lon="-14.059262">
        <ele>443.965</ele>
        <time>2021-10-31T12:31:15Z</time>
      </trkpt>
      <trkpt lat="28.432417" lon="-14.058742">
        <ele>451.511</ele>
        <time>2021-10-31T12:31:54Z</time>
      </trkpt>
      <trkpt lat="28.433744" lon="-14.058686">
        <ele>461.108</ele>
        <time>2021-10-31T12:32:55Z</time>
      </trkpt>
      <trkpt lat="28.434028" lon="-14.059006">
        <ele>463.349</ele>
        <time>2021-10-31T12:33:10Z</time>
      </trkpt>
      <trkpt lat="28.434430" lon="-14.060314">
        <ele>470.529</ele>
        <time>2021-10-31T12:33:58Z</time>
      </trkpt>
      <trkpt lat="28.435693" lon="-14.060546">
        <ele>481.066</ele>
        <time>2021-10-31T12:35:01Z</time>
      </trkpt>
      <trkpt lat="28.435309" lon="-14.061231">
        <ele>488.491</ele>
        <time>2021-10-31T12:35:33Z</time>
      </trkpt>
      <trkpt lat="28.434556" lon="-14.061321">
        <ele>493.731</ele>
        <time>2021-10-31T12:36:07Z</time>
      </trkpt>
      <trkpt lat="28.433975" lon="-14.061964">
        <ele>502.028</ele>
        <time>2021-10-31T12:36:56Z</time>
      </trkpt>
      <trkpt lat="28.434011" lon="-14.063183">
        <ele>513.555</ele>
        <time>2021-10-31T12:38:24Z</time>
      </trkpt>
      <trkpt lat="28.435028" lon="-14.062320">
        <ele>524.847</ele>
        <time>2021-10-31T12:39:25Z</time>
      </trkpt>
      <trkpt lat="28.435751" lon="-14.062355">
        <ele>528.135</ele>
        <time>2021-10-31T12:39:54Z</time>
      </trkpt>
      <trkpt lat="28.436166" lon="-14.061974">
        <ele>531.586</ele>
        <time>2021-10-31T12:40:29Z</time>
      </trkpt>
      <trkpt lat="28.437549" lon="-14.061438">
        <ele>540.514</ele>
        <time>2021-10-31T12:42:04Z</time>
      </trkpt>
      <trkpt lat="28.437439" lon="-14.060236">
        <ele>548.808</ele>
        <time>2021-10-31T12:43:18Z</time>
      </trkpt>
      <trkpt lat="28.437677" lon="-14.059720">
        <ele>552.131</ele>
        <time>2021-10-31T12:43:37Z</time>
      </trkpt>
      <trkpt lat="28.438202" lon="-14.059449">
        <ele>555.541</ele>
        <time>2021-10-31T12:43:57Z</time>
      </trkpt>
      <trkpt lat="28.438823" lon="-14.059592">
        <ele>559.858</ele>
        <time>2021-10-31T12:44:22Z</time>
      </trkpt>
      <trkpt lat="28.439138" lon="-14.059224">
        <ele>563.883</ele>
        <time>2021-10-31T12:44:42Z</time>
      </trkpt>
      <trkpt lat="28.439833" lon="-14.059289">
        <ele>569.663</ele>
        <time>2021-10-31T12:45:08Z</time>
      </trkpt>
      <trkpt lat="28.440323" lon="-14.058888">
        <ele>575.090</ele>
        <time>2021-10-31T12:45:38Z</time>
      </trkpt>
      <trkpt lat="28.440641" lon="-14.057963">
        <ele>578.037</ele>
        <time>2021-10-31T12:46:12Z</time>
      </trkpt>
      <trkpt lat="28.440706" lon="-14.056192">
        <ele>587.469</ele>
        <time>2021-10-31T12:47:16Z</time>
      </trkpt>
      <trkpt lat="28.441032" lon="-14.056422">
        <ele>586.837</ele>
        <time>2021-10-31T12:51:40Z</time>
      </trkpt>
      <trkpt lat="28.440700" lon="-14.056154">
        <ele>587.549</ele>
        <time>2021-10-31T12:56:02Z</time>
      </trkpt>
      <trkpt lat="28.441270" lon="-14.054975">
        <ele>579.413</ele>
        <time>2021-10-31T12:56:58Z</time>
      </trkpt>
      <trkpt lat="28.440340" lon="-14.054065">
        <ele>572.208</ele>
        <time>2021-10-31T12:57:14Z</time>
      </trkpt>
      <trkpt lat="28.440329" lon="-14.053539">
        <ele>569.611</ele>
        <time>2021-10-31T12:57:22Z</time>
      </trkpt>
      <trkpt lat="28.440349" lon="-14.054028">
        <ele>572.161</ele>
        <time>2021-10-31T12:57:37Z</time>
      </trkpt>
      <trkpt lat="28.440036" lon="-14.054198">
        <ele>574.148</ele>
        <time>2021-10-31T12:57:53Z</time>
      </trkpt>
      <trkpt lat="28.438819" lon="-14.053562">
        <ele>590.623</ele>
        <time>2021-10-31T12:59:21Z</time>
      </trkpt>
      <trkpt lat="28.435478" lon="-14.053009">
        <ele>628.943</ele>
        <time>2021-10-31T13:03:40Z</time>
      </trkpt>
      <trkpt lat="28.435221" lon="-14.052727">
        <ele>630.970</ele>
        <time>2021-10-31T13:03:56Z</time>
      </trkpt>
      <trkpt lat="28.435254" lon="-14.052195">
        <ele>634.917</ele>
        <time>2021-10-31T13:04:15Z</time>
      </trkpt>
      <trkpt lat="28.436133" lon="-14.052257">
        <ele>643.039</ele>
        <time>2021-10-31T13:05:05Z</time>
      </trkpt>
      <trkpt lat="28.436894" lon="-14.051962">
        <ele>650.786</ele>
        <time>2021-10-31T13:05:54Z</time>
      </trkpt>
      <trkpt lat="28.438398" lon="-14.049901">
        <ele>661.960</ele>
        <time>2021-10-31T13:09:29Z</time>
      </trkpt>
      <trkpt lat="28.436918" lon="-14.051975">
        <ele>650.626</ele>
        <time>2021-10-31T13:20:45Z</time>
      </trkpt>
      <trkpt lat="28.436367" lon="-14.052265">
        <ele>644.708</ele>
        <time>2021-10-31T13:20:54Z</time>
      </trkpt>
      <trkpt lat="28.435337" lon="-14.052186">
        <ele>635.026</ele>
        <time>2021-10-31T13:21:12Z</time>
      </trkpt>
      <trkpt lat="28.435099" lon="-14.052423">
        <ele>632.236</ele>
        <time>2021-10-31T13:21:21Z</time>
      </trkpt>
      <trkpt lat="28.435653" lon="-14.052968">
        <ele>627.383</ele>
        <time>2021-10-31T13:23:14Z</time>
      </trkpt>
      <trkpt lat="28.439045" lon="-14.053608">
        <ele>588.538</ele>
        <time>2021-10-31T13:24:07Z</time>
      </trkpt>
      <trkpt lat="28.440058" lon="-14.054094">
        <ele>575.128</ele>
        <time>2021-10-31T13:24:27Z</time>
      </trkpt>
      <trkpt lat="28.440383" lon="-14.053972">
        <ele>572.035</ele>
        <time>2021-10-31T13:24:35Z</time>
      </trkpt>
      <trkpt lat="28.440263" lon="-14.052967">
        <ele>563.922</ele>
        <time>2021-10-31T13:24:59Z</time>
      </trkpt>
      <trkpt lat="28.440810" lon="-14.051644">
        <ele>551.564</ele>
        <time>2021-10-31T13:25:22Z</time>
      </trkpt>
      <trkpt lat="28.440597" lon="-14.050700">
        <ele>540.521</ele>
        <time>2021-10-31T13:25:37Z</time>
      </trkpt>
      <trkpt lat="28.441208" lon="-14.050026">
        <ele>529.141</ele>
        <time>2021-10-31T13:25:48Z</time>
      </trkpt>
      <trkpt lat="28.442392" lon="-14.049657">
        <ele>519.905</ele>
        <time>2021-10-31T13:26:03Z</time>
      </trkpt>
      <trkpt lat="28.442585" lon="-14.049381">
        <ele>515.908</ele>
        <time>2021-10-31T13:26:08Z</time>
      </trkpt>
      <trkpt lat="28.441966" lon="-14.048574">
        <ele>505.050</ele>
        <time>2021-10-31T13:26:19Z</time>
      </trkpt>
      <trkpt lat="28.440201" lon="-14.047630">
        <ele>493.320</ele>
        <time>2021-10-31T13:26:38Z</time>
      </trkpt>
      <trkpt lat="28.440104" lon="-14.047326">
        <ele>492.347</ele>
        <time>2021-10-31T13:26:42Z</time>
      </trkpt>
      <trkpt lat="28.440355" lon="-14.046846">
        <ele>487.652</ele>
        <time>2021-10-31T13:26:48Z</time>
      </trkpt>
      <trkpt lat="28.443185" lon="-14.044447">
        <ele>454.032</ele>
        <time>2021-10-31T13:27:15Z</time>
      </trkpt>
      <trkpt lat="28.444444" lon="-14.043826">
        <ele>450.039</ele>
        <time>2021-10-31T13:27:30Z</time>
      </trkpt>
      <trkpt lat="28.444419" lon="-14.043570">
        <ele>447.666</ele>
        <time>2021-10-31T13:27:34Z</time>
      </trkpt>
      <trkpt lat="28.443426" lon="-14.042429">
        <ele>435.478</ele>
        <time>2021-10-31T13:27:49Z</time>
      </trkpt>
      <trkpt lat="28.443408" lon="-14.041943">
        <ele>432.077</ele>
        <time>2021-10-31T13:27:53Z</time>
      </trkpt>
      <trkpt lat="28.443951" lon="-14.040697">
        <ele>423.861</ele>
        <time>2021-10-31T13:28:04Z</time>
      </trkpt>
      <trkpt lat="28.444098" lon="-14.039460">
        <ele>417.127</ele>
        <time>2021-10-31T13:28:14Z</time>
      </trkpt>
      <trkpt lat="28.443715" lon="-14.038486">
        <ele>408.708</ele>
        <time>2021-10-31T13:28:23Z</time>
      </trkpt>
      <trkpt lat="28.442930" lon="-14.037459">
        <ele>399.535</ele>
        <time>2021-10-31T13:28:34Z</time>
      </trkpt>
      <trkpt lat="28.442871" lon="-14.036661">
        <ele>392.955</ele>
        <time>2021-10-31T13:28:41Z</time>
      </trkpt>
      <trkpt lat="28.443231" lon="-14.035891">
        <ele>387.372</ele>
        <time>2021-10-31T13:28:48Z</time>
      </trkpt>
      <trkpt lat="28.443959" lon="-14.035636">
        <ele>378.837</ele>
        <time>2021-10-31T13:28:57Z</time>
      </trkpt>
      <trkpt lat="28.444273" lon="-14.035062">
        <ele>373.117</ele>
        <time>2021-10-31T13:29:05Z</time>
      </trkpt>
      <trkpt lat="28.444938" lon="-14.034888">
        <ele>367.344</ele>
        <time>2021-10-31T13:29:14Z</time>
      </trkpt>
      <trkpt lat="28.444979" lon="-14.034032">
        <ele>360.911</ele>
        <time>2021-10-31T13:29:23Z</time>
      </trkpt>
      <trkpt lat="28.445588" lon="-14.032629">
        <ele>357.633</ele>
        <time>2021-10-31T13:29:46Z</time>
      </trkpt>
      <trkpt lat="28.445999" lon="-14.032695">
        <ele>356.149</ele>
        <time>2021-10-31T13:29:58Z</time>
      </trkpt>
      <trkpt lat="28.447155" lon="-14.033816">
        <ele>351.402</ele>
        <time>2021-10-31T13:30:19Z</time>
      </trkpt>
      <trkpt lat="28.449677" lon="-14.035296">
        <ele>342.522</ele>
        <time>2021-10-31T13:30:51Z</time>
      </trkpt>
      <trkpt lat="28.452105" lon="-14.035394">
        <ele>328.108</ele>
        <time>2021-10-31T13:31:53Z</time>
      </trkpt>
      <trkpt lat="28.453297" lon="-14.036247">
        <ele>319.292</ele>
        <time>2021-10-31T13:32:21Z</time>
      </trkpt>
      <trkpt lat="28.455054" lon="-14.036760">
        <ele>308.632</ele>
        <time>2021-10-31T13:32:38Z</time>
      </trkpt>
      <trkpt lat="28.457629" lon="-14.038268">
        <ele>295.569</ele>
        <time>2021-10-31T13:33:03Z</time>
      </trkpt>
      <trkpt lat="28.459105" lon="-14.038497">
        <ele>286.454</ele>
        <time>2021-10-31T13:33:15Z</time>
      </trkpt>
      <trkpt lat="28.460724" lon="-14.039529">
        <ele>276.134</ele>
        <time>2021-10-31T13:33:30Z</time>
      </trkpt>
      <trkpt lat="28.462240" lon="-14.039727">
        <ele>273.631</ele>
        <time>2021-10-31T13:34:13Z</time>
      </trkpt>
      <trkpt lat="28.464011" lon="-14.038201">
        <ele>266.798</ele>
        <time>2021-10-31T13:35:27Z</time>
      </trkpt>
      <trkpt lat="28.464490" lon="-14.038066">
        <ele>264.260</ele>
        <time>2021-10-31T13:36:02Z</time>
      </trkpt>
      <trkpt lat="28.464934" lon="-14.038312">
        <ele>261.482</ele>
        <time>2021-10-31T13:36:09Z</time>
      </trkpt>
      <trkpt lat="28.465744" lon="-14.039502">
        <ele>253.743</ele>
        <time>2021-10-31T13:36:23Z</time>
      </trkpt>
      <trkpt lat="28.466905" lon="-14.039659">
        <ele>248.717</ele>
        <time>2021-10-31T13:36:35Z</time>
      </trkpt>
      <trkpt lat="28.468164" lon="-14.038548">
        <ele>242.508</ele>
        <time>2021-10-31T13:37:14Z</time>
      </trkpt>
      <trkpt lat="28.469367" lon="-14.038255">
        <ele>238.466</ele>
        <time>2021-10-31T13:37:34Z</time>
      </trkpt>
      <trkpt lat="28.469898" lon="-14.037875">
        <ele>236.016</ele>
        <time>2021-10-31T13:37:42Z</time>
      </trkpt>
      <trkpt lat="28.470146" lon="-14.037331">
        <ele>234.183</ele>
        <time>2021-10-31T13:37:49Z</time>
      </trkpt>
      <trkpt lat="28.470154" lon="-14.035893">
        <ele>229.088</ele>
        <time>2021-10-31T13:38:07Z</time>
      </trkpt>
      <trkpt lat="28.470509" lon="-14.035084">
        <ele>226.578</ele>
        <time>2021-10-31T13:38:18Z</time>
      </trkpt>
      <trkpt lat="28.473210" lon="-14.032698">
        <ele>206.865</ele>
        <time>2021-10-31T13:39:10Z</time>
      </trkpt>
      <trkpt lat="28.473352" lon="-14.032794">
        <ele>205.642</ele>
        <time>2021-10-31T13:40:48Z</time>
      </trkpt>
      <trkpt lat="28.473650" lon="-14.031378">
        <ele>201.174</ele>
        <time>2021-10-31T14:05:06Z</time>
      </trkpt>
      <trkpt lat="28.473591" lon="-14.029237">
        <ele>200.178</ele>
        <time>2021-10-31T14:05:41Z</time>
      </trkpt>
      <trkpt lat="28.473800" lon="-14.028706">
        <ele>199.433</ele>
        <time>2021-10-31T14:05:51Z</time>
      </trkpt>
      <trkpt lat="28.474271" lon="-14.028300">
        <ele>198.326</ele>
        <time>2021-10-31T14:06:02Z</time>
      </trkpt>
      <trkpt lat="28.475974" lon="-14.027584">
        <ele>194.508</ele>
        <time>2021-10-31T14:06:57Z</time>
      </trkpt>
      <trkpt lat="28.480809" lon="-14.020180">
        <ele>177.325</ele>
        <time>2021-10-31T14:09:19Z</time>
      </trkpt>
      <trkpt lat="28.481371" lon="-14.018401">
        <ele>173.115</ele>
        <time>2021-10-31T14:09:48Z</time>
      </trkpt>
      <trkpt lat="28.481463" lon="-14.014581">
        <ele>172.892</ele>
        <time>2021-10-31T14:10:56Z</time>
      </trkpt>
      <trkpt lat="28.482403" lon="-14.007434">
        <ele>191.097</ele>
        <time>2021-10-31T14:17:35Z</time>
      </trkpt>
      <trkpt lat="28.489797" lon="-14.007584">
        <ele>184.197</ele>
        <time>2021-10-31T14:19:30Z</time>
      </trkpt>
      <trkpt lat="28.495037" lon="-14.007394">
        <ele>183.314</ele>
        <time>2021-10-31T14:20:50Z</time>
      </trkpt>
      <trkpt lat="28.498646" lon="-14.006912">
        <ele>181.761</ele>
        <time>2021-10-31T14:21:51Z</time>
      </trkpt>
      <trkpt lat="28.501883" lon="-14.005871">
        <ele>182.593</ele>
        <time>2021-10-31T14:22:42Z</time>
      </trkpt>
      <trkpt lat="28.506126" lon="-14.004069">
        <ele>174.568</ele>
        <time>2021-10-31T14:23:50Z</time>
      </trkpt>
      <trkpt lat="28.508594" lon="-14.002277">
        <ele>183.542</ele>
        <time>2021-10-31T14:24:50Z</time>
      </trkpt>
      <trkpt lat="28.512734" lon="-14.001213">
        <ele>188.126</ele>
        <time>2021-10-31T14:26:07Z</time>
      </trkpt>
      <trkpt lat="28.514622" lon="-13.999868">
        <ele>184.408</ele>
        <time>2021-10-31T14:26:38Z</time>
      </trkpt>
      <trkpt lat="28.517309" lon="-13.998691">
        <ele>185.334</ele>
        <time>2021-10-31T14:27:21Z</time>
      </trkpt>
      <trkpt lat="28.518347" lon="-13.997916">
        <ele>182.744</ele>
        <time>2021-10-31T14:28:18Z</time>
      </trkpt>
      <trkpt lat="28.521806" lon="-13.996522">
        <ele>186.751</ele>
        <time>2021-10-31T14:29:30Z</time>
      </trkpt>
      <trkpt lat="28.522925" lon="-13.998727">
        <ele>177.746</ele>
        <time>2021-10-31T14:30:03Z</time>
      </trkpt>
      <trkpt lat="28.524928" lon="-14.001383">
        <ele>157.666</ele>
        <time>2021-10-31T14:30:40Z</time>
      </trkpt>
      <trkpt lat="28.525013" lon="-14.002567">
        <ele>161.073</ele>
        <time>2021-10-31T14:31:06Z</time>
      </trkpt>
      <trkpt lat="28.525759" lon="-14.004120">
        <ele>169.860</ele>
        <time>2021-10-31T14:32:01Z</time>
      </trkpt>
      <trkpt lat="28.525632" lon="-14.005402">
        <ele>172.532</ele>
        <time>2021-10-31T14:32:40Z</time>
      </trkpt>
      <trkpt lat="28.525395" lon="-14.005605">
        <ele>172.741</ele>
        <time>2021-10-31T14:32:53Z</time>
      </trkpt>
      <trkpt lat="28.525628" lon="-14.005500">
        <ele>172.681</ele>
        <time>2021-10-31T14:35:37Z</time>
      </trkpt>
      <trkpt lat="28.525789" lon="-14.004163">
        <ele>169.809</ele>
        <time>2021-10-31T14:36:13Z</time>
      </trkpt>
      <trkpt lat="28.525084" lon="-14.002783">
        <ele>162.808</ele>
        <time>2021-10-31T14:36:38Z</time>
      </trkpt>
      <trkpt lat="28.524902" lon="-14.001323">
        <ele>157.862</ele>
        <time>2021-10-31T14:37:27Z</time>
      </trkpt>
      <trkpt lat="28.522956" lon="-13.998846">
        <ele>177.312</ele>
        <time>2021-10-31T14:39:28Z</time>
      </trkpt>
      <trkpt lat="28.521955" lon="-13.996640">
        <ele>186.569</ele>
        <time>2021-10-31T14:40:41Z</time>
      </trkpt>
      <trkpt lat="28.525251" lon="-13.993969">
        <ele>192.014</ele>
        <time>2021-10-31T14:42:34Z</time>
      </trkpt>
      <trkpt lat="28.526451" lon="-13.991042">
        <ele>198.674</ele>
        <time>2021-10-31T14:43:51Z</time>
      </trkpt>
      <trkpt lat="28.527127" lon="-13.990116">
        <ele>200.721</ele>
        <time>2021-10-31T14:44:16Z</time>
      </trkpt>
      <trkpt lat="28.527675" lon="-13.989780">
        <ele>201.258</ele>
        <time>2021-10-31T14:44:32Z</time>
      </trkpt>
      <trkpt lat="28.527910" lon="-13.989962">
        <ele>201.140</ele>
        <time>2021-10-31T15:08:48Z</time>
      </trkpt>
      <trkpt lat="28.527888" lon="-13.990222">
        <ele>200.653</ele>
        <time>2021-10-31T15:19:19Z</time>
      </trkpt>
      <trkpt lat="28.527765" lon="-13.989791">
        <ele>200.204</ele>
        <time>2021-10-31T15:23:23Z</time>
      </trkpt>
      <trkpt lat="28.527945" lon="-13.989607">
        <ele>200.014</ele>
        <time>2021-10-31T15:23:56Z</time>
      </trkpt>
      <trkpt lat="28.530805" lon="-13.989157">
        <ele>181.808</ele>
        <time>2021-10-31T15:24:34Z</time>
      </trkpt>
      <trkpt lat="28.532610" lon="-13.989578">
        <ele>169.823</ele>
        <time>2021-10-31T15:24:48Z</time>
      </trkpt>
      <trkpt lat="28.534170" lon="-13.989542">
        <ele>169.613</ele>
        <time>2021-10-31T15:25:03Z</time>
      </trkpt>
      <trkpt lat="28.535524" lon="-13.990039">
        <ele>165.480</ele>
        <time>2021-10-31T15:25:19Z</time>
      </trkpt>
      <trkpt lat="28.538629" lon="-13.990431">
        <ele>176.235</ele>
        <time>2021-10-31T15:26:22Z</time>
      </trkpt>
      <trkpt lat="28.540235" lon="-13.990258">
        <ele>172.665</ele>
        <time>2021-10-31T15:26:45Z</time>
      </trkpt>
      <trkpt lat="28.541450" lon="-13.991166">
        <ele>165.572</ele>
        <time>2021-10-31T15:27:02Z</time>
      </trkpt>
      <trkpt lat="28.543200" lon="-13.992024">
        <ele>147.349</ele>
        <time>2021-10-31T15:27:17Z</time>
      </trkpt>
      <trkpt lat="28.544820" lon="-13.991671">
        <ele>143.711</ele>
        <time>2021-10-31T15:27:29Z</time>
      </trkpt>
      <trkpt lat="28.547376" lon="-13.992128">
        <ele>145.373</ele>
        <time>2021-10-31T15:27:57Z</time>
      </trkpt>
      <trkpt lat="28.554883" lon="-13.988217">
        <ele>161.585</ele>
        <time>2021-10-31T15:30:52Z</time>
      </trkpt>
      <trkpt lat="28.555299" lon="-13.987765">
        <ele>164.713</ele>
        <time>2021-10-31T15:31:09Z</time>
      </trkpt>
      <trkpt lat="28.555629" lon="-13.985779">
        <ele>179.308</ele>
        <time>2021-10-31T15:32:23Z</time>
      </trkpt>
      <trkpt lat="28.556566" lon="-13.984047">
        <ele>189.015</ele>
        <time>2021-10-31T15:33:36Z</time>
      </trkpt>
      <trkpt lat="28.560170" lon="-13.978965">
        <ele>215.525</ele>
        <time>2021-10-31T15:37:20Z</time>
      </trkpt>
      <trkpt lat="28.561679" lon="-13.976073">
        <ele>235.722</ele>
        <time>2021-10-31T15:39:12Z</time>
      </trkpt>
      <trkpt lat="28.562727" lon="-13.969872">
        <ele>280.447</ele>
        <time>2021-10-31T15:43:40Z</time>
      </trkpt>
      <trkpt lat="28.563253" lon="-13.969935">
        <ele>283.747</ele>
        <time>2021-10-31T15:44:09Z</time>
      </trkpt>
      <trkpt lat="28.562741" lon="-13.973253">
        <ele>271.884</ele>
        <time>2021-10-31T15:45:33Z</time>
      </trkpt>
      <trkpt lat="28.563069" lon="-13.974119">
        <ele>270.581</ele>
        <time>2021-10-31T15:45:41Z</time>
      </trkpt>
      <trkpt lat="28.564399" lon="-13.975366">
        <ele>270.653</ele>
        <time>2021-10-31T15:46:00Z</time>
      </trkpt>
      <trkpt lat="28.568592" lon="-13.977958">
        <ele>266.925</ele>
        <time>2021-10-31T15:48:46Z</time>
      </trkpt>
      <trkpt lat="28.571215" lon="-13.978012">
        <ele>254.226</ele>
        <time>2021-10-31T15:49:24Z</time>
      </trkpt>
      <trkpt lat="28.572585" lon="-13.978841">
        <ele>247.208</ele>
        <time>2021-10-31T15:49:44Z</time>
      </trkpt>
      <trkpt lat="28.573084" lon="-13.978910">
        <ele>244.708</ele>
        <time>2021-10-31T15:49:51Z</time>
      </trkpt>
      <trkpt lat="28.575841" lon="-13.977628">
        <ele>235.240</ele>
        <time>2021-10-31T15:50:42Z</time>
      </trkpt>
      <trkpt lat="28.576670" lon="-13.977618">
        <ele>232.460</ele>
        <time>2021-10-31T15:51:06Z</time>
      </trkpt>
      <trkpt lat="28.576499" lon="-13.977829">
        <ele>231.157</ele>
        <time>2021-10-31T15:51:23Z</time>
      </trkpt>
      <trkpt lat="28.576796" lon="-13.978133">
        <ele>229.592</ele>
        <time>2021-10-31T15:51:30Z</time>
      </trkpt>
      <trkpt lat="28.577702" lon="-13.977616">
        <ele>227.282</ele>
        <time>2021-10-31T15:53:28Z</time>
      </trkpt>
      <trkpt lat="28.579193" lon="-13.977495">
        <ele>220.659</ele>
        <time>2021-10-31T15:53:52Z</time>
      </trkpt>
      <trkpt lat="28.580777" lon="-13.976881">
        <ele>215.076</ele>
        <time>2021-10-31T15:54:19Z</time>
      </trkpt>
      <trkpt lat="28.584267" lon="-13.977471">
        <ele>201.648</ele>
        <time>2021-10-31T15:55:38Z</time>
      </trkpt>
      <trkpt lat="28.585278" lon="-13.978394">
        <ele>199.224</ele>
        <time>2021-10-31T15:56:04Z</time>
      </trkpt>
      <trkpt lat="28.585250" lon="-13.979565">
        <ele>201.104</ele>
        <time>2021-10-31T15:56:27Z</time>
      </trkpt>
      <trkpt lat="28.584585" lon="-13.980476">
        <ele>207.014</ele>
        <time>2021-10-31T15:57:00Z</time>
      </trkpt>
      <trkpt lat="28.585217" lon="-13.979625">
        <ele>201.608</ele>
        <time>2021-10-31T15:57:35Z</time>
      </trkpt>
      <trkpt lat="28.585829" lon="-13.979585">
        <ele>196.110</ele>
        <time>2021-10-31T15:57:46Z</time>
      </trkpt>
      <trkpt lat="28.586126" lon="-13.979945">
        <ele>193.670</ele>
        <time>2021-10-31T15:57:55Z</time>
      </trkpt>
      <trkpt lat="28.585716" lon="-13.980834">
        <ele>199.997</ele>
        <time>2021-10-31T15:58:21Z</time>
      </trkpt>
      <trkpt lat="28.586791" lon="-13.981084">
        <ele>194.922</ele>
        <time>2021-10-31T15:59:05Z</time>
      </trkpt>
      <trkpt lat="28.586597" lon="-13.981264">
        <ele>192.672</ele>
        <time>2021-10-31T16:01:42Z</time>
      </trkpt>
      <trkpt lat="28.586701" lon="-13.981134">
        <ele>189.429</ele>
        <time>2021-10-31T16:02:29Z</time>
      </trkpt>
      <trkpt lat="28.586612" lon="-13.981256">
        <ele>188.766</ele>
        <time>2021-10-31T16:02:47Z</time>
      </trkpt>
      <trkpt lat="28.587051" lon="-13.981415">
        <ele>185.798</ele>
        <time>2021-10-31T16:06:40Z</time>
      </trkpt>
      <trkpt lat="28.587280" lon="-13.982478">
        <ele>183.527</ele>
        <time>2021-10-31T16:07:24Z</time>
      </trkpt>
      <trkpt lat="28.587056" lon="-13.982542">
        <ele>184.668</ele>
        <time>2021-10-31T16:07:33Z</time>
      </trkpt>
      <trkpt lat="28.587439" lon="-13.982315">
        <ele>182.314</ele>
        <time>2021-10-31T16:07:49Z</time>
      </trkpt>
      <trkpt lat="28.587638" lon="-13.982439">
        <ele>181.108</ele>
        <time>2021-10-31T16:07:54Z</time>
      </trkpt>
      <trkpt lat="28.587338" lon="-13.986067">
        <ele>179.840</ele>
        <time>2021-10-31T16:08:53Z</time>
      </trkpt>
      <trkpt lat="28.587693" lon="-13.983222">
        <ele>180.750</ele>
        <time>2021-10-31T16:10:46Z</time>
      </trkpt>
      <trkpt lat="28.587591" lon="-13.982267">
        <ele>181.437</ele>
        <time>2021-10-31T16:12:08Z</time>
      </trkpt>
      <trkpt lat="28.587760" lon="-13.982044">
        <ele>180.052</ele>
        <time>2021-10-31T16:12:14Z</time>
      </trkpt>
      <trkpt lat="28.587752" lon="-13.981137">
        <ele>180.622</ele>
        <time>2021-10-31T16:12:38Z</time>
      </trkpt>
      <trkpt lat="28.587291" lon="-13.981273">
        <ele>182.569</ele>
        <time>2021-10-31T16:12:54Z</time>
      </trkpt>
      <trkpt lat="28.587707" lon="-13.981102">
        <ele>180.616</ele>
        <time>2021-10-31T16:13:11Z</time>
      </trkpt>
      <trkpt lat="28.587895" lon="-13.980311">
        <ele>179.988</ele>
        <time>2021-10-31T16:13:30Z</time>
      </trkpt>
      <trkpt lat="28.586860" lon="-13.980083">
        <ele>186.535</ele>
        <time>2021-10-31T16:14:02Z</time>
      </trkpt>
      <trkpt lat="28.586540" lon="-13.979611">
        <ele>190.086</ele>
        <time>2021-10-31T16:14:25Z</time>
      </trkpt>
      <trkpt lat="28.586169" lon="-13.977143">
        <ele>191.414</ele>
        <time>2021-10-31T16:15:15Z</time>
      </trkpt>
      <trkpt lat="28.585570" lon="-13.975148">
        <ele>192.808</ele>
        <time>2021-10-31T16:15:58Z</time>
      </trkpt>
      <trkpt lat="28.585403" lon="-13.970502">
        <ele>197.691</ele>
        <time>2021-10-31T16:17:31Z</time>
      </trkpt>
      <trkpt lat="28.586115" lon="-13.969524">
        <ele>195.091</ele>
        <time>2021-10-31T16:17:51Z</time>
      </trkpt>
      <trkpt lat="28.587633" lon="-13.965971">
        <ele>194.888</ele>
        <time>2021-10-31T16:19:05Z</time>
      </trkpt>
      <trkpt lat="28.587487" lon="-13.965360">
        <ele>197.133</ele>
        <time>2021-10-31T16:19:23Z</time>
      </trkpt>
      <trkpt lat="28.591741" lon="-13.960705">
        <ele>208.273</ele>
        <time>2021-10-31T16:21:51Z</time>
      </trkpt>
      <trkpt lat="28.597094" lon="-13.955791">
        <ele>224.940</ele>
        <time>2021-10-31T16:25:08Z</time>
      </trkpt>
      <trkpt lat="28.599503" lon="-13.952163">
        <ele>229.767</ele>
        <time>2021-10-31T16:26:47Z</time>
      </trkpt>
      <trkpt lat="28.601014" lon="-13.951093">
        <ele>236.039</ele>
        <time>2021-10-31T16:27:31Z</time>
      </trkpt>
      <trkpt lat="28.601378" lon="-13.950393">
        <ele>235.876</ele>
        <time>2021-10-31T16:27:48Z</time>
      </trkpt>
      <trkpt lat="28.601477" lon="-13.948714">
        <ele>232.590</ele>
        <time>2021-10-31T16:28:14Z</time>
      </trkpt>
      <trkpt lat="28.602259" lon="-13.947497">
        <ele>228.719</ele>
        <time>2021-10-31T16:28:35Z</time>
      </trkpt>
      <trkpt lat="28.602181" lon="-13.945946">
        <ele>222.008</ele>
        <time>2021-10-31T16:28:54Z</time>
      </trkpt>
      <trkpt lat="28.602491" lon="-13.945247">
        <ele>220.055</ele>
        <time>2021-10-31T16:29:03Z</time>
      </trkpt>
      <trkpt lat="28.603501" lon="-13.944085">
        <ele>219.695</ele>
        <time>2021-10-31T16:29:27Z</time>
      </trkpt>
      <trkpt lat="28.607258" lon="-13.941156">
        <ele>213.182</ele>
        <time>2021-10-31T16:30:45Z</time>
      </trkpt>
      <trkpt lat="28.608426" lon="-13.939751">
        <ele>212.587</ele>
        <time>2021-10-31T16:31:16Z</time>
      </trkpt>
      <trkpt lat="28.609255" lon="-13.938314">
        <ele>213.067</ele>
        <time>2021-10-31T16:31:46Z</time>
      </trkpt>
      <trkpt lat="28.609546" lon="-13.937385">
        <ele>213.234</ele>
        <time>2021-10-31T16:32:03Z</time>
      </trkpt>
      <trkpt lat="28.610303" lon="-13.932146">
        <ele>217.631</ele>
        <time>2021-10-31T16:34:52Z</time>
      </trkpt>
      <trkpt lat="28.611202" lon="-13.928058">
        <ele>220.753</ele>
        <time>2021-10-31T16:36:27Z</time>
      </trkpt>
      <trkpt lat="28.611163" lon="-13.928330">
        <ele>220.625</ele>
        <time>2021-10-31T16:37:03Z</time>
      </trkpt>
      <trkpt lat="28.611199" lon="-13.928093">
        <ele>220.526</ele>
        <time>2021-10-31T16:37:36Z</time>
      </trkpt>
      <trkpt lat="28.610599" lon="-13.928288">
        <ele>220.608</ele>
        <time>2021-10-31T16:38:28Z</time>
      </trkpt>
      <trkpt lat="28.610640" lon="-13.927687">
        <ele>220.708</ele>
        <time>2021-10-31T16:38:43Z</time>
      </trkpt>
      <trkpt lat="28.610727" lon="-13.927850">
        <ele>220.720</ele>
        <time>2021-10-31T16:39:31Z</time>
      </trkpt>
      <trkpt lat="28.607466" lon="-13.925537">
        <ele>221.350</ele>
        <time>2021-10-31T16:41:31Z</time>
      </trkpt>
      <trkpt lat="28.610520" lon="-13.927687">
        <ele>220.697</ele>
        <time>2021-10-31T16:44:53Z</time>
      </trkpt>
      <trkpt lat="28.610572" lon="-13.928206">
        <ele>220.652</ele>
        <time>2021-10-31T16:45:06Z</time>
      </trkpt>
      <trkpt lat="28.611164" lon="-13.928460">
        <ele>220.932</ele>
        <time>2021-10-31T16:45:22Z</time>
      </trkpt>
      <trkpt lat="28.611483" lon="-13.928316">
        <ele>220.859</ele>
        <time>2021-10-31T16:45:33Z</time>
      </trkpt>
      <trkpt lat="28.613007" lon="-13.931074">
        <ele>219.336</ele>
        <time>2021-10-31T16:46:35Z</time>
      </trkpt>
      <trkpt lat="28.615751" lon="-13.934217">
        <ele>218.598</ele>
        <time>2021-10-31T16:47:48Z</time>
      </trkpt>
      <trkpt lat="28.615699" lon="-13.934065">
        <ele>218.434</ele>
        <time>2021-10-31T16:49:06Z</time>
      </trkpt>
      <trkpt lat="28.617976" lon="-13.936655">
        <ele>213.655</ele>
        <time>2021-10-31T16:51:26Z</time>
      </trkpt>
      <trkpt lat="28.622096" lon="-13.940425">
        <ele>212.710</ele>
        <time>2021-10-31T16:52:52Z</time>
      </trkpt>
      <trkpt lat="28.623707" lon="-13.942482">
        <ele>209.308</ele>
        <time>2021-10-31T16:53:33Z</time>
      </trkpt>
      <trkpt lat="28.634406" lon="-13.947778">
        <ele>175.651</ele>
        <time>2021-10-31T16:56:04Z</time>
      </trkpt>
      <trkpt lat="28.636282" lon="-13.947925">
        <ele>171.591</ele>
        <time>2021-10-31T16:56:36Z</time>
      </trkpt>
      <trkpt lat="28.637337" lon="-13.947731">
        <ele>168.748</ele>
        <time>2021-10-31T16:56:53Z</time>
      </trkpt>
      <trkpt lat="28.643287" lon="-13.945585">
        <ele>164.063</ele>
        <time>2021-10-31T16:58:46Z</time>
      </trkpt>
      <trkpt lat="28.645520" lon="-13.945016">
        <ele>162.963</ele>
        <time>2021-10-31T16:59:28Z</time>
      </trkpt>
      <trkpt lat="28.669499" lon="-13.941931">
        <ele>90.160</ele>
        <time>2021-10-31T17:05:57Z</time>
      </trkpt>
      <trkpt lat="28.679163" lon="-13.941627">
        <ele>71.487</ele>
        <time>2021-10-31T17:09:37Z</time>
      </trkpt>
      <trkpt lat="28.679086" lon="-13.940261">
        <ele>72.939</ele>
        <time>2021-10-31T17:10:48Z</time>
      </trkpt>
      <trkpt lat="28.678490" lon="-13.938485">
        <ele>74.051</ele>
        <time>2021-10-31T17:11:22Z</time>
      </trkpt>
      <trkpt lat="28.678496" lon="-13.937464">
        <ele>74.001</ele>
        <time>2021-10-31T17:11:43Z</time>
      </trkpt>
      <trkpt lat="28.679454" lon="-13.933166">
        <ele>73.111</ele>
        <time>2021-10-31T17:13:14Z</time>
      </trkpt>
      <trkpt lat="28.679495" lon="-13.932171">
        <ele>73.208</ele>
        <time>2021-10-31T17:14:12Z</time>
      </trkpt>
      <trkpt lat="28.684227" lon="-13.931454">
        <ele>77.783</ele>
        <time>2021-10-31T17:16:18Z</time>
      </trkpt>
      <trkpt lat="28.685940" lon="-13.931483">
        <ele>81.353</ele>
        <time>2021-10-31T17:16:56Z</time>
      </trkpt>
      <trkpt lat="28.687706" lon="-13.931936">
        <ele>85.990</ele>
        <time>2021-10-31T17:17:54Z</time>
      </trkpt>
      <trkpt lat="28.687583" lon="-13.932382">
        <ele>85.985</ele>
        <time>2021-10-31T17:18:18Z</time>
      </trkpt>
      <trkpt lat="28.687837" lon="-13.932285">
        <ele>85.975</ele>
        <time>2021-10-31T17:18:29Z</time>
      </trkpt>
      <trkpt lat="28.687541" lon="-13.931948">
        <ele>85.932</ele>
        <time>2021-10-31T17:18:43Z</time>
      </trkpt>
      <trkpt lat="28.689698" lon="-13.931621">
        <ele>86.599</ele>
        <time>2021-10-31T17:21:05Z</time>
      </trkpt>
      <trkpt lat="28.694651" lon="-13.934830">
        <ele>99.461</ele>
        <time>2021-10-31T17:23:51Z</time>
      </trkpt>
      <trkpt lat="28.697638" lon="-13.936247">
        <ele>105.721</ele>
        <time>2021-10-31T17:25:11Z</time>
      </trkpt>
      <trkpt lat="28.702070" lon="-13.937262">
        <ele>92.241</ele>
        <time>2021-10-31T17:26:24Z</time>
      </trkpt>
      <trkpt lat="28.706663" lon="-13.937068">
        <ele>79.805</ele>
        <time>2021-10-31T17:27:28Z</time>
      </trkpt>
      <trkpt lat="28.710286" lon="-13.936447">
        <ele>80.608</ele>
        <time>2021-10-31T17:28:37Z</time>
      </trkpt>
      <trkpt lat="28.710328" lon="-13.936127">
        <ele>80.580</ele>
        <time>2021-10-31T17:29:24Z</time>
      </trkpt>
      <trkpt lat="28.710904" lon="-13.935797">
        <ele>79.610</ele>
        <time>2021-10-31T17:29:43Z</time>
      </trkpt>
      <trkpt lat="28.711598" lon="-13.936283">
        <ele>77.167</ele>
        <time>2021-10-31T17:29:45Z</time>
      </trkpt>
      <trkpt lat="28.721415" lon="-13.937581">
        <ele>47.972</ele>
        <time>2021-10-31T17:32:01Z</time>
      </trkpt>
      <trkpt lat="28.736325" lon="-13.938939">
        <ele>18.362</ele>
        <time>2021-10-31T17:35:55Z</time>
      </trkpt>
      <trkpt lat="28.738514" lon="-13.938810">
        <ele>5.749</ele>
        <time>2021-10-31T17:37:57Z</time>
      </trkpt>
      <trkpt lat="28.738708" lon="-13.938561">
        <ele>5.376</ele>
        <time>2021-10-31T17:38:06Z</time>
      </trkpt>
      <trkpt lat="28.738651" lon="-13.937235">
        <ele>4.348</ele>
        <time>2021-10-31T17:39:02Z</time>
      </trkpt>
      <trkpt lat="28.739490" lon="-13.936481">
        <ele>4.926</ele>
        <time>2021-10-31T17:39:28Z</time>
      </trkpt>
      <trkpt lat="28.740051" lon="-13.934773">
        <ele>8.447</ele>
        <time>2021-10-31T17:40:14Z</time>
      </trkpt>
      <trkpt lat="28.740292" lon="-13.933284">
        <ele>11.111</ele>
        <time>2021-10-31T17:41:17Z</time>
      </trkpt>
      <trkpt lat="28.740220" lon="-13.932014">
        <ele>13.808</ele>
        <time>2021-10-31T17:41:50Z</time>
      </trkpt>
      <trkpt lat="28.739806" lon="-13.930984">
        <ele>14.490</ele>
        <time>2021-10-31T17:42:19Z</time>
      </trkpt>
      <trkpt lat="28.739706" lon="-13.929146">
        <ele>14.230</ele>
        <time>2021-10-31T17:43:30Z</time>
      </trkpt>
      <trkpt lat="28.740496" lon="-13.928003">
        <ele>13.947</ele>
        <time>2021-10-31T17:44:05Z</time>
      </trkpt>
      <trkpt lat="28.741605" lon="-13.924651">
        <ele>14.712</ele>
        <time>2021-10-31T17:45:24Z</time>
      </trkpt>
      <trkpt lat="28.741975" lon="-13.921775">
        <ele>14.412</ele>
        <time>2021-10-31T17:46:30Z</time>
      </trkpt>
      <trkpt lat="28.743001" lon="-13.919777">
        <ele>13.219</ele>
        <time>2021-10-31T17:47:19Z</time>
      </trkpt>
      <trkpt lat="28.743118" lon="-13.918312">
        <ele>12.216</ele>
        <time>2021-10-31T17:47:49Z</time>
      </trkpt>
      <trkpt lat="28.743605" lon="-13.917706">
        <ele>11.498</ele>
        <time>2021-10-31T17:48:05Z</time>
      </trkpt>
      <trkpt lat="28.743805" lon="-13.915055">
        <ele>5.065</ele>
        <time>2021-10-31T17:49:49Z</time>
      </trkpt>
      <trkpt lat="28.744719" lon="-13.913016">
        <ele>5.568</ele>
        <time>2021-10-31T17:51:02Z</time>
      </trkpt>
      <trkpt lat="28.744809" lon="-13.911138">
        <ele>5.914</ele>
        <time>2021-10-31T17:51:44Z</time>
      </trkpt>
      <trkpt lat="28.745407" lon="-13.908065">
        <ele>5.408</ele>
        <time>2021-10-31T17:52:39Z</time>
      </trkpt>
      <trkpt lat="28.745335" lon="-13.908365">
        <ele>5.314</ele>
        <time>2021-10-31T17:52:40Z</time>
      </trkpt>
      <trkpt lat="28.745728" lon="-13.907704">
        <ele>5.064</ele>
        <time>2021-10-31T17:53:18Z</time>
      </trkpt>
      <trkpt lat="28.747155" lon="-13.907369">
        <ele>6.351</ele>
        <time>2021-10-31T17:53:49Z</time>
      </trkpt>
      <trkpt lat="28.747826" lon="-13.906573">
        <ele>8.346</ele>
        <time>2021-10-31T17:54:17Z</time>
      </trkpt>
      <trkpt lat="28.748073" lon="-13.907123">
        <ele>2.636</ele>
        <time>2021-10-31T17:55:17Z</time>
      </trkpt>
      <trkpt lat="28.747740" lon="-13.907220">
        <ele>3.223</ele>
        <time>2021-10-31T17:56:08Z</time>
      </trkpt>
      <trkpt lat="28.748198" lon="-13.907060">
        <ele>3.840</ele>
        <time>2021-10-31T17:57:28Z</time>
      </trkpt>
      <trkpt lat="28.747721" lon="-13.906666">
        <ele>8.122</ele>
        <time>2021-10-31T17:58:31Z</time>
      </trkpt>
      <trkpt lat="28.748112" lon="-13.906327">
        <ele>8.558</ele>
        <time>2021-10-31T17:58:52Z</time>
      </trkpt>
      <trkpt lat="28.748155" lon="-13.906631">
        <ele>8.652</ele>
        <time>2021-10-31T17:59:23Z</time>
      </trkpt>
      <trkpt lat="28.748113" lon="-13.906296">
        <ele>8.717</ele>
        <time>2021-10-31T18:00:02Z</time>
      </trkpt>
      <trkpt lat="28.748136" lon="-13.906704">
        <ele>8.508</ele>
        <time>2021-10-31T18:00:40Z</time>
      </trkpt>
      <trkpt lat="28.748288" lon="-13.906629">
        <ele>8.473</ele>
        <time>2021-10-31T18:02:20Z</time>
      </trkpt>
      <trkpt lat="28.748127" lon="-13.906656">
        <ele>8.413</ele>
        <time>2021-10-31T18:02:48Z</time>
      </trkpt>
      <trkpt lat="28.748199" lon="-13.907076">
        <ele>8.260</ele>
        <time>2021-10-31T18:04:18Z</time>
      </trkpt>
      <trkpt lat="28.748347" lon="-13.907075">
        <ele>8.115</ele>
        <time>2021-10-31T18:04:56Z</time>
      </trkpt>
      <trkpt lat="28.747889" lon="-13.906158">
        <ele>9.047</ele>
        <time>2021-11-01T08:26:37Z</time>
      </trkpt>
      <trkpt lat="28.747832" lon="-13.906370">
        <ele>9.429</ele>
        <time>2021-11-01T08:26:43Z</time>
      </trkpt>
      <trkpt lat="28.748190" lon="-13.905095">
        <ele>11.221</ele>
        <time>2021-11-01T08:27:34Z</time>
      </trkpt>
      <trkpt lat="28.748173" lon="-13.904490">
        <ele>11.608</ele>
        <time>2021-11-01T08:27:56Z</time>
      </trkpt>
      <trkpt lat="28.748629" lon="-13.903599">
        <ele>10.522</ele>
        <time>2021-11-01T08:28:33Z</time>
      </trkpt>
      <trkpt lat="28.749304" lon="-13.902826">
        <ele>8.992</ele>
        <time>2021-11-01T08:29:01Z</time>
      </trkpt>
      <trkpt lat="28.750948" lon="-13.901647">
        <ele>8.369</ele>
        <time>2021-11-01T08:30:16Z</time>
      </trkpt>
      <trkpt lat="28.751987" lon="-13.899835">
        <ele>7.854</ele>
        <time>2021-11-01T08:31:24Z</time>
      </trkpt>
      <trkpt lat="28.751578" lon="-13.897185">
        <ele>9.664</ele>
        <time>2021-11-01T08:32:59Z</time>
      </trkpt>
      <trkpt lat="28.751862" lon="-13.896342">
        <ele>10.691</ele>
        <time>2021-11-01T08:33:21Z</time>
      </trkpt>
      <trkpt lat="28.751786" lon="-13.895829">
        <ele>9.772</ele>
        <time>2021-11-01T08:33:36Z</time>
      </trkpt>
      <trkpt lat="28.753023" lon="-13.893621">
        <ele>15.335</ele>
        <time>2021-11-01T08:34:53Z</time>
      </trkpt>
      <trkpt lat="28.753601" lon="-13.893404">
        <ele>16.729</ele>
        <time>2021-11-01T08:35:16Z</time>
      </trkpt>
      <trkpt lat="28.754060" lon="-13.892446">
        <ele>15.600</ele>
        <time>2021-11-01T08:35:45Z</time>
      </trkpt>
      <trkpt lat="28.754692" lon="-13.892108">
        <ele>15.120</ele>
        <time>2021-11-01T08:36:07Z</time>
      </trkpt>
      <trkpt lat="28.755008" lon="-13.891721">
        <ele>13.508</ele>
        <time>2021-11-01T08:36:19Z</time>
      </trkpt>
      <trkpt lat="28.755035" lon="-13.890258">
        <ele>11.070</ele>
        <time>2021-11-01T08:36:58Z</time>
      </trkpt>
      <trkpt lat="28.755803" lon="-13.889287">
        <ele>10.090</ele>
        <time>2021-11-01T08:37:33Z</time>
      </trkpt>
      <trkpt lat="28.755594" lon="-13.889791">
        <ele>9.217</ele>
        <time>2021-11-01T08:38:11Z</time>
      </trkpt>
      <trkpt lat="28.755545" lon="-13.889617">
        <ele>8.542</ele>
        <time>2021-11-01T08:39:10Z</time>
      </trkpt>
      <trkpt lat="28.755972" lon="-13.889037">
        <ele>6.572</ele>
        <time>2021-11-01T08:39:28Z</time>
      </trkpt>
      <trkpt lat="28.755435" lon="-13.887231">
        <ele>6.089</ele>
        <time>2021-11-01T08:40:14Z</time>
      </trkpt>
      <trkpt lat="28.753593" lon="-13.885348">
        <ele>5.760</ele>
        <time>2021-11-01T08:41:29Z</time>
      </trkpt>
      <trkpt lat="28.753063" lon="-13.884973">
        <ele>5.143</ele>
        <time>2021-11-01T08:42:15Z</time>
      </trkpt>
      <trkpt lat="28.752644" lon="-13.884084">
        <ele>4.688</ele>
        <time>2021-11-01T08:42:37Z</time>
      </trkpt>
      <trkpt lat="28.751293" lon="-13.883487">
        <ele>6.224</ele>
        <time>2021-11-01T08:43:16Z</time>
      </trkpt>
      <trkpt lat="28.750529" lon="-13.883403">
        <ele>5.626</ele>
        <time>2021-11-01T08:43:35Z</time>
      </trkpt>
      <trkpt lat="28.750004" lon="-13.883059">
        <ele>6.208</ele>
        <time>2021-11-01T08:43:51Z</time>
      </trkpt>
      <trkpt lat="28.749887" lon="-13.882792">
        <ele>6.816</ele>
        <time>2021-11-01T08:43:58Z</time>
      </trkpt>
      <trkpt lat="28.750220" lon="-13.881873">
        <ele>13.416</ele>
        <time>2021-11-01T08:44:33Z</time>
      </trkpt>
      <trkpt lat="28.749429" lon="-13.879561">
        <ele>16.823</ele>
        <time>2021-11-01T08:46:29Z</time>
      </trkpt>
      <trkpt lat="28.748801" lon="-13.878798">
        <ele>14.418</ele>
        <time>2021-11-01T08:47:29Z</time>
      </trkpt>
      <trkpt lat="28.748387" lon="-13.878778">
        <ele>12.498</ele>
        <time>2021-11-01T08:47:35Z</time>
      </trkpt>
      <trkpt lat="28.747402" lon="-13.878372">
        <ele>12.435</ele>
        <time>2021-11-01T08:48:01Z</time>
      </trkpt>
      <trkpt lat="28.746578" lon="-13.876961">
        <ele>12.296</ele>
        <time>2021-11-01T08:48:44Z</time>
      </trkpt>
      <trkpt lat="28.746122" lon="-13.875857">
        <ele>11.229</ele>
        <time>2021-11-01T08:49:14Z</time>
      </trkpt>
      <trkpt lat="28.744709" lon="-13.875364">
        <ele>10.553</ele>
        <time>2021-11-01T08:49:58Z</time>
      </trkpt>
      <trkpt lat="28.743659" lon="-13.874806">
        <ele>9.604</ele>
        <time>2021-11-01T08:50:31Z</time>
      </trkpt>
      <trkpt lat="28.742876" lon="-13.875029">
        <ele>4.514</ele>
        <time>2021-11-01T08:50:55Z</time>
      </trkpt>
      <trkpt lat="28.742492" lon="-13.874883">
        <ele>4.108</ele>
        <time>2021-11-01T08:51:03Z</time>
      </trkpt>
      <trkpt lat="28.741773" lon="-13.873019">
        <ele>4.153</ele>
        <time>2021-11-01T08:54:44Z</time>
      </trkpt>
      <trkpt lat="28.741867" lon="-13.871578">
        <ele>6.653</ele>
        <time>2021-11-01T08:57:26Z</time>
      </trkpt>
      <trkpt lat="28.741400" lon="-13.870899">
        <ele>9.810</ele>
        <time>2021-11-01T08:58:39Z</time>
      </trkpt>
      <trkpt lat="28.739750" lon="-13.871085">
        <ele>14.515</ele>
        <time>2021-11-01T08:59:36Z</time>
      </trkpt>
      <trkpt lat="28.738480" lon="-13.871420">
        <ele>17.155</ele>
        <time>2021-11-01T09:00:17Z</time>
      </trkpt>
      <trkpt lat="28.738960" lon="-13.871026">
        <ele>16.522</ele>
        <time>2021-11-01T09:02:06Z</time>
      </trkpt>
      <trkpt lat="28.739050" lon="-13.871313">
        <ele>16.463</ele>
        <time>2021-11-01T09:12:39Z</time>
      </trkpt>
      <trkpt lat="28.738963" lon="-13.871015">
        <ele>16.626</ele>
        <time>2021-11-01T09:17:45Z</time>
      </trkpt>
      <trkpt lat="28.738950" lon="-13.871260">
        <ele>16.866</ele>
        <time>2021-11-01T09:21:58Z</time>
      </trkpt>
      <trkpt lat="28.735740" lon="-13.872867">
        <ele>22.229</ele>
        <time>2021-11-01T09:23:22Z</time>
      </trkpt>
      <trkpt lat="28.734756" lon="-13.873118">
        <ele>23.021</ele>
        <time>2021-11-01T09:24:30Z</time>
      </trkpt>
      <trkpt lat="28.724770" lon="-13.876730">
        <ele>44.008</ele>
        <time>2021-11-01T09:28:37Z</time>
      </trkpt>
      <trkpt lat="28.724360" lon="-13.877115">
        <ele>46.464</ele>
        <time>2021-11-01T09:28:57Z</time>
      </trkpt>
      <trkpt lat="28.724010" lon="-13.876999">
        <ele>47.464</ele>
        <time>2021-11-01T09:29:12Z</time>
      </trkpt>
      <trkpt lat="28.723823" lon="-13.877291">
        <ele>48.311</ele>
        <time>2021-11-01T09:29:29Z</time>
      </trkpt>
      <trkpt lat="28.724092" lon="-13.876417">
        <ele>45.946</ele>
        <time>2021-11-01T09:30:52Z</time>
      </trkpt>
      <trkpt lat="28.722551" lon="-13.873225">
        <ele>36.776</ele>
        <time>2021-11-01T09:33:28Z</time>
      </trkpt>
      <trkpt lat="28.722596" lon="-13.872934">
        <ele>36.333</ele>
        <time>2021-11-01T09:33:33Z</time>
      </trkpt>
      <trkpt lat="28.723294" lon="-13.872914">
        <ele>36.294</ele>
        <time>2021-11-01T09:33:46Z</time>
      </trkpt>
      <trkpt lat="28.728674" lon="-13.871410">
        <ele>26.177</ele>
        <time>2021-11-01T09:35:54Z</time>
      </trkpt>
      <trkpt lat="28.728963" lon="-13.871260">
        <ele>24.259</ele>
        <time>2021-11-01T09:36:02Z</time>
      </trkpt>
      <trkpt lat="28.729066" lon="-13.870969">
        <ele>22.503</ele>
        <time>2021-11-01T09:36:09Z</time>
      </trkpt>
      <trkpt lat="28.728116" lon="-13.863524">
        <ele>13.523</ele>
        <time>2021-11-01T09:38:41Z</time>
      </trkpt>
      <trkpt lat="28.727889" lon="-13.863208">
        <ele>13.608</ele>
        <time>2021-11-01T09:38:50Z</time>
      </trkpt>
      <trkpt lat="28.728041" lon="-13.862819">
        <ele>13.623</ele>
        <time>2021-11-01T09:38:59Z</time>
      </trkpt>
      <trkpt lat="28.727512" lon="-13.858662">
        <ele>10.933</ele>
        <time>2021-11-01T09:40:14Z</time>
      </trkpt>
      <trkpt lat="28.726997" lon="-13.857363">
        <ele>12.180</ele>
        <time>2021-11-01T09:40:39Z</time>
      </trkpt>
      <trkpt lat="28.725701" lon="-13.855698">
        <ele>14.295</ele>
        <time>2021-11-01T09:41:55Z</time>
      </trkpt>
      <trkpt lat="28.725918" lon="-13.855269">
        <ele>13.545</ele>
        <time>2021-11-01T09:42:05Z</time>
      </trkpt>
      <trkpt lat="28.726209" lon="-13.853571">
        <ele>9.762</ele>
        <time>2021-11-01T09:42:30Z</time>
      </trkpt>
      <trkpt lat="28.725630" lon="-13.851567">
        <ele>9.873</ele>
        <time>2021-11-01T09:43:25Z</time>
      </trkpt>
      <trkpt lat="28.725736" lon="-13.848396">
        <ele>6.996</ele>
        <time>2021-11-01T09:45:05Z</time>
      </trkpt>
      <trkpt lat="28.725451" lon="-13.847519">
        <ele>5.563</ele>
        <time>2021-11-01T09:45:20Z</time>
      </trkpt>
      <trkpt lat="28.724899" lon="-13.846614">
        <ele>4.944</ele>
        <time>2021-11-01T09:45:38Z</time>
      </trkpt>
      <trkpt lat="28.724233" lon="-13.845969">
        <ele>4.918</ele>
        <time>2021-11-01T09:45:54Z</time>
      </trkpt>
      <trkpt lat="28.723410" lon="-13.845528">
        <ele>5.308</ele>
        <time>2021-11-01T09:46:10Z</time>
      </trkpt>
      <trkpt lat="28.715210" lon="-13.842661">
        <ele>9.214</ele>
        <time>2021-11-01T09:48:47Z</time>
      </trkpt>
      <trkpt lat="28.714437" lon="-13.842507">
        <ele>11.834</ele>
        <time>2021-11-01T09:49:03Z</time>
      </trkpt>
      <trkpt lat="28.708701" lon="-13.842981">
        <ele>7.451</ele>
        <time>2021-11-01T09:50:36Z</time>
      </trkpt>
      <trkpt lat="28.706054" lon="-13.844078">
        <ele>9.686</ele>
        <time>2021-11-01T09:51:26Z</time>
      </trkpt>
      <trkpt lat="28.702627" lon="-13.843567">
        <ele>15.866</ele>
        <time>2021-11-01T09:53:32Z</time>
      </trkpt>
      <trkpt lat="28.699960" lon="-13.841874">
        <ele>14.873</ele>
        <time>2021-11-01T09:54:32Z</time>
      </trkpt>
      <trkpt lat="28.698812" lon="-13.840716">
        <ele>14.974</ele>
        <time>2021-11-01T09:55:04Z</time>
      </trkpt>
      <trkpt lat="28.698373" lon="-13.840185">
        <ele>15.247</ele>
        <time>2021-11-01T09:55:22Z</time>
      </trkpt>
      <trkpt lat="28.698381" lon="-13.839997">
        <ele>16.131</ele>
        <time>2021-11-01T09:55:30Z</time>
      </trkpt>
      <trkpt lat="28.698682" lon="-13.839896">
        <ele>15.461</ele>
        <time>2021-11-01T09:55:59Z</time>
      </trkpt>
      <trkpt lat="28.698682" lon="-13.838982">
        <ele>10.307</ele>
        <time>2021-11-01T09:58:41Z</time>
      </trkpt>
      <trkpt lat="28.698496" lon="-13.839231">
        <ele>14.208</ele>
        <time>2021-11-01T10:02:45Z</time>
      </trkpt>
      <trkpt lat="28.698621" lon="-13.839157">
        <ele>12.871</ele>
        <time>2021-11-01T10:07:45Z</time>
      </trkpt>
      <trkpt lat="28.698653" lon="-13.839627">
        <ele>14.821</ele>
        <time>2021-11-01T10:09:05Z</time>
      </trkpt>
      <trkpt lat="28.698890" lon="-13.839615">
        <ele>14.358</ele>
        <time>2021-11-01T10:09:31Z</time>
      </trkpt>
      <trkpt lat="28.698654" lon="-13.839975">
        <ele>15.113</ele>
        <time>2021-11-01T10:13:43Z</time>
      </trkpt>
      <trkpt lat="28.698397" lon="-13.840078">
        <ele>15.253</ele>
        <time>2021-11-01T10:15:08Z</time>
      </trkpt>
      <trkpt lat="28.698103" lon="-13.839942">
        <ele>15.250</ele>
        <time>2021-11-01T10:17:28Z</time>
      </trkpt>
      <trkpt lat="28.696742" lon="-13.838501">
        <ele>16.721</ele>
        <time>2021-11-01T10:18:14Z</time>
      </trkpt>
      <trkpt lat="28.695516" lon="-13.837871">
        <ele>16.434</ele>
        <time>2021-11-01T10:18:43Z</time>
      </trkpt>
      <trkpt lat="28.691634" lon="-13.837326">
        <ele>18.511</ele>
        <time>2021-11-01T10:21:03Z</time>
      </trkpt>
      <trkpt lat="28.690834" lon="-13.836992">
        <ele>18.121</ele>
        <time>2021-11-01T10:21:21Z</time>
      </trkpt>
      <trkpt lat="28.689951" lon="-13.836324">
        <ele>17.603</ele>
        <time>2021-11-01T10:21:42Z</time>
      </trkpt>
      <trkpt lat="28.687717" lon="-13.833663">
        <ele>10.508</ele>
        <time>2021-11-01T10:22:35Z</time>
      </trkpt>
      <trkpt lat="28.687120" lon="-13.833288">
        <ele>8.439</ele>
        <time>2021-11-01T10:22:45Z</time>
      </trkpt>
      <trkpt lat="28.686307" lon="-13.833118">
        <ele>7.229</ele>
        <time>2021-11-01T10:22:57Z</time>
      </trkpt>
      <trkpt lat="28.679452" lon="-13.833297">
        <ele>12.556</ele>
        <time>2021-11-01T10:26:56Z</time>
      </trkpt>
      <trkpt lat="28.675047" lon="-13.834573">
        <ele>13.781</ele>
        <time>2021-11-01T10:32:02Z</time>
      </trkpt>
      <trkpt lat="28.674332" lon="-13.834461">
        <ele>12.371</ele>
        <time>2021-11-01T10:32:12Z</time>
      </trkpt>
      <trkpt lat="28.671734" lon="-13.833599">
        <ele>14.318</ele>
        <time>2021-11-01T10:32:56Z</time>
      </trkpt>
      <trkpt lat="28.664048" lon="-13.833288">
        <ele>21.579</ele>
        <time>2021-11-01T10:35:01Z</time>
      </trkpt>
      <trkpt lat="28.654813" lon="-13.832001">
        <ele>22.952</ele>
        <time>2021-11-01T10:37:25Z</time>
      </trkpt>
      <trkpt lat="28.649479" lon="-13.831892">
        <ele>22.299</ele>
        <time>2021-11-01T10:38:45Z</time>
      </trkpt>
      <trkpt lat="28.641082" lon="-13.831019">
        <ele>28.007</ele>
        <time>2021-11-01T10:41:10Z</time>
      </trkpt>
      <trkpt lat="28.638690" lon="-13.831370">
        <ele>30.927</ele>
        <time>2021-11-01T10:41:58Z</time>
      </trkpt>
      <trkpt lat="28.638705" lon="-13.831244">
        <ele>31.408</ele>
        <time>2021-11-01T10:43:17Z</time>
      </trkpt>
      <trkpt lat="28.638724" lon="-13.831347">
        <ele>31.657</ele>
        <time>2021-11-01T10:43:25Z</time>
      </trkpt>
      <trkpt lat="28.637355" lon="-13.831682">
        <ele>34.017</ele>
        <time>2021-11-01T10:44:17Z</time>
      </trkpt>
      <trkpt lat="28.627435" lon="-13.834967">
        <ele>46.644</ele>
        <time>2021-11-01T10:47:12Z</time>
      </trkpt>
      <trkpt lat="28.625751" lon="-13.835254">
        <ele>46.079</ele>
        <time>2021-11-01T10:47:35Z</time>
      </trkpt>
      <trkpt lat="28.624135" lon="-13.835318">
        <ele>45.549</ele>
        <time>2021-11-01T10:47:57Z</time>
      </trkpt>
      <trkpt lat="28.621636" lon="-13.834996">
        <ele>44.436</ele>
        <time>2021-11-01T10:48:30Z</time>
      </trkpt>
      <trkpt lat="28.612822" lon="-13.832582">
        <ele>26.167</ele>
        <time>2021-11-01T10:50:22Z</time>
      </trkpt>
      <trkpt lat="28.611819" lon="-13.832374">
        <ele>26.240</ele>
        <time>2021-11-01T10:50:38Z</time>
      </trkpt>
      <trkpt lat="28.611364" lon="-13.832489">
        <ele>26.327</ele>
        <time>2021-11-01T10:50:49Z</time>
      </trkpt>
      <trkpt lat="28.610828" lon="-13.832135">
        <ele>25.668</ele>
        <time>2021-11-01T10:51:46Z</time>
      </trkpt>
      <trkpt lat="28.609761" lon="-13.832054">
        <ele>23.414</ele>
        <time>2021-11-01T10:52:01Z</time>
      </trkpt>
      <trkpt lat="28.608779" lon="-13.832209">
        <ele>20.908</ele>
        <time>2021-11-01T10:52:13Z</time>
      </trkpt>
      <trkpt lat="28.607528" lon="-13.832773">
        <ele>19.650</ele>
        <time>2021-11-01T10:52:28Z</time>
      </trkpt>
      <trkpt lat="28.602387" lon="-13.837258">
        <ele>31.140</ele>
        <time>2021-11-01T10:54:26Z</time>
      </trkpt>
      <trkpt lat="28.601234" lon="-13.837885">
        <ele>33.987</ele>
        <time>2021-11-01T10:54:47Z</time>
      </trkpt>
      <trkpt lat="28.600258" lon="-13.838128">
        <ele>35.212</ele>
        <time>2021-11-01T10:55:04Z</time>
      </trkpt>
      <trkpt lat="28.599041" lon="-13.838176">
        <ele>35.082</ele>
        <time>2021-11-01T10:55:22Z</time>
      </trkpt>
      <trkpt lat="28.597805" lon="-13.837926">
        <ele>34.049</ele>
        <time>2021-11-01T10:55:40Z</time>
      </trkpt>
      <trkpt lat="28.589601" lon="-13.834258">
        <ele>21.960</ele>
        <time>2021-11-01T10:57:36Z</time>
      </trkpt>
      <trkpt lat="28.587486" lon="-13.833870">
        <ele>17.773</ele>
        <time>2021-11-01T10:58:01Z</time>
      </trkpt>
      <trkpt lat="28.586414" lon="-13.833957">
        <ele>16.657</ele>
        <time>2021-11-01T10:58:14Z</time>
      </trkpt>
      <trkpt lat="28.585358" lon="-13.834242">
        <ele>15.900</ele>
        <time>2021-11-01T10:58:28Z</time>
      </trkpt>
      <trkpt lat="28.577839" lon="-13.836756">
        <ele>21.820</ele>
        <time>2021-11-01T11:00:23Z</time>
      </trkpt>
      <trkpt lat="28.577423" lon="-13.836964">
        <ele>21.908</ele>
        <time>2021-11-01T11:00:33Z</time>
      </trkpt>
      <trkpt lat="28.577183" lon="-13.837279">
        <ele>22.243</ele>
        <time>2021-11-01T11:02:11Z</time>
      </trkpt>
      <trkpt lat="28.578938" lon="-13.844070">
        <ele>43.123</ele>
        <time>2021-11-01T11:04:33Z</time>
      </trkpt>
      <trkpt lat="28.578877" lon="-13.845661">
        <ele>48.350</ele>
        <time>2021-11-01T11:05:07Z</time>
      </trkpt>
      <trkpt lat="28.579237" lon="-13.847200">
        <ele>55.235</ele>
        <time>2021-11-01T11:05:46Z</time>
      </trkpt>
      <trkpt lat="28.580014" lon="-13.848763">
        <ele>63.815</ele>
        <time>2021-11-01T11:06:28Z</time>
      </trkpt>
      <trkpt lat="28.580662" lon="-13.850538">
        <ele>71.792</ele>
        <time>2021-11-01T11:07:16Z</time>
      </trkpt>
      <trkpt lat="28.580867" lon="-13.850556">
        <ele>71.623</ele>
        <time>2021-11-01T11:07:22Z</time>
      </trkpt>
      <trkpt lat="28.581142" lon="-13.850218">
        <ele>71.066</ele>
        <time>2021-11-01T11:07:33Z</time>
      </trkpt>
      <trkpt lat="28.581497" lon="-13.850480">
        <ele>71.889</ele>
        <time>2021-11-01T11:10:56Z</time>
      </trkpt>
      <trkpt lat="28.581458" lon="-13.851118">
        <ele>73.006</ele>
        <time>2021-11-01T11:11:10Z</time>
      </trkpt>
      <trkpt lat="28.582428" lon="-13.852995">
        <ele>78.226</ele>
        <time>2021-11-01T11:11:49Z</time>
      </trkpt>
      <trkpt lat="28.584243" lon="-13.859952">
        <ele>114.708</ele>
        <time>2021-11-01T11:14:34Z</time>
      </trkpt>
      <trkpt lat="28.584844" lon="-13.863818">
        <ele>124.986</ele>
        <time>2021-11-01T11:15:57Z</time>
      </trkpt>
      <trkpt lat="28.585459" lon="-13.866706">
        <ele>134.816</ele>
        <time>2021-11-01T11:16:57Z</time>
      </trkpt>
      <trkpt lat="28.586858" lon="-13.870236">
        <ele>147.113</ele>
        <time>2021-11-01T11:18:23Z</time>
      </trkpt>
      <trkpt lat="28.587822" lon="-13.873570">
        <ele>153.618</ele>
        <time>2021-11-01T11:19:30Z</time>
      </trkpt>
      <trkpt lat="28.587233" lon="-13.877227">
        <ele>157.988</ele>
        <time>2021-11-01T11:20:31Z</time>
      </trkpt>
      <trkpt lat="28.586180" lon="-13.879933">
        <ele>167.195</ele>
        <time>2021-11-01T11:21:28Z</time>
      </trkpt>
      <trkpt lat="28.585995" lon="-13.881544">
        <ele>171.816</ele>
        <time>2021-11-01T11:22:01Z</time>
      </trkpt>
      <trkpt lat="28.585965" lon="-13.883720">
        <ele>178.589</ele>
        <time>2021-11-01T11:22:44Z</time>
      </trkpt>
      <trkpt lat="28.587836" lon="-13.886460">
        <ele>186.697</ele>
        <time>2021-11-01T11:23:54Z</time>
      </trkpt>
      <trkpt lat="28.588488" lon="-13.888062">
        <ele>188.723</ele>
        <time>2021-11-01T11:24:26Z</time>
      </trkpt>
      <trkpt lat="28.591077" lon="-13.891652">
        <ele>203.025</ele>
        <time>2021-11-01T11:25:55Z</time>
      </trkpt>
      <trkpt lat="28.593559" lon="-13.895946">
        <ele>232.008</ele>
        <time>2021-11-01T11:28:12Z</time>
      </trkpt>
      <trkpt lat="28.595030" lon="-13.900159">
        <ele>242.777</ele>
        <time>2021-11-01T11:29:51Z</time>
      </trkpt>
      <trkpt lat="28.596355" lon="-13.904556">
        <ele>254.477</ele>
        <time>2021-11-01T11:31:06Z</time>
      </trkpt>
      <trkpt lat="28.596357" lon="-13.905084">
        <ele>255.544</ele>
        <time>2021-11-01T11:31:16Z</time>
      </trkpt>
      <trkpt lat="28.596117" lon="-13.905609">
        <ele>255.799</ele>
        <time>2021-11-01T11:31:26Z</time>
      </trkpt>
      <trkpt lat="28.594062" lon="-13.907579">
        <ele>267.219</ele>
        <time>2021-11-01T11:32:25Z</time>
      </trkpt>
      <trkpt lat="28.594008" lon="-13.908401">
        <ele>268.386</ele>
        <time>2021-11-01T11:32:40Z</time>
      </trkpt>
      <trkpt lat="28.596640" lon="-13.911332">
        <ele>240.217</ele>
        <time>2021-11-01T11:33:14Z</time>
      </trkpt>
      <trkpt lat="28.596937" lon="-13.912911">
        <ele>235.140</ele>
        <time>2021-11-01T11:33:26Z</time>
      </trkpt>
      <trkpt lat="28.597504" lon="-13.914349">
        <ele>231.079</ele>
        <time>2021-11-01T11:33:38Z</time>
      </trkpt>
      <trkpt lat="28.597791" lon="-13.915569">
        <ele>227.905</ele>
        <time>2021-11-01T11:33:48Z</time>
      </trkpt>
      <trkpt lat="28.598304" lon="-13.916702">
        <ele>226.125</ele>
        <time>2021-11-01T11:33:59Z</time>
      </trkpt>
      <trkpt lat="28.598765" lon="-13.917261">
        <ele>225.408</ele>
        <time>2021-11-01T11:34:06Z</time>
      </trkpt>
      <trkpt lat="28.599481" lon="-13.917854">
        <ele>225.325</ele>
        <time>2021-11-01T11:34:16Z</time>
      </trkpt>
      <trkpt lat="28.600683" lon="-13.919204">
        <ele>222.325</ele>
        <time>2021-11-01T11:34:34Z</time>
      </trkpt>
      <trkpt lat="28.601467" lon="-13.919575">
        <ele>220.942</ele>
        <time>2021-11-01T11:34:43Z</time>
      </trkpt>
      <trkpt lat="28.603482" lon="-13.919875">
        <ele>217.917</ele>
        <time>2021-11-01T11:35:06Z</time>
      </trkpt>
      <trkpt lat="28.607053" lon="-13.919468">
        <ele>216.847</ele>
        <time>2021-11-01T11:35:58Z</time>
      </trkpt>
      <trkpt lat="28.607430" lon="-13.919572">
        <ele>217.294</ele>
        <time>2021-11-01T11:36:04Z</time>
      </trkpt>
      <trkpt lat="28.608588" lon="-13.925179">
        <ele>220.445</ele>
        <time>2021-11-01T11:37:18Z</time>
      </trkpt>
      <trkpt lat="28.609882" lon="-13.925479">
        <ele>220.898</ele>
        <time>2021-11-01T11:37:39Z</time>
      </trkpt>
      <trkpt lat="28.610524" lon="-13.925788">
        <ele>221.287</ele>
        <time>2021-11-01T11:37:51Z</time>
      </trkpt>
      <trkpt lat="28.610709" lon="-13.926024">
        <ele>221.342</ele>
        <time>2021-11-01T11:37:56Z</time>
      </trkpt>
      <trkpt lat="28.610918" lon="-13.926853">
        <ele>221.026</ele>
        <time>2021-11-01T11:38:09Z</time>
      </trkpt>
      <trkpt lat="28.611995" lon="-13.927555">
        <ele>221.508</ele>
        <time>2021-11-01T11:38:59Z</time>
      </trkpt>
      <trkpt lat="28.613648" lon="-13.925127">
        <ele>221.486</ele>
        <time>2021-11-01T11:50:49Z</time>
      </trkpt>
      <trkpt lat="28.614798" lon="-13.923981">
        <ele>221.276</ele>
        <time>2021-11-01T11:51:15Z</time>
      </trkpt>
      <trkpt lat="28.616176" lon="-13.920549">
        <ele>221.823</ele>
        <time>2021-11-01T11:52:41Z</time>
      </trkpt>
      <trkpt lat="28.618077" lon="-13.914194">
        <ele>223.798</ele>
        <time>2021-11-01T11:57:10Z</time>
      </trkpt>
      <trkpt lat="28.619367" lon="-13.912463">
        <ele>230.328</ele>
        <time>2021-11-01T11:57:59Z</time>
      </trkpt>
      <trkpt lat="28.620583" lon="-13.910336">
        <ele>238.265</ele>
        <time>2021-11-01T11:59:26Z</time>
      </trkpt>
      <trkpt lat="28.621660" lon="-13.909137">
        <ele>241.266</ele>
        <time>2021-11-01T12:00:04Z</time>
      </trkpt>
      <trkpt lat="28.623554" lon="-13.907848">
        <ele>237.169</ele>
        <time>2021-11-01T12:00:38Z</time>
      </trkpt>
      <trkpt lat="28.625076" lon="-13.906252">
        <ele>236.044</ele>
        <time>2021-11-01T12:01:09Z</time>
      </trkpt>
      <trkpt lat="28.627800" lon="-13.904404">
        <ele>237.305</ele>
        <time>2021-11-01T12:02:02Z</time>
      </trkpt>
      <trkpt lat="28.629822" lon="-13.903950">
        <ele>235.015</ele>
        <time>2021-11-01T12:03:12Z</time>
      </trkpt>
      <trkpt lat="28.630955" lon="-13.903330">
        <ele>230.708</ele>
        <time>2021-11-01T12:03:30Z</time>
      </trkpt>
      <trkpt lat="28.631685" lon="-13.903322">
        <ele>227.882</ele>
        <time>2021-11-01T12:03:39Z</time>
      </trkpt>
      <trkpt lat="28.633370" lon="-13.902552">
        <ele>226.452</ele>
        <time>2021-11-01T12:04:04Z</time>
      </trkpt>
      <trkpt lat="28.634604" lon="-13.902161">
        <ele>217.549</ele>
        <time>2021-11-01T12:04:20Z</time>
      </trkpt>
      <trkpt lat="28.635044" lon="-13.901753">
        <ele>213.834</ele>
        <time>2021-11-01T12:04:25Z</time>
      </trkpt>
      <trkpt lat="28.635644" lon="-13.900764">
        <ele>208.784</ele>
        <time>2021-11-01T12:04:35Z</time>
      </trkpt>
      <trkpt lat="28.636338" lon="-13.900149">
        <ele>205.711</ele>
        <time>2021-11-01T12:04:44Z</time>
      </trkpt>
      <trkpt lat="28.637598" lon="-13.899922">
        <ele>201.262</ele>
        <time>2021-11-01T12:04:58Z</time>
      </trkpt>
      <trkpt lat="28.639318" lon="-13.899134">
        <ele>189.855</ele>
        <time>2021-11-01T12:05:16Z</time>
      </trkpt>
      <trkpt lat="28.640900" lon="-13.898967">
        <ele>186.118</ele>
        <time>2021-11-01T12:05:33Z</time>
      </trkpt>
      <trkpt lat="28.644226" lon="-13.899921">
        <ele>180.198</ele>
        <time>2021-11-01T12:06:13Z</time>
      </trkpt>
      <trkpt lat="28.646096" lon="-13.899754">
        <ele>176.317</ele>
        <time>2021-11-01T12:06:37Z</time>
      </trkpt>
      <trkpt lat="28.652521" lon="-13.897208">
        <ele>169.308</ele>
        <time>2021-11-01T12:08:17Z</time>
      </trkpt>
      <trkpt lat="28.655437" lon="-13.895497">
        <ele>163.279</ele>
        <time>2021-11-01T12:09:06Z</time>
      </trkpt>
      <trkpt lat="28.656185" lon="-13.895441">
        <ele>161.159</ele>
        <time>2021-11-01T12:09:16Z</time>
      </trkpt>
      <trkpt lat="28.663137" lon="-13.893726">
        <ele>142.846</ele>
        <time>2021-11-01T12:10:44Z</time>
      </trkpt>
      <trkpt lat="28.663787" lon="-13.893856">
        <ele>140.521</ele>
        <time>2021-11-01T12:10:51Z</time>
      </trkpt>
      <trkpt lat="28.666155" lon="-13.895523">
        <ele>131.481</ele>
        <time>2021-11-01T12:11:19Z</time>
      </trkpt>
      <trkpt lat="28.666714" lon="-13.895700">
        <ele>128.858</ele>
        <time>2021-11-01T12:11:25Z</time>
      </trkpt>
      <trkpt lat="28.675935" lon="-13.894387">
        <ele>87.499</ele>
        <time>2021-11-01T12:13:03Z</time>
      </trkpt>
      <trkpt lat="28.676198" lon="-13.894259">
        <ele>86.692</ele>
        <time>2021-11-01T12:13:07Z</time>
      </trkpt>
      <trkpt lat="28.676322" lon="-13.893913">
        <ele>85.915</ele>
        <time>2021-11-01T12:13:12Z</time>
      </trkpt>
      <trkpt lat="28.676186" lon="-13.892704">
        <ele>82.065</ele>
        <time>2021-11-01T12:13:26Z</time>
      </trkpt>
      <trkpt lat="28.676253" lon="-13.892040">
        <ele>79.211</ele>
        <time>2021-11-01T12:13:33Z</time>
      </trkpt>
      <trkpt lat="28.676772" lon="-13.890883">
        <ele>75.708</ele>
        <time>2021-11-01T12:13:49Z</time>
      </trkpt>
      <trkpt lat="28.676854" lon="-13.890392">
        <ele>75.659</ele>
        <time>2021-11-01T12:13:57Z</time>
      </trkpt>
      <trkpt lat="28.677036" lon="-13.890263">
        <ele>75.549</ele>
        <time>2021-11-01T12:14:01Z</time>
      </trkpt>
      <trkpt lat="28.677273" lon="-13.890624">
        <ele>75.476</ele>
        <time>2021-11-01T12:14:06Z</time>
      </trkpt>
      <trkpt lat="28.677100" lon="-13.890846">
        <ele>75.791</ele>
        <time>2021-11-01T12:14:14Z</time>
      </trkpt>
      <trkpt lat="28.677240" lon="-13.890844">
        <ele>75.961</ele>
        <time>2021-11-01T12:14:35Z</time>
      </trkpt>
      <trkpt lat="28.678349" lon="-13.892241">
        <ele>80.588</ele>
        <time>2021-11-01T12:15:06Z</time>
      </trkpt>
      <trkpt lat="28.679621" lon="-13.892877">
        <ele>79.629</ele>
        <time>2021-11-01T12:15:28Z</time>
      </trkpt>
      <trkpt lat="28.682166" lon="-13.893249">
        <ele>79.462</ele>
        <time>2021-11-01T12:16:05Z</time>
      </trkpt>
      <trkpt lat="28.683310" lon="-13.893181">
        <ele>80.729</ele>
        <time>2021-11-01T12:16:24Z</time>
      </trkpt>
      <trkpt lat="28.685198" lon="-13.892797">
        <ele>82.600</ele>
        <time>2021-11-01T12:16:55Z</time>
      </trkpt>
      <trkpt lat="28.687597" lon="-13.891789">
        <ele>85.720</ele>
        <time>2021-11-01T12:17:39Z</time>
      </trkpt>
      <trkpt lat="28.695501" lon="-13.887931">
        <ele>86.308</ele>
        <time>2021-11-01T12:20:03Z</time>
      </trkpt>
      <trkpt lat="28.696884" lon="-13.886895">
        <ele>85.730</ele>
        <time>2021-11-01T12:20:31Z</time>
      </trkpt>
      <trkpt lat="28.698752" lon="-13.885057">
        <ele>85.450</ele>
        <time>2021-11-01T12:21:12Z</time>
      </trkpt>
      <trkpt lat="28.700505" lon="-13.883949">
        <ele>82.427</ele>
        <time>2021-11-01T12:21:42Z</time>
      </trkpt>
      <trkpt lat="28.712019" lon="-13.878874">
        <ele>61.642</ele>
        <time>2021-11-01T12:24:18Z</time>
      </trkpt>
      <trkpt lat="28.712799" lon="-13.878504">
        <ele>60.222</ele>
        <time>2021-11-01T12:24:28Z</time>
      </trkpt>
      <trkpt lat="28.713089" lon="-13.878058">
        <ele>60.099</ele>
        <time>2021-11-01T12:24:35Z</time>
      </trkpt>
      <trkpt lat="28.713636" lon="-13.878116">
        <ele>59.170</ele>
        <time>2021-11-01T12:24:44Z</time>
      </trkpt>
      <trkpt lat="28.716320" lon="-13.875498">
        <ele>43.213</ele>
        <time>2021-11-01T12:25:26Z</time>
      </trkpt>
      <trkpt lat="28.717984" lon="-13.874529">
        <ele>39.219</ele>
        <time>2021-11-01T12:25:46Z</time>
      </trkpt>
      <trkpt lat="28.722258" lon="-13.873194">
        <ele>36.509</ele>
        <time>2021-11-01T12:26:46Z</time>
      </trkpt>
      <trkpt lat="28.722801" lon="-13.872852">
        <ele>36.119</ele>
        <time>2021-11-01T12:28:15Z</time>
      </trkpt>
      <trkpt lat="28.722965" lon="-13.872973">
        <ele>36.408</ele>
        <time>2021-11-01T12:28:19Z</time>
      </trkpt>
      <trkpt lat="28.723069" lon="-13.873671">
        <ele>36.829</ele>
        <time>2021-11-01T12:28:30Z</time>
      </trkpt>
      <trkpt lat="28.724175" lon="-13.876185">
        <ele>44.259</ele>
        <time>2021-11-01T12:29:20Z</time>
      </trkpt>
      <trkpt lat="28.724404" lon="-13.876451">
        <ele>45.396</ele>
        <time>2021-11-01T12:29:27Z</time>
      </trkpt>
      <trkpt lat="28.724772" lon="-13.876487">
        <ele>44.111</ele>
        <time>2021-11-01T12:29:34Z</time>
      </trkpt>
      <trkpt lat="28.733708" lon="-13.873270">
        <ele>22.881</ele>
        <time>2021-11-01T12:31:38Z</time>
      </trkpt>
      <trkpt lat="28.735704" lon="-13.872710">
        <ele>22.728</ele>
        <time>2021-11-01T12:32:11Z</time>
      </trkpt>
      <trkpt lat="28.738952" lon="-13.871088">
        <ele>17.379</ele>
        <time>2021-11-01T12:33:02Z</time>
      </trkpt>
      <trkpt lat="28.743017" lon="-13.870662">
        <ele>7.442</ele>
        <time>2021-11-01T12:33:56Z</time>
      </trkpt>
      <trkpt lat="28.743134" lon="-13.870412">
        <ele>7.169</ele>
        <time>2021-11-01T12:34:00Z</time>
      </trkpt>
      <trkpt lat="28.743021" lon="-13.869121">
        <ele>7.404</ele>
        <time>2021-11-01T12:34:44Z</time>
      </trkpt>
      <trkpt lat="28.742142" lon="-13.869166">
        <ele>9.824</ele>
        <time>2021-11-01T12:35:18Z</time>
      </trkpt>
      <trkpt lat="28.742096" lon="-13.869066">
        <ele>9.808</ele>
        <time>2021-11-01T12:35:25Z</time>
      </trkpt>
      <trkpt lat="28.742117" lon="-13.869231">
        <ele>9.734</ele>
        <time>2021-11-01T12:38:51Z</time>
      </trkpt>
      <trkpt lat="28.742227" lon="-13.869099">
        <ele>9.784</ele>
        <time>2021-11-01T12:44:20Z</time>
      </trkpt>
    </trkseg>
  </trk>
</gpx>
